GFSGBSN_925_rhum_000.txt.gz
RH
87 76 84 75 83 83 80 72 75 86 88 95 91 91 92 92 92 94 92 92 94 94 96 83 89 82 84 75 61 54 49 49 55 71 69 60 57 50 62 57 48 49 42 34 31 31 29
84 90 86 79 73 83 81 76 72 72 92 97 95 91 93 92 95 95 95 90 93 95 96 86 80 81 84 75 43 43 50 50 48 52 62 57 53 44 45 51 59 46 43 43 36 30 30
90 85 89 80 72 78 81 80 77 72 71 96 96 92 91 92 91 94 89 95 94 94 94 95 83 90 71 60 43 42 44 47 45 44 44 51 52 59 43 49 46 50 70 47 43 34 31
95 93 87 83 75 78 81 81 80 78 71 78 94 95 87 86 90 84 82 77 87 90 91 83 80 78 75 56 54 47 44 45 42 40 41 42 43 53 58 53 63 69 71 84 48 36 34
95 92 90 85 76 75 84 80 81 81 81 76 85 91 87 81 85 82 84 77 81 85 86 84 88 76 69 55 56 51 46 43 40 38 42 40 41 59 62 72 88 78 82 83 67 41 35
100 93 90 80 80 80 81 79 79 80 82 83 82 84 90 76 83 81 82 78 83 84 82 83 77 86 65 57 51 51 48 46 43 40 42 51 57 69 75 82 88 80 90 64 72 49 38
93 100 87 76 75 78 76 76 78 79 80 84 84 78 89 76 80 86 85 88 85 92 88 68 66 59 48 47 52 48 47 46 46 51 65 52 76 84 71 69 67 61 61 71 52 47 44
98 99 95 83 75 72 74 76 78 78 80 82 82 81 87 75 80 84 88 79 73 84 94 78 57 60 50 50 56 50 47 56 60 75 59 65 83 58 50 52 62 64 75 77 54 41 43
87 99 99 100 82 74 74 73 79 79 78 84 84 83 83 75 83 92 95 80 79 82 99 85 77 65 57 55 60 54 50 54 60 70 65 73 60 51 50 50 58 61 76 80 67 46 46
83 84 99 95 100 87 76 74 80 80 81 87 88 81 81 84 85 80 89 83 84 86 100 88 89 75 64 73 83 49 44 52 60 66 60 63 50 46 55 55 50 66 56 65 78 68 72
86 87 87 98 96 99 86 76 78 80 85 89 90 83 80 72 82 76 89 85 91 89 97 76 84 62 62 87 64 62 51 53 66 59 55 78 53 51 52 56 45 58 54 67 82 87 72
86 94 88 98 94 92 98 84 75 81 87 92 91 83 78 86 87 94 93 97 82 99 94 82 84 92 88 81 71 65 60 55 52 67 54 55 46 52 54 51 62 48 63 76 93 90 93
85 90 92 97 95 90 98 90 75 79 89 93 93 87 78 82 75 95 90 91 100 99 68 95 92 80 73 91 90 84 72 75 80 97 98 96 80 61 77 86 62 67 75 98 99 99 77
83 89 94 99 98 88 97 99 80 75 89 95 99 92 86 76 88 88 85 96 100 53 67 83 87 87 98 87 92 86 76 80 69 75 88 85 76 78 69 92 76 82 85 100 97 96 59
79 89 95 98 99 91 98 96 84 79 90 95 100 100 99 87 92 85 90 99 76 70 73 95 96 100 100 95 84 80 70 92 60 60 99 100 85 60 57 61 80 91 97 79 99 37 54
82 84 97 96 99 86 100 98 85 86 96 99 100 100 97 90 100 94 98 90 81 68 84 92 98 74 85 84 73 62 58 48 59 54 58 89 96 68 70 76 74 88 69 99 87 58 65
82 86 92 96 96 89 99 100 96 97 97 100 96 99 78 96 100 98 97 89 73 64 78 92 72 61 50 66 60 50 47 42 46 48 71 88 96 94 86 94 87 98 97 92 78 56 54
76 84 89 98 98 85 97 94 100 100 99 100 96 99 84 100 98 96 96 78 84 79 76 83 75 61 40 47 54 49 57 51 36 38 63 89 100 100 94 76 75 80 77 77 56 61 52
68 78 92 98 99 98 83 98 96 98 100 95 96 96 100 88 97 97 84 82 86 87 84 83 66 42 34 36 44 39 50 38 34 62 76 89 99 99 99 94 81 93 77 61 57 47 57
63 76 92 96 98 96 96 98 100 98 99 81 96 98 100 99 86 88 91 94 96 80 83 72 62 46 41 40 35 63 44 43 40 46 79 84 88 100 94 72 77 86 79 66 57 57 46
63 72 84 92 99 95 97 95 100 98 100 82 95 89 82 98 95 94 90 89 95 96 80 74 62 53 53 52 47 44 53 44 41 40 69 89 98 79 49 54 57 60 61 55 54 44 48
62 70 82 86 99 94 98 96 99 100 100 94 96 83 82 86 70 81 89 90 94 90 92 75 68 66 66 54 45 50 44 47 46 47 45 65 82 70 51 44 48 57 55 55 54 48 47
60 67 78 86 93 97 98 93 97 100 99 99 97 81 80 60 75 89 85 84 86 86 84 77 74 60 74 55 46 34 37 37 44 50 58 65 76 66 60 43 46 54 50 51 51 48 48
64 64 76 85 91 96 98 90 97 99 100 89 90 90 94 84 55 62 62 64 84 88 90 82 72 79 64 47 54 57 56 56 48 47 46 70 75 66 63 49 76 42 36 36 44 41 40
63 63 75 84 88 98 95 96 98 100 100 96 84 92 98 92 64 52 45 69 89 93 98 88 80 60 71 57 74 87 88 79 72 61 70 53 66 78 83 76 56 46 36 37 43 44 35
63 63 75 83 88 97 97 86 96 100 98 100 93 81 96 94 77 52 59 80 92 96 98 94 73 63 71 68 81 98 92 94 99 91 70 62 64 87 84 72 70 44 39 34 35 54 42
64 64 76 85 89 96 96 91 93 99 98 100 99 95 94 98 73 54 61 83 90 91 94 86 85 78 86 69 81 88 94 81 98 95 96 91 89 97 91 86 73 42 40 34 47 55 40
63 66 74 83 91 95 95 92 94 100 98 100 98 99 90 94 77 62 55 76 95 98 91 76 83 84 96 86 86 86 71 76 88 75 86 85 88 92 96 99 92 44 47 49 56 43 38
65 68 73 84 92 95 96 97 98 97 100 100 100 100 100 98 90 77 68 73 85 94 92 84 82 71 81 84 79 64 62 50 58 90 64 82 71 76 79 71 52 46 52 47 47 48 47

GFSGBSN_925_rhum_003.txt.gz
RH
93 80 75 76 86 84 74 83 82 77 82 94 96 92 91 93 95 91 94 86 94 96 87 88 83 78 83 87 86 52 44 48 56 61 75 76 79 70 74 69 69 68 55 48 44 43 39
97 90 89 77 72 84 76 76 83 77 76 94 97 97 92 93 95 86 89 92 90 95 93 80 78 80 88 97 49 49 50 47 51 70 76 75 72 60 66 61 67 62 60 47 42 40 37
98 100 95 90 81 78 79 75 82 80 77 75 96 98 88 85 93 84 89 93 96 96 84 80 76 85 89 77 49 49 47 48 49 46 50 72 67 70 68 73 55 58 67 61 60 43 43
95 98 100 95 88 78 84 76 80 82 80 76 89 89 90 79 80 84 77 86 87 93 90 93 77 89 90 57 53 51 48 44 46 47 44 42 47 55 70 62 66 74 72 86 59 54 44
75 90 97 100 86 82 79 80 76 85 81 82 78 86 88 80 78 85 78 86 81 88 86 79 81 86 87 56 62 60 53 45 43 42 42 42 43 59 66 83 85 86 85 88 77 54 50
70 73 92 97 98 83 83 80 79 83 80 84 83 82 86 84 72 85 80 79 84 83 77 87 86 85 74 64 56 58 54 48 47 47 48 56 64 78 85 90 88 74 90 74 86 60 55
73 75 77 87 98 91 80 74 77 77 79 80 83 87 87 85 71 84 85 78 91 96 86 86 76 66 50 55 52 55 54 52 52 56 77 62 89 91 82 81 72 71 70 71 66 58 62
75 75 74 84 98 98 98 79 75 73 78 80 81 91 85 90 69 83 87 88 76 81 93 77 70 66 53 54 62 57 51 64 68 76 74 80 85 67 61 62 70 78 87 83 65 61 74
66 79 83 82 88 90 94 91 78 73 78 77 81 88 84 88 75 93 94 78 79 77 94 79 76 72 62 61 69 66 58 61 74 87 81 86 64 53 59 62 69 71 86 81 73 64 64
68 70 80 85 86 88 90 100 95 81 77 77 82 86 89 84 92 88 92 85 85 82 100 78 85 76 68 67 79 54 54 58 72 85 76 80 60 60 61 68 60 75 53 57 64 69 92
69 73 80 83 89 87 98 98 96 92 81 81 84 88 89 66 68 86 81 76 90 85 97 78 78 59 62 81 66 69 52 62 78 75 76 80 68 71 70 63 56 63 47 53 64 78 88
64 72 80 83 90 93 97 85 99 92 87 84 89 90 86 79 81 84 87 84 79 92 93 90 83 87 82 82 72 60 64 60 67 76 73 69 51 56 58 48 45 52 67 66 70 78 96
53 73 82 84 86 94 93 85 96 85 93 90 93 90 85 87 89 92 84 86 98 96 62 92 92 85 79 86 83 72 91 95 99 100 99 86 93 69 76 78 62 63 74 90 97 98 87
54 70 81 84 83 97 99 86 100 80 98 99 96 92 86 78 79 82 80 97 99 66 73 78 83 75 92 73 84 81 98 99 91 90 93 94 90 77 75 81 73 77 72 84 90 90 68
64 71 82 85 85 95 93 96 99 90 98 99 100 100 91 92 85 76 91 97 83 69 72 88 90 100 100 86 82 93 91 99 70 80 90 95 88 67 57 65 63 76 83 64 98 90 80
59 62 72 85 91 93 95 97 81 91 100 100 99 97 93 90 90 83 94 83 83 64 79 86 100 96 78 80 97 97 91 77 72 65 58 82 95 76 69 64 66 60 59 92 99 98 98
52 53 60 84 91 98 99 97 82 99 100 100 95 98 99 92 98 96 99 90 74 61 73 92 96 93 76 79 86 84 69 55 54 55 61 77 91 82 85 86 79 89 92 75 72 84 98
54 57 59 81 85 99 96 91 94 99 99 99 97 98 100 100 98 92 97 79 64 77 71 84 88 80 80 68 74 73 66 48 53 50 70 75 99 98 83 70 63 69 84 63 74 89 92
58 61 60 75 84 99 88 95 98 96 98 94 94 98 100 90 98 97 81 80 71 80 81 86 90 76 64 66 95 66 63 52 48 56 77 84 99 98 100 96 90 84 76 74 64 90 96
62 59 61 67 83 98 98 97 97 99 95 88 98 98 99 99 89 87 87 84 87 79 85 83 83 81 78 60 58 62 52 46 49 47 74 74 96 100 96 93 80 94 70 83 90 99 56
66 59 62 66 81 90 98 95 96 95 99 77 97 93 84 94 97 94 83 86 89 95 89 82 85 86 77 66 53 60 61 55 48 72 76 81 100 100 92 87 84 74 79 91 100 74 47
65 59 62 64 79 84 98 88 87 98 100 91 98 95 86 87 79 94 93 95 91 91 91 87 92 72 70 83 55 57 56 61 49 68 73 79 99 100 89 80 77 79 80 69 59 57 53
68 61 61 64 74 85 93 95 94 97 99 99 99 92 80 82 85 92 88 85 85 78 85 76 79 83 82 74 65 62 64 48 44 43 60 86 94 96 89 67 76 77 65 64 56 49 49
69 61 62 62 78 85 89 97 94 92 98 100 92 96 91 90 83 81 76 80 85 83 82 81 85 88 69 60 63 64 69 62 49 52 49 67 76 76 85 60 75 47 38 51 54 49 47
71 64 63 62 82 88 90 96 94 98 93 99 93 92 95 96 81 84 72 60 78 84 97 86 77 68 73 76 92 95 93 69 73 68 65 62 79 82 86 85 59 44 40 44 53 52 42
71 64 62 64 81 84 91 97 88 98 92 100 88 84 95 94 90 74 73 75 87 87 95 90 89 76 86 79 91 100 100 95 94 77 70 62 66 81 89 78 72 45 42 36 37 57 43
74 72 64 66 79 86 92 96 90 94 94 100 97 84 92 96 81 78 79 81 82 92 98 96 92 85 81 93 96 95 93 83 90 92 90 84 83 88 90 93 75 46 40 38 49 52 43
74 76 66 65 74 86 91 95 94 91 93 100 99 96 89 94 82 72 63 86 96 97 97 93 93 93 96 96 96 93 88 93 94 78 69 77 95 93 89 95 91 46 42 35 48 44 56
75 69 68 69 75 83 92 92 96 88 94 100 99 100 98 93 90 83 71 66 72 90 97 96 98 87 84 88 87 81 73 84 84 94 68 87 75 82 76 68 54 50 48 50 51 52 58

GFSGBSN_925_rhum_006.txt.gz
RH
97 99 100 98 91 76 76 84 74 79 82 81 97 97 94 93 95 93 88 82 81 94 86 83 82 76 84 98 90 53 58 52 64 79 83 84 88 79 80 72 72 81 66 62 59 56 53
90 89 94 99 100 85 74 76 82 74 82 76 89 97 97 93 96 92 79 87 79 88 91 81 80 78 84 92 52 52 55 55 57 66 74 80 86 75 77 74 74 62 65 63 56 53 52
69 74 77 87 98 100 87 73 82 76 80 84 82 92 92 84 94 92 85 90 93 87 88 88 84 78 96 80 51 49 51 55 52 59 74 76 76 83 75 78 62 65 76 65 60 61 55
82 77 73 76 86 97 100 86 76 80 77 83 82 80 92 87 80 88 84 89 78 94 89 86 80 89 96 56 53 46 46 50 48 49 47 46 51 74 72 65 72 78 76 88 60 58 59
74 78 76 77 80 91 98 98 85 79 72 78 82 80 87 85 80 79 87 84 80 81 88 83 81 85 91 59 62 52 55 56 45 43 43 43 44 59 61 85 86 87 95 82 71 59 61
66 61 70 81 77 80 94 98 98 82 78 78 79 84 82 81 83 80 88 84 84 91 84 88 88 92 77 67 56 56 55 54 48 48 49 55 64 78 87 87 90 75 85 75 72 67 65
64 63 62 76 82 79 83 95 94 97 79 76 79 85 85 83 84 81 92 77 83 89 91 84 76 73 51 56 55 57 58 53 54 58 77 63 89 88 80 82 77 82 88 80 70 58 67
63 61 76 75 78 84 84 88 96 98 87 78 76 83 89 84 87 83 85 90 75 69 93 79 74 70 60 57 66 61 56 68 69 87 77 83 88 70 69 72 78 84 84 85 68 55 64
57 52 72 77 73 78 88 86 93 96 96 79 76 82 90 88 87 94 90 83 76 73 94 81 80 79 68 62 69 72 59 67 67 72 68 87 64 55 66 76 81 81 83 80 84 66 56
59 54 50 76 74 76 84 89 88 95 99 83 79 82 91 94 93 98 94 83 78 77 97 78 85 80 72 65 79 54 53 60 72 80 73 76 66 69 67 74 73 87 64 68 70 80 92
61 65 51 71 74 83 87 91 97 96 94 94 80 85 92 82 70 94 76 83 85 79 73 66 86 61 68 78 68 72 54 59 88 83 82 82 81 81 76 69 62 74 56 60 65 75 84
61 59 62 74 76 89 87 88 92 100 94 94 100 92 94 81 79 76 68 81 84 93 90 93 86 90 90 82 72 64 68 61 68 78 75 73 60 65 66 56 53 61 66 66 70 82 93
60 60 61 68 77 93 91 92 94 98 93 97 99 98 94 81 95 80 82 86 95 96 60 90 90 90 84 86 82 76 92 95 99 99 99 98 94 75 69 78 65 63 74 94 97 98 84
62 57 57 54 64 86 92 91 100 99 93 99 98 98 94 77 73 87 79 93 94 64 82 77 82 88 90 72 88 78 92 97 90 98 100 95 97 90 70 71 75 72 69 86 91 97 82
71 61 60 55 63 81 92 95 100 98 91 88 95 100 99 83 82 81 84 97 83 72 73 85 82 93 93 88 81 95 96 88 68 94 94 97 90 68 65 63 60 78 82 58 80 74 91
73 66 54 66 61 80 95 96 99 98 82 99 98 96 94 81 87 81 92 74 80 66 81 78 95 93 90 86 90 92 92 71 83 75 69 76 98 74 73 73 65 64 60 85 83 100 92
66 66 62 56 62 66 92 97 99 97 98 93 99 97 96 97 86 94 96 90 77 72 75 84 93 98 88 78 86 86 84 72 74 66 73 81 90 97 79 87 76 84 75 72 62 75 99
66 64 65 60 63 66 90 100 96 96 99 82 95 100 100 100 98 97 97 78 60 73 74 75 84 94 90 77 90 88 86 63 59 58 87 70 97 96 82 70 73 62 64 62 73 72 78
74 65 65 58 64 67 90 98 96 99 98 98 96 98 100 92 97 97 82 75 67 78 77 78 91 85 79 71 81 75 65 51 51 60 74 81 99 98 96 91 80 91 66 70 69 70 87
79 70 66 60 63 65 84 92 100 97 99 99 96 98 99 98 88 81 82 82 83 75 70 72 85 81 85 77 65 66 69 52 52 48 64 71 95 99 92 96 88 91 75 68 75 88 74
81 72 69 58 64 65 82 91 99 96 99 97 98 94 84 97 98 86 78 80 85 84 82 84 90 91 88 90 77 76 61 50 55 64 80 82 100 100 96 95 97 98 78 82 98 79 73
80 75 72 60 64 64 83 92 97 89 95 99 98 95 83 84 76 93 85 88 83 80 85 93 95 80 81 86 60 59 58 62 56 73 86 88 99 100 97 84 80 95 82 80 83 84 90
76 76 73 60 61 71 83 88 99 86 96 96 96 88 75 83 82 92 91 83 85 76 80 74 83 84 88 80 63 68 67 58 54 72 79 88 95 100 100 88 86 95 79 83 95 89 87
73 76 72 64 60 76 84 93 99 87 99 100 98 91 91 96 88 85 80 82 87 82 80 82 78 86 68 67 71 80 68 77 60 54 55 82 85 91 100 96 87 48 60 68 84 80 82
72 73 74 70 62 74 83 93 99 92 93 100 100 93 90 93 77 78 79 82 73 85 89 81 81 73 65 76 90 90 94 90 75 62 65 65 74 93 94 90 62 45 46 64 64 64 50
73 74 73 73 63 72 83 91 98 89 91 100 100 90 91 93 91 70 78 75 85 86 90 91 89 83 84 89 95 100 93 82 89 88 71 70 69 84 92 86 72 47 41 38 39 63 43
76 78 72 65 66 74 82 90 95 94 95 100 99 89 89 94 79 78 81 80 82 88 93 94 95 98 88 94 97 100 95 79 96 90 94 88 86 92 90 94 80 54 43 41 54 54 44
75 77 74 66 69 72 77 88 94 95 96 99 99 91 83 90 80 66 68 88 95 89 93 92 99 97 99 97 97 96 76 95 89 81 84 87 91 88 85 93 92 50 38 36 45 52 61
72 80 81 70 74 76 76 87 90 93 98 98 100 98 93 92 91 83 72 66 67 73 90 97 98 94 87 92 90 92 84 96 79 94 69 84 78 79 82 78 58 51 47 53 51 61 64

GFSGBSN_925_rhum_009.txt.gz
RH
76 75 77 81 85 96 99 95 80 79 76 76 85 87 96 96 93 94 95 97 91 96 86 82 79 79 92 94 89 55 65 68 82 87 90 84 88 81 84 77 75 84 74 62 62 65 63
78 80 79 77 79 84 92 97 98 82 80 73 81 88 86 95 96 92 93 96 93 95 94 80 76 83 85 92 48 55 58 60 64 82 88 88 87 82 86 80 76 70 68 68 65 61 60
64 67 70 78 81 80 84 94 97 95 78 76 80 83 85 88 94 93 91 93 91 90 88 81 80 78 94 78 55 52 52 54 55 64 78 79 82 83 83 83 68 71 84 73 66 62 68
66 71 71 65 77 84 77 81 90 100 92 79 76 78 83 86 88 88 88 91 92 87 91 86 87 90 91 56 55 49 53 49 52 58 52 50 64 86 83 68 72 79 82 92 61 64 63
62 63 62 72 77 85 84 83 85 98 99 90 76 77 81 87 89 81 81 82 80 84 89 84 83 84 89 61 67 50 52 52 48 48 47 45 47 64 60 84 83 88 88 86 73 59 62
61 60 58 59 75 80 80 82 86 92 96 99 81 79 78 82 89 80 75 90 82 89 90 87 88 92 79 68 59 57 57 53 50 50 49 56 67 77 84 88 88 77 95 83 82 64 66
60 59 57 56 59 71 77 79 84 89 88 94 99 81 83 78 85 78 94 83 82 84 90 86 81 74 55 57 56 61 59 57 56 61 76 65 90 95 76 84 79 87 86 83 71 61 72
60 60 57 62 57 60 75 78 83 84 89 90 95 87 87 86 86 85 92 85 74 67 91 80 79 73 64 61 69 62 56 69 75 84 79 80 94 76 68 72 79 82 87 85 64 56 59
60 63 56 65 58 66 74 79 85 88 93 95 92 92 87 88 87 96 90 77 70 70 90 80 83 81 73 64 70 73 61 69 79 92 89 88 67 62 66 76 88 88 94 78 78 68 61
63 62 56 60 57 70 76 85 85 87 91 91 89 99 88 95 99 99 94 81 75 72 95 76 94 84 76 67 77 56 57 65 76 89 73 75 60 69 73 78 77 86 72 74 76 82 86
66 67 64 66 56 63 77 87 94 91 93 93 92 99 92 99 93 97 77 83 76 62 82 69 90 64 70 75 69 75 56 60 75 86 82 87 90 82 80 74 67 72 63 68 74 86 90
74 70 70 66 58 56 74 84 97 88 92 92 96 93 100 99 76 80 77 83 76 87 88 89 90 89 90 82 72 69 70 58 71 76 78 75 66 75 76 64 61 62 74 76 74 82 94
76 75 74 64 60 63 88 95 100 90 98 95 96 91 96 88 90 73 84 86 95 93 64 91 82 93 77 90 80 77 89 94 95 99 97 97 88 78 72 76 69 63 77 96 96 95 83
67 70 76 68 66 65 69 83 98 98 100 98 96 92 84 86 74 83 80 89 96 63 84 77 80 94 88 82 84 86 90 93 84 99 100 95 98 88 79 80 80 77 71 86 86 96 82
77 76 70 69 67 62 66 74 88 98 95 97 86 98 86 100 69 82 78 96 81 70 72 90 82 88 90 74 75 84 90 81 70 83 96 99 94 80 74 62 67 96 98 63 67 67 97
83 82 77 68 70 60 66 77 87 98 100 88 99 95 88 100 85 77 86 80 73 68 78 73 87 77 79 82 91 95 85 74 75 71 67 84 94 75 73 69 68 70 64 95 96 95 94
81 82 78 71 69 61 66 74 93 98 98 95 99 95 91 100 83 89 97 82 76 69 74 84 74 81 76 85 88 75 69 70 73 73 75 88 89 84 75 90 81 85 87 70 68 80 94
82 80 80 72 72 61 66 78 90 98 94 97 92 99 99 100 96 96 97 72 65 73 79 79 76 71 83 82 94 90 90 74 70 74 92 76 91 97 76 68 62 63 69 69 96 83 69
81 78 81 75 71 63 66 81 91 98 99 98 95 96 99 85 98 97 78 68 68 71 78 75 84 77 77 78 89 87 75 58 68 68 81 75 100 93 99 93 90 93 81 66 64 74 79
81 77 80 76 73 62 67 83 92 97 98 100 96 100 98 96 88 84 74 82 88 72 67 68 80 78 86 88 69 73 76 56 58 59 62 70 100 98 86 90 100 96 84 68 65 80 71
78 76 78 76 67 61 72 86 93 99 97 100 96 96 89 97 97 81 74 75 86 92 76 74 89 87 87 88 77 79 70 59 56 61 78 92 100 100 92 86 95 96 85 77 77 66 71
74 75 78 73 73 61 72 85 95 98 87 99 98 96 84 86 77 71 78 79 84 76 82 91 96 81 87 95 68 67 65 62 61 81 85 92 100 100 99 97 95 90 91 92 70 67 67
72 72 73 75 72 62 70 82 90 95 93 97 93 92 76 82 84 84 78 81 83 74 83 73 82 86 84 79 66 66 69 69 65 79 94 98 100 100 93 95 95 99 92 83 75 64 70
74 73 74 72 72 64 66 82 94 97 99 100 98 100 95 93 79 76 80 76 82 80 82 81 76 86 68 66 69 74 77 81 80 66 82 98 100 100 98 100 98 85 71 69 69 79 76
78 74 75 75 65 65 67 82 92 97 99 100 100 100 92 91 74 75 76 82 84 81 86 83 79 72 72 80 92 89 95 88 83 72 75 68 81 99 100 96 67 79 94 91 94 88 76
80 73 77 77 66 68 69 79 92 95 99 100 98 98 96 91 87 70 81 86 94 91 89 88 82 84 90 94 93 98 86 86 92 88 72 73 73 78 90 98 70 49 67 58 71 75 69
81 73 77 79 72 72 71 76 89 93 96 100 99 100 92 90 78 72 81 85 80 87 89 90 90 99 92 95 95 98 90 77 95 96 88 93 89 88 84 94 82 56 46 48 80 62 55
81 78 78 80 80 72 76 78 87 92 93 99 96 96 98 90 80 68 70 88 92 87 93 89 99 100 99 98 97 91 93 93 87 78 88 88 86 95 90 93 87 53 42 46 48 62 58
76 80 76 79 83 78 78 75 86 89 93 92 98 99 96 89 87 83 72 65 65 69 86 95 95 95 94 94 94 89 88 96 89 90 76 87 76 83 76 75 59 54 51 55 55 65 67

GFSGBSN_925_rhum_012.txt.gz
RH
68 74 72 70 69 78 84 84 88 96 99 94 86 85 94 94 88 93 92 94 96 93 85 86 86 81 94 93 86 61 68 73 82 87 80 76 84 80 81 79 75 85 80 68 63 64 68
67 65 66 64 76 76 80 87 88 91 94 98 91 77 88 87 91 91 87 86 96 94 90 86 84 87 85 94 50 56 60 63 87 90 94 85 77 84 84 83 78 70 74 74 66 69 67
67 65 66 66 72 73 77 78 89 88 91 96 94 80 82 83 85 86 90 82 88 88 82 85 85 81 92 78 55 57 54 56 65 80 90 91 80 76 84 89 73 76 86 78 74 68 68
65 65 65 63 61 61 74 83 78 84 89 95 98 94 82 83 82 82 85 80 88 87 90 85 88 87 85 55 59 56 54 50 52 58 60 62 75 87 88 77 73 78 79 90 66 67 65
63 63 62 61 62 66 60 66 79 83 87 92 96 96 86 86 85 86 78 78 80 76 84 84 91 83 90 62 69 51 55 50 52 54 54 49 65 75 75 90 84 84 91 85 72 57 64
67 60 62 58 58 68 62 68 81 78 83 89 95 95 99 84 90 87 74 85 83 84 92 90 88 90 78 67 61 60 58 51 50 52 51 55 65 76 84 90 95 82 87 81 78 64 69
64 59 57 59 58 56 54 75 79 76 76 86 92 92 88 95 92 88 84 91 85 89 94 85 82 76 59 60 57 63 62 56 56 60 83 68 92 92 83 82 77 84 93 88 70 59 66
65 61 68 71 66 58 58 68 75 83 86 82 89 94 90 96 97 92 83 83 74 65 92 82 84 80 67 65 71 64 60 69 73 86 76 80 94 76 68 70 77 80 87 83 68 62 67
73 71 72 74 71 63 57 54 69 82 90 91 90 96 96 94 100 100 88 74 65 68 84 77 82 82 75 66 73 75 65 72 81 91 84 87 68 66 73 80 84 87 92 86 86 64 60
80 70 74 73 65 65 68 55 82 87 92 92 90 97 95 91 100 99 90 75 72 63 92 73 94 85 79 67 78 60 60 69 79 90 88 87 71 74 78 82 79 91 75 78 82 88 92
75 67 68 76 67 67 61 70 89 92 96 96 92 99 95 98 100 95 83 76 71 55 96 76 94 67 74 72 67 79 59 63 89 87 82 81 86 85 85 75 72 70 67 76 79 92 95
82 82 79 79 71 69 70 78 92 89 95 97 100 98 94 85 100 84 82 79 66 83 93 89 84 93 91 77 72 75 69 61 68 72 74 71 70 74 76 66 65 63 74 77 80 85 94
85 83 83 84 75 72 70 69 75 90 97 99 98 95 95 88 98 87 82 78 94 90 67 91 86 84 80 83 79 79 88 93 91 99 99 90 88 74 74 80 73 72 88 97 99 97 84
81 83 83 84 82 76 73 65 72 84 96 98 95 93 92 84 92 94 79 84 93 65 78 76 71 78 82 80 78 81 90 92 83 92 100 96 93 90 77 76 82 81 77 90 91 96 87
85 85 84 82 81 77 71 64 69 86 91 99 91 92 90 78 93 85 72 86 77 67 77 91 79 82 84 84 82 87 89 87 67 90 98 98 95 79 78 72 64 98 97 69 75 61 90
78 83 84 80 82 76 65 67 71 85 92 98 99 99 98 78 96 91 74 82 68 63 79 75 85 78 89 85 89 93 90 72 78 76 77 89 97 75 78 76 72 83 77 98 97 96 93
78 84 82 77 82 75 68 67 76 86 93 98 97 96 88 66 99 97 98 80 68 73 69 78 81 82 66 79 80 85 78 68 74 74 76 80 96 82 86 90 78 92 96 99 95 96 94
82 83 77 75 82 74 67 66 85 90 97 87 96 99 96 85 99 98 90 74 66 78 79 77 73 66 71 76 84 84 81 71 68 78 89 80 97 97 84 71 63 62 72 73 88 86 86
84 81 74 78 80 76 63 72 86 95 98 95 98 96 99 86 100 99 79 73 71 81 88 82 86 76 72 80 92 88 82 64 71 78 84 75 99 97 92 90 82 89 76 66 68 77 88
82 82 75 79 78 77 63 71 88 98 99 100 98 100 99 96 93 83 80 75 80 72 72 71 77 76 82 87 69 77 83 63 71 71 66 66 94 96 88 90 98 100 99 84 84 91 74
80 81 74 76 79 74 65 69 92 99 89 100 98 98 91 99 96 76 69 70 74 89 73 69 85 81 91 99 95 91 77 67 68 63 72 86 99 99 93 82 96 98 99 99 98 79 77
81 80 76 78 75 69 65 70 91 95 92 97 98 96 89 85 81 75 74 85 89 83 82 85 91 78 83 95 79 79 74 73 77 71 79 93 98 100 97 96 100 100 96 83 93 74 65
83 80 80 77 78 66 67 70 87 99 97 93 90 94 83 81 85 77 78 80 76 70 75 76 82 88 92 81 74 72 65 74 71 80 93 98 100 100 89 97 100 99 91 88 76 81 64
85 83 76 77 76 69 68 72 83 99 98 99 93 98 93 94 78 70 72 69 86 80 79 80 77 88 70 67 67 73 75 84 86 80 73 98 100 100 98 98 98 93 79 71 71 67 70
82 81 77 74 76 74 71 73 80 95 98 100 99 99 96 90 73 74 78 81 75 77 87 82 73 70 67 73 92 94 96 84 86 88 88 82 99 100 100 98 84 89 85 78 78 77 63
85 82 79 76 78 80 74 76 80 93 94 100 96 100 99 90 84 60 73 85 94 94 89 88 87 86 77 89 95 100 95 80 90 88 77 86 73 98 91 98 88 60 91 81 72 96 69
76 77 77 77 76 81 77 80 78 91 91 98 98 100 100 92 81 72 82 86 80 85 86 88 87 90 89 98 100 100 97 76 94 96 93 92 91 94 88 88 84 61 58 76 89 66 62
85 77 81 80 81 81 79 80 77 88 90 98 93 99 100 93 83 69 71 88 88 86 89 90 92 98 99 99 99 98 94 91 87 78 89 86 92 85 77 90 76 55 58 65 55 57 62
85 84 78 82 82 82 79 80 76 86 91 91 95 86 99 96 86 84 71 66 66 68 83 90 88 93 92 98 92 93 92 97 89 89 81 91 75 83 84 76 58 57 56 56 59 64 65

GFSGBSN_925_rhum_015.txt.gz
RH
69 69 68 68 66 64 68 80 82 81 86 94 98 99 93 90 93 88 91 90 86 83 94 83 81 78 91 90 89 66 65 71 81 89 80 76 78 75 76 79 76 84 77 69 64 66 65
68 68 67 67 66 66 65 66 72 79 82 86 94 98 96 91 88 86 96 80 80 90 91 92 79 84 84 96 59 61 60 70 88 89 86 75 73 75 80 78 74 68 73 72 67 65 64
68 67 66 65 63 63 69 72 67 72 76 81 91 99 93 94 89 92 91 75 75 88 84 89 80 79 89 77 56 57 56 61 91 80 90 87 77 78 78 88 76 77 87 72 72 67 65
65 65 62 61 64 59 57 59 56 71 79 79 84 95 95 98 90 93 82 80 69 87 91 85 89 78 80 57 61 55 56 52 58 74 63 75 82 81 84 75 71 81 83 84 61 64 64
61 65 60 64 67 68 63 62 58 66 78 78 79 87 97 93 96 93 87 79 68 85 78 92 90 78 88 63 70 59 54 50 54 58 54 73 68 76 84 90 86 86 84 86 68 58 61
63 63 68 68 71 72 69 64 61 59 76 85 83 83 95 97 98 96 92 81 83 83 88 94 89 88 78 66 64 64 55 51 52 55 54 59 66 76 78 87 88 83 90 82 77 62 65
78 85 72 74 72 70 66 64 64 57 68 78 89 89 91 87 95 100 99 94 94 94 93 84 80 75 65 62 61 66 61 54 56 62 86 69 83 88 80 82 72 82 89 87 76 59 68
76 73 72 72 70 67 67 63 63 66 74 80 92 91 90 91 98 98 89 87 75 61 91 86 84 80 72 65 72 69 61 68 70 85 78 81 91 66 70 75 78 77 83 78 64 55 60
75 75 75 73 77 71 70 66 68 71 84 87 94 82 90 95 98 99 93 67 59 53 79 72 82 86 76 67 73 76 65 74 80 91 86 87 71 66 72 80 78 78 80 69 71 66 62
75 80 82 78 79 80 73 69 71 82 88 88 94 92 93 96 95 93 95 68 60 46 86 72 95 86 79 67 76 61 61 68 80 88 84 75 61 74 83 84 81 91 69 72 77 82 78
84 80 80 79 80 81 83 72 74 79 76 85 95 98 97 98 96 98 88 75 59 52 75 75 93 70 73 74 67 80 62 64 89 89 83 78 84 90 86 74 74 76 66 72 78 90 91
78 80 82 83 83 81 84 73 73 70 73 89 89 99 98 94 99 85 92 76 51 81 94 91 81 93 92 75 76 76 71 61 65 78 80 74 70 72 75 69 67 65 81 76 79 85 94
76 79 81 81 84 81 84 73 72 67 74 87 98 100 99 94 87 98 97 88 93 88 69 93 88 91 75 84 82 77 85 92 93 98 98 81 80 74 70 78 73 72 98 93 95 97 82
71 68 80 83 82 81 82 72 66 67 81 88 91 98 88 96 71 86 91 98 93 68 78 69 71 84 86 70 74 80 87 90 80 89 97 97 88 83 74 73 81 88 80 87 86 82 73
72 74 82 82 80 82 80 71 67 67 86 96 88 92 99 96 90 87 96 98 77 69 82 78 75 84 87 76 78 80 87 84 76 77 97 95 88 78 82 75 65 94 97 66 88 75 92
67 80 83 80 78 81 78 73 65 82 89 96 98 94 98 89 94 96 99 91 66 71 73 72 86 76 85 85 92 88 89 74 74 74 67 84 98 75 80 75 75 86 75 96 97 94 86
84 81 82 79 81 79 80 69 69 86 94 99 98 96 93 83 83 98 100 93 75 74 66 73 79 86 78 86 85 88 84 71 76 85 73 85 96 82 90 91 74 89 97 99 95 95 89
82 80 80 80 84 78 83 70 72 83 93 98 95 100 89 94 100 100 100 74 67 87 76 79 68 70 74 77 80 81 80 68 70 82 94 76 94 97 82 66 63 64 72 70 94 85 91
81 79 79 80 80 80 80 67 74 88 98 100 98 96 96 80 100 100 89 80 76 80 83 79 82 72 70 77 89 83 80 64 76 78 87 81 98 98 86 85 73 96 82 70 73 71 88
82 80 77 80 81 83 68 68 76 92 99 100 98 100 99 97 92 92 82 82 85 71 82 74 78 74 80 84 71 83 87 66 73 72 66 68 88 90 72 67 86 99 85 85 97 96 74
85 83 81 80 79 82 68 71 80 93 90 100 98 99 90 99 99 79 67 70 84 90 72 70 86 79 78 93 86 87 78 71 78 71 71 84 99 93 85 73 81 99 100 96 98 84 90
84 83 81 79 77 75 70 71 80 84 99 90 99 86 89 87 86 71 75 81 72 86 77 85 80 66 78 91 79 86 78 77 75 77 78 85 98 100 97 90 96 98 94 95 95 92 81
86 84 81 80 72 80 72 72 78 80 99 94 89 94 97 83 89 80 85 81 83 75 72 71 75 76 88 75 72 73 72 68 71 74 81 98 100 100 90 86 100 99 94 95 90 81 78
81 82 82 78 76 78 80 72 76 82 99 99 94 99 99 92 81 76 71 71 77 77 81 79 79 86 71 72 69 76 81 82 76 79 72 98 100 100 98 99 98 95 75 77 86 70 61
81 79 76 77 75 76 81 74 81 82 95 99 99 99 98 89 77 71 77 66 67 72 84 80 75 71 65 72 88 87 94 91 81 90 92 81 99 100 100 96 85 85 76 83 83 80 61
80 81 79 80 79 81 81 78 81 80 91 99 98 100 99 90 82 61 82 81 90 92 89 84 89 87 76 91 90 100 94 85 88 86 89 85 88 100 96 97 96 63 78 65 68 81 64
80 82 82 81 81 81 82 79 81 78 89 98 97 100 100 96 80 68 80 88 82 86 90 87 92 95 86 97 94 100 98 76 89 92 96 95 93 98 94 95 80 61 60 74 82 66 66
80 78 77 79 80 81 81 80 82 78 85 94 92 98 99 99 85 68 72 87 86 86 88 85 92 96 99 99 99 94 99 91 88 80 83 89 94 97 82 88 85 57 73 73 54 61 64
77 77 80 82 84 82 81 82 79 80 86 92 95 88 98 99 88 85 75 70 62 67 83 90 86 89 90 96 96 91 88 96 89 88 84 92 76 78 81 78 59 58 59 57 64 68 64

GFSGBSN_925_rhum_018.txt.gz
RH
70 72 67 68 67 64 66 70 72 72 73 75 81 82 98 97 97 94 90 95 94 92 79 86 79 76 84 79 66 65 64 69 83 85 74 61 58 53 57 51 54 55 42 45 42 48 45
69 68 65 64 66 67 63 59 59 59 63 74 76 84 93 99 96 90 94 87 95 95 77 92 78 79 68 76 63 67 62 73 76 80 75 68 66 55 56 54 55 47 54 51 49 46 44
65 64 69 64 68 72 71 66 66 64 59 67 82 80 81 96 98 94 89 86 96 93 77 89 78 82 73 46 56 56 57 65 86 78 74 75 64 57 58 62 56 53 59 43 41 40 42
64 67 65 67 67 68 73 73 69 64 61 58 74 81 81 89 98 99 94 96 91 84 88 92 84 73 58 59 66 54 56 57 78 73 73 76 70 58 52 56 51 56 57 57 40 48 46
68 82 83 70 72 70 70 69 68 64 62 61 72 80 86 88 92 96 100 99 85 82 87 94 85 66 66 66 66 59 51 53 62 56 62 70 57 55 61 58 59 56 53 56 49 39 43
78 67 77 74 73 83 75 72 69 62 67 71 72 76 91 92 92 85 100 100 88 94 91 98 86 78 67 60 62 63 58 52 52 53 57 58 53 55 53 62 62 52 67 52 52 44 49
75 75 78 76 82 76 72 77 77 73 66 72 78 85 94 96 92 93 93 100 94 85 78 62 65 61 61 61 63 61 55 49 48 55 66 61 73 74 54 51 49 54 57 56 47 44 49
78 78 76 80 81 73 77 80 79 72 70 80 86 89 95 88 91 93 96 93 60 54 79 68 68 63 67 61 64 61 57 52 55 62 60 71 81 54 49 52 58 59 61 56 46 42 50
80 78 76 82 82 80 82 83 79 77 74 84 89 82 94 92 92 91 96 93 70 45 58 75 73 70 63 60 60 65 53 54 58 69 67 64 57 52 58 63 66 62 62 55 54 46 46
69 74 79 80 83 84 84 83 83 75 74 83 78 86 93 97 90 79 91 77 76 52 82 72 82 71 65 57 65 54 50 52 65 66 65 64 50 60 63 66 59 66 47 54 57 62 69
74 80 79 76 84 84 83 82 84 71 70 73 84 81 79 99 82 80 74 86 91 71 84 67 85 67 62 59 60 71 56 56 66 67 67 66 66 68 72 65 56 63 52 54 55 62 66
77 80 79 81 83 84 82 83 81 71 68 71 88 91 97 94 86 83 94 87 90 96 78 84 88 92 87 68 66 69 67 53 52 61 65 56 56 57 55 55 55 55 63 64 63 71 90
66 72 80 82 84 81 82 83 73 69 68 83 87 96 99 100 77 83 90 93 98 95 63 92 83 85 71 74 75 68 78 82 78 96 91 66 63 57 55 62 61 64 75 73 85 93 64
77 88 83 85 81 77 83 77 70 70 81 90 98 92 95 93 93 99 98 99 95 60 64 65 69 68 72 62 72 72 77 89 65 68 76 74 76 64 63 62 57 68 63 67 66 50 42
86 87 83 83 77 82 81 78 72 72 79 91 99 86 90 98 95 86 96 98 77 54 61 68 76 79 85 64 65 73 76 72 63 65 84 88 75 60 60 55 56 76 91 55 75 60 73
85 83 83 79 75 82 79 79 72 75 81 94 95 95 92 98 84 89 100 99 61 62 57 56 72 60 74 73 72 71 73 56 57 51 50 67 86 58 64 66 64 67 54 90 92 78 68
84 82 78 77 83 82 81 69 71 76 87 95 94 95 99 100 81 97 100 94 76 56 54 60 66 69 61 68 66 68 64 60 56 62 54 64 68 71 74 82 63 82 93 98 76 74 67
86 85 82 78 83 83 83 67 75 82 89 93 96 100 97 89 98 99 100 71 64 68 67 64 53 56 61 64 71 66 65 56 52 64 76 62 71 87 70 45 46 43 54 64 94 82 83
86 83 81 82 80 81 79 69 76 84 90 98 97 99 97 99 96 100 87 72 71 75 70 66 68 58 54 63 72 60 62 54 58 62 62 63 88 88 72 66 56 66 55 53 73 82 91
81 85 82 79 78 73 80 72 81 86 94 99 98 100 97 96 83 79 72 74 80 68 70 65 70 61 62 63 61 71 68 60 56 54 59 57 64 83 66 61 60 99 72 71 97 95 70
84 84 85 80 77 79 80 74 81 86 90 92 95 98 84 99 83 64 58 65 72 76 67 63 71 68 65 72 71 73 66 62 64 62 62 64 100 88 75 66 70 85 81 86 99 83 85
74 79 82 82 76 77 79 76 79 84 88 89 100 98 81 85 66 57 59 64 66 75 66 75 63 66 68 72 64 81 71 68 62 63 65 72 91 98 97 87 82 98 90 93 95 94 86
76 80 79 81 76 75 82 80 82 82 92 94 89 95 98 80 68 62 62 62 59 64 66 63 65 66 72 64 65 63 62 63 59 64 70 84 100 100 94 68 84 96 93 90 93 94 84
77 79 81 78 79 80 81 81 82 81 91 98 95 98 97 85 69 60 60 60 67 54 76 70 68 70 67 62 62 67 72 67 68 75 62 92 100 100 98 98 93 88 75 79 82 76 77
77 78 78 80 81 82 82 82 82 80 90 95 100 99 98 82 63 63 62 60 64 68 66 70 68 63 66 75 76 72 81 86 76 70 75 74 94 100 99 93 64 78 77 91 80 68 53
77 76 74 75 79 80 82 80 85 80 87 88 99 99 99 84 70 52 62 58 63 63 69 72 78 77 70 78 85 85 77 71 71 78 74 76 86 97 99 95 90 60 52 60 59 64 52
79 76 76 80 81 82 81 82 85 79 88 89 94 99 99 97 68 53 61 68 66 71 87 88 88 95 83 89 88 84 77 68 72 73 85 87 94 93 86 86 64 48 56 67 64 66 56
80 79 77 76 74 78 82 79 77 79 83 89 84 96 99 99 77 65 62 71 75 71 75 76 85 86 94 94 90 90 93 77 74 62 68 68 73 76 75 76 79 49 57 58 53 53 55
81 81 79 77 76 75 74 73 75 80 80 87 90 88 90 100 88 89 77 69 61 63 69 78 75 81 83 90 92 93 89 82 72 67 66 73 55 55 56 55 46 49 50 47 54 57 56

GFSGBSN_925_rhum_021.txt.gz
RH
68 68 69 68 66 68 74 70 67 67 66 62 61 74 82 80 92 100 98 92 97 96 96 96 76 72 73 77 68 65 64 68 79 79 58 48 45 41 45 36 35 42 33 25 29 32 34
66 67 69 70 72 71 67 71 72 72 68 64 62 63 76 78 84 96 99 94 99 96 97 94 75 73 70 85 58 59 53 61 59 75 63 52 48 39 42 41 44 36 38 37 35 36 35
71 69 81 77 74 68 71 72 70 70 69 66 64 63 73 82 85 93 99 99 96 96 97 90 78 75 60 51 46 50 55 55 65 63 65 62 58 56 49 52 44 47 54 42 39 38 40
78 80 74 72 77 73 84 83 79 74 71 66 67 70 74 78 88 92 96 98 98 94 95 93 80 65 58 52 53 52 48 56 62 69 69 68 64 59 48 46 46 50 44 51 31 34 30
77 70 73 76 76 82 86 84 74 81 76 75 66 70 72 75 88 93 95 95 99 93 93 95 80 62 57 62 52 46 44 51 59 55 59 69 68 62 58 59 50 45 46 41 35 31 35
75 76 76 83 80 80 84 83 80 81 83 82 75 75 87 89 92 94 94 83 91 95 94 94 76 74 54 54 53 49 44 50 52 48 56 54 50 53 53 51 56 44 50 42 38 31 39
82 80 82 83 78 80 87 89 80 81 81 83 76 80 79 72 95 94 93 91 100 100 90 65 69 54 54 53 55 51 46 48 46 50 58 53 65 65 44 40 38 41 44 41 34 30 37
74 67 70 79 76 85 85 79 83 81 84 84 79 85 88 82 94 94 92 90 90 84 89 53 53 53 53 50 59 50 44 52 56 67 54 70 79 48 39 40 45 47 50 46 35 31 37
76 75 81 77 82 83 83 84 84 82 85 78 81 85 91 90 91 86 82 83 89 96 80 69 56 54 60 54 52 59 46 44 56 60 59 68 52 43 47 51 57 52 54 48 44 36 36
78 76 71 73 80 83 84 82 82 85 85 82 72 79 74 92 87 77 67 78 88 95 99 87 75 58 60 52 61 46 44 46 55 60 57 60 44 48 51 56 50 58 38 42 46 52 55
79 73 86 85 83 85 83 80 82 84 77 71 75 85 85 90 95 82 73 76 94 94 96 69 71 51 52 53 56 60 44 52 58 53 56 60 56 58 60 52 46 54 47 49 50 57 63
72 88 87 86 83 82 81 84 78 75 69 80 85 91 91 97 92 77 75 99 90 99 96 84 84 83 73 54 58 59 58 49 43 50 52 47 46 48 48 46 47 49 52 55 56 61 84
73 89 85 82 80 79 82 79 77 73 76 84 90 95 98 98 73 71 87 89 97 96 60 93 79 74 71 68 67 70 75 77 70 91 82 58 56 49 45 55 51 55 66 70 78 90 62
75 84 83 80 80 81 81 80 73 73 82 87 93 91 94 80 86 86 92 96 96 76 63 57 74 66 75 64 63 61 68 77 56 53 62 73 78 56 52 54 58 67 62 59 55 39 33
82 86 85 84 82 80 81 80 68 76 84 91 88 83 89 88 97 87 91 94 90 52 58 68 70 79 80 64 66 59 64 67 52 52 73 70 68 47 49 47 47 63 85 52 68 50 60
83 89 86 84 83 80 81 76 71 77 83 92 96 92 89 97 88 86 96 99 67 48 49 53 66 62 75 64 68 59 63 49 52 44 41 54 76 49 50 52 51 56 52 87 90 80 56
83 88 84 79 83 80 82 72 70 80 86 95 100 96 98 82 85 84 99 99 62 46 46 49 54 57 56 62 55 58 62 51 44 47 45 51 56 66 63 73 56 70 78 82 56 60 69
77 89 87 82 81 76 83 74 74 82 92 98 95 100 99 82 99 95 100 93 52 53 58 50 44 44 51 53 59 58 52 48 44 45 56 50 62 79 64 40 38 40 54 54 86 68 73
84 78 88 85 79 84 80 77 80 86 99 99 98 98 96 99 99 86 92 78 57 66 60 54 55 46 43 51 58 49 49 47 44 51 53 54 71 81 79 54 42 51 47 46 62 81 94
72 79 83 83 80 75 80 79 85 88 98 94 96 100 95 93 74 61 95 72 74 62 58 52 54 45 49 51 49 54 57 56 48 48 63 50 58 81 66 57 55 99 69 60 81 97 73
75 77 79 80 82 76 83 81 86 87 87 84 96 96 85 95 79 62 76 66 69 62 56 52 55 51 49 57 55 58 54 56 54 54 53 54 97 81 66 60 62 75 70 71 98 94 97
73 77 81 76 80 79 82 84 85 84 84 88 98 99 90 61 52 49 55 72 69 61 53 59 55 53 53 53 52 59 54 54 56 55 59 64 96 92 91 69 69 86 71 82 96 95 95
78 76 75 75 83 83 83 83 86 84 91 91 91 92 99 63 54 48 50 54 58 52 61 54 52 54 59 55 53 55 53 55 55 61 67 79 98 95 90 63 70 80 86 94 93 82 90
75 75 72 73 77 79 82 82 87 82 90 97 96 97 96 77 52 46 50 49 50 51 63 59 58 57 73 55 56 55 58 66 63 70 59 82 98 100 99 94 89 76 55 77 87 67 53
78 76 74 79 81 82 82 85 87 82 92 94 100 99 97 70 52 51 49 50 52 50 58 62 63 57 52 60 65 59 68 82 70 66 74 68 97 100 100 81 55 59 56 67 84 73 51
83 79 76 76 74 77 84 84 81 81 86 88 96 94 96 100 53 43 49 49 59 57 62 59 65 64 60 66 68 74 63 62 66 80 68 76 82 98 100 96 85 54 42 51 55 82 50
84 80 79 78 77 76 76 76 77 81 84 88 90 93 98 97 58 46 50 54 47 50 68 75 76 81 71 78 87 71 63 57 62 60 79 77 88 97 90 93 56 38 45 56 70 61 52
84 83 81 80 80 77 76 76 76 79 80 83 89 93 95 97 86 56 41 54 60 58 65 74 79 79 92 83 82 82 98 62 65 47 55 59 69 74 71 81 79 41 41 55 51 48 48
82 83 83 83 82 81 78 76 76 77 81 82 86 80 90 99 95 83 68 67 58 50 57 66 72 68 72 86 92 89 89 68 62 69 50 62 46 53 50 48 37 40 46 43 47 51 47

GFSGBSN_925_rhum_024.txt.gz
RH
70 71 72 78 74 74 69 72 72 73 72 71 68 66 65 63 68 79 89 99 100 99 96 96 85 80 79 81 78 64 63 72 79 79 66 47 47 46 50 37 33 39 35 29 28 30 32
74 76 82 80 74 73 73 79 82 78 76 73 71 69 68 70 73 82 88 96 100 99 96 97 80 80 81 84 58 54 50 57 66 78 72 52 44 39 44 40 39 35 37 36 33 32 35
82 74 76 76 78 77 77 88 90 86 83 77 75 74 70 72 74 75 85 92 99 100 94 96 86 82 58 62 44 53 54 50 56 68 64 54 53 53 51 52 41 44 57 48 44 40 41
86 79 77 84 83 82 79 80 90 93 84 79 81 76 74 73 74 77 87 92 97 98 99 94 91 74 67 48 47 48 46 51 56 62 65 64 60 59 58 47 46 56 56 69 36 37 37
74 86 72 70 67 75 84 88 89 85 74 78 84 85 77 76 85 86 94 94 96 84 100 94 91 74 63 54 50 48 42 47 55 59 72 66 59 62 61 62 61 55 63 55 43 35 34
90 72 71 80 78 78 84 85 82 84 81 83 84 86 80 82 76 80 79 91 72 81 100 95 76 75 55 58 47 44 41 45 52 52 67 76 73 70 70 70 76 57 59 50 47 37 37
74 76 79 76 73 75 80 82 83 85 83 83 86 85 83 86 88 87 88 86 93 100 98 84 76 53 48 51 52 46 43 48 47 57 69 63 72 76 62 58 53 45 47 51 40 30 37
78 77 78 78 78 84 82 84 84 82 80 83 84 83 85 77 86 91 92 84 84 99 98 86 57 49 50 50 59 49 42 60 62 77 56 65 81 52 43 40 45 46 53 55 43 34 36
77 69 87 88 87 83 82 83 81 83 82 84 85 81 80 89 93 86 84 74 81 84 98 86 55 57 55 49 57 57 45 50 63 70 70 65 52 46 49 50 56 56 58 56 52 42 40
77 75 88 86 80 82 80 82 84 81 81 81 73 82 83 87 84 81 75 64 80 91 100 96 77 59 57 51 60 45 42 47 58 72 61 64 46 46 54 57 51 64 43 47 50 58 68
80 77 85 84 76 80 79 82 79 72 73 75 84 89 92 100 90 83 69 84 75 97 99 91 77 48 54 56 59 59 45 48 61 57 61 68 57 59 58 52 46 54 49 51 54 63 70
70 81 84 86 83 82 84 82 80 74 72 82 87 88 92 91 97 86 78 91 88 99 97 99 81 75 74 58 59 56 55 47 44 52 53 53 46 47 52 46 47 50 52 55 59 64 94
74 85 88 87 86 80 77 81 80 67 76 85 90 78 97 92 84 77 81 88 98 97 86 98 89 70 64 65 70 68 74 79 78 92 93 61 60 48 46 55 52 57 61 93 96 98 89
72 86 90 88 82 80 76 82 75 68 77 86 92 86 86 87 87 79 83 93 96 86 85 57 73 70 68 60 69 69 79 81 62 58 76 87 85 62 51 59 64 65 64 89 78 80 67
72 83 92 87 82 80 75 81 71 71 84 88 97 87 87 87 85 79 92 97 98 70 57 74 72 88 77 61 67 73 78 73 55 54 70 80 69 48 49 49 50 66 82 57 81 65 85
77 78 89 86 81 80 82 81 72 77 86 93 99 90 95 89 78 77 98 94 99 52 57 55 72 58 75 73 69 66 69 50 52 47 45 55 73 50 53 48 48 55 51 91 91 95 78
82 79 83 86 84 85 77 80 76 84 94 98 94 93 87 89 75 94 99 100 83 48 46 53 58 59 56 64 62 62 60 48 45 47 46 49 58 69 67 71 70 71 74 72 69 82 92
82 74 80 81 86 77 80 81 82 89 98 95 93 96 87 82 94 95 99 98 58 60 50 44 41 45 50 51 59 52 53 50 41 45 55 49 62 90 77 51 51 52 64 62 83 78 76
80 70 81 82 85 78 81 82 84 88 100 99 99 97 91 92 92 93 97 84 58 65 54 50 49 43 43 53 65 52 50 48 45 49 52 53 81 85 88 60 49 56 51 53 59 67 83
82 77 80 76 82 80 82 83 84 86 98 88 94 98 92 97 83 83 99 81 89 62 56 47 47 43 46 53 45 54 59 52 48 50 58 51 62 85 91 73 72 98 79 62 68 97 80
79 77 73 76 83 82 84 84 84 78 90 85 97 95 84 89 78 76 85 68 66 60 54 50 51 47 48 57 55 53 51 61 54 61 52 56 91 83 75 65 65 74 72 72 91 95 98
79 77 73 73 76 77 82 85 86 82 84 87 95 98 90 62 59 70 70 84 63 60 59 54 56 50 50 52 58 54 50 54 61 57 61 60 96 96 89 76 76 85 72 72 76 95 96
78 78 75 78 80 82 84 89 84 85 95 93 91 90 98 62 52 56 55 62 60 55 60 54 51 52 58 72 62 58 53 56 56 61 65 85 98 100 94 73 81 90 76 77 87 78 86
80 80 77 76 76 79 86 86 82 83 92 99 95 95 94 71 56 49 46 47 55 53 65 60 56 62 72 54 53 58 59 65 65 62 59 89 99 100 98 97 92 71 68 68 78 74 71
81 83 79 78 78 77 77 79 79 82 86 92 98 99 97 92 54 45 46 47 51 62 61 64 62 61 55 60 73 67 74 76 70 66 71 69 98 100 100 94 66 53 60 61 77 76 55
84 85 80 80 81 80 78 78 79 82 81 82 95 91 97 100 67 50 48 51 64 62 67 65 66 66 61 71 71 70 65 77 78 84 73 80 85 98 99 97 90 63 51 50 58 92 58
94 76 83 82 82 82 81 78 78 79 81 80 90 92 99 99 70 72 53 58 48 51 80 72 76 80 76 77 88 70 71 58 71 73 84 94 97 96 91 96 76 43 47 58 83 69 61
96 80 82 81 84 83 82 80 77 77 80 82 81 94 90 98 89 71 64 52 57 62 74 79 84 84 91 93 84 80 88 75 73 54 66 74 81 88 81 92 90 43 49 61 62 57 54
96 83 78 80 81 84 84 80 78 77 77 80 75 80 80 98 90 89 80 74 72 68 69 73 77 68 79 91 94 88 87 86 73 91 51 70 55 62 66 71 47 44 51 47 52 60 58

GFSGBSN_925_rhum_027.txt.gz
RH
82 84 81 75 74 74 80 80 85 88 89 86 82 75 76 70 72 66 76 79 93 99 98 100 91 95 85 87 81 64 66 68 77 74 74 74 67 57 59 50 46 50 45 39 36 36 34
87 89 82 82 77 85 75 78 88 93 92 93 79 76 79 76 68 71 69 71 81 96 99 100 93 92 94 95 54 56 59 74 77 74 82 74 57 49 51 52 47 38 43 45 41 45 42
81 78 78 71 74 82 74 84 91 88 87 83 75 79 80 82 80 72 76 74 82 92 97 100 86 94 75 72 53 54 51 54 62 72 77 72 58 57 55 54 48 50 59 57 53 49 49
85 93 81 77 78 74 79 82 85 87 86 86 85 88 84 83 79 79 82 84 90 92 96 96 93 90 84 50 48 49 52 54 56 64 65 63 56 60 58 50 49 58 58 80 55 46 47
89 72 77 73 79 78 82 81 84 85 85 85 86 86 85 85 81 83 86 87 89 90 91 93 96 87 80 53 52 47 44 51 55 63 66 69 67 70 58 67 67 62 79 72 60 40 43
70 82 74 84 90 86 86 83 83 84 81 81 84 85 87 82 86 86 86 88 67 80 64 97 83 84 67 62 50 48 41 44 58 70 88 84 86 85 77 71 92 76 75 60 58 42 43
84 78 78 89 85 77 77 80 79 81 83 83 83 86 89 88 87 90 89 86 85 96 98 80 82 65 57 51 45 50 43 51 53 73 88 90 91 93 86 78 62 62 60 59 50 40 40
82 79 81 85 82 75 75 77 78 82 79 78 83 83 84 91 90 94 92 94 86 97 98 81 78 63 55 50 61 51 43 69 68 89 65 76 87 67 58 60 63 59 61 63 52 42 44
84 74 84 82 84 81 78 84 81 81 73 74 76 83 90 87 89 83 88 83 84 75 98 86 84 71 61 54 65 62 52 61 71 82 71 80 58 54 58 57 57 60 64 62 61 53 47
78 75 88 86 87 82 80 78 79 79 73 74 81 87 91 96 100 82 82 76 90 83 100 98 94 68 59 58 70 47 48 54 63 74 66 68 49 50 60 64 57 69 52 54 57 65 76
78 78 90 87 88 81 76 75 80 84 68 76 87 89 93 97 97 87 79 92 86 84 97 97 85 54 62 69 63 58 45 49 66 70 74 87 64 60 58 60 51 62 53 56 60 68 72
68 75 89 90 88 83 76 76 78 73 68 75 86 92 97 96 93 89 84 90 82 98 97 100 84 79 82 65 65 62 58 49 47 61 64 62 47 52 56 47 51 50 56 57 61 74 98
73 78 84 89 86 81 78 80 78 72 73 82 92 96 92 94 86 76 88 98 96 97 98 100 95 78 75 78 73 69 73 77 81 95 98 72 67 50 48 63 54 59 69 96 89 90 91
73 77 78 87 82 81 81 74 78 74 82 90 95 83 83 81 73 82 88 95 96 99 100 81 75 71 79 69 80 71 81 82 70 66 86 89 85 66 55 63 73 75 65 91 93 96 83
78 72 78 85 81 82 72 78 76 82 86 89 95 76 86 89 90 80 94 95 99 98 86 94 72 77 81 68 81 74 78 75 68 62 75 90 78 55 57 52 59 70 85 62 80 75 94
78 81 82 81 81 79 77 79 76 86 94 97 89 80 91 88 79 75 99 98 100 84 69 62 92 69 85 74 81 76 79 63 58 54 52 61 78 57 57 52 53 59 59 87 95 99 93
82 74 81 79 83 80 80 81 84 92 93 76 80 93 79 86 82 92 100 99 97 56 52 60 66 67 63 83 73 72 72 56 54 56 52 51 60 78 63 71 75 72 74 72 74 92 98
83 75 75 74 84 85 82 83 84 95 90 81 92 95 75 80 95 96 100 100 92 70 57 50 48 57 56 65 70 61 71 55 47 48 63 50 71 91 82 62 58 62 70 72 88 78 90
79 74 74 76 84 80 82 87 84 97 96 94 94 98 76 84 98 100 97 97 86 70 60 52 52 47 49 58 60 52 59 52 47 49 51 58 80 85 79 70 60 70 66 61 62 74 84
81 78 74 73 76 77 82 91 85 97 82 83 94 97 93 97 93 97 98 93 82 62 60 52 49 45 48 54 53 58 66 54 52 56 57 52 74 80 86 78 81 88 76 66 74 97 81
81 80 76 77 79 85 88 89 85 86 79 82 97 94 93 95 86 83 94 85 68 68 56 53 55 51 54 62 50 51 64 63 57 59 55 63 82 87 79 75 76 79 76 76 84 82 98
86 82 78 76 75 77 85 85 84 85 78 86 98 98 84 97 68 79 75 80 75 70 69 61 64 61 67 74 67 59 62 68 70 63 62 66 97 94 92 80 82 90 78 76 76 74 77
88 81 79 79 78 77 79 82 84 88 84 91 87 91 98 85 70 72 74 70 62 64 62 62 62 67 80 78 70 66 60 60 56 72 74 79 95 100 95 79 89 96 80 71 78 79 84
92 79 82 79 81 80 79 80 82 86 86 99 97 99 98 91 72 59 53 52 57 66 69 64 66 74 72 62 58 63 66 68 62 65 70 94 99 100 96 92 86 67 67 67 77 72 68
88 86 80 80 83 82 80 79 79 82 85 86 96 97 98 90 90 54 49 56 68 67 69 73 71 70 64 64 79 84 84 80 79 74 73 76 98 100 100 96 70 58 69 72 80 76 59
87 96 73 82 81 84 82 81 79 79 83 78 99 87 97 100 88 78 69 61 72 73 72 78 71 72 66 82 79 74 72 73 91 87 75 80 90 100 99 98 92 59 51 51 66 88 59
88 97 85 82 85 89 83 82 81 79 80 80 88 89 97 100 86 78 79 71 54 66 86 80 79 82 77 87 92 79 76 63 85 93 92 98 100 96 97 97 80 58 50 63 79 67 61
90 96 87 78 81 87 84 82 81 78 78 79 77 93 82 98 89 75 71 88 83 74 84 82 80 84 90 91 94 86 87 85 80 72 86 87 93 95 94 98 91 46 54 63 56 58 57
86 96 88 81 79 84 81 73 75 77 78 76 78 72 86 96 94 85 78 71 82 71 78 80 80 78 84 91 91 87 85 89 85 94 65 80 66 71 75 74 51 46 52 52 58 63 61

GFSGBSN_925_rhum_033.txt.gz
RH
74 94 78 81 78 77 92 92 90 86 85 82 81 87 85 82 80 88 87 87 84 74 72 73 80 96 100 93 76 55 74 81 84 80 79 81 77 70 72 67 59 60 54 49 44 45 46
85 75 80 78 76 90 88 83 80 76 74 76 81 88 88 84 87 90 87 86 82 77 76 73 82 99 100 84 50 39 75 82 83 82 80 73 74 61 63 58 66 52 52 49 46 45 46
88 76 82 80 82 89 82 82 73 79 73 72 78 82 85 82 82 88 87 83 80 79 79 78 90 100 93 69 51 55 62 78 78 80 84 69 67 58 59 60 50 50 55 55 55 51 52
84 83 73 79 84 89 80 82 81 82 84 75 81 84 86 85 85 87 87 88 83 86 86 85 92 99 92 65 54 58 73 75 74 72 70 70 70 64 61 53 56 63 61 72 51 52 48
82 84 83 69 90 89 81 83 84 78 81 77 79 82 81 85 87 93 91 90 87 86 84 86 87 95 85 68 60 49 58 66 76 78 72 69 68 70 61 71 74 67 84 75 61 49 48
86 85 78 74 91 90 84 83 83 82 83 84 81 72 79 88 92 93 95 93 71 89 82 87 84 98 80 65 53 49 49 59 76 91 87 85 87 87 83 80 80 83 74 71 66 47 55
85 79 82 77 90 89 88 84 82 74 81 92 74 73 84 90 96 98 82 74 78 84 90 81 82 74 68 61 49 58 46 57 84 89 96 85 96 93 78 75 62 67 69 68 58 47 49
86 80 81 80 89 85 84 84 85 81 80 82 70 81 87 93 94 96 96 93 83 80 84 66 82 78 67 55 63 69 46 76 84 94 96 98 93 78 72 70 70 70 73 74 60 50 49
86 72 78 81 87 81 86 85 81 72 82 77 75 79 85 92 95 89 84 73 71 79 88 68 80 86 66 54 67 68 53 69 83 89 84 93 85 80 78 84 84 67 69 66 66 58 52
76 78 78 78 89 81 87 71 74 83 73 78 85 89 90 96 97 91 87 75 81 81 95 98 93 83 64 62 72 52 50 63 78 86 81 84 72 81 89 90 66 75 55 58 61 65 79
77 80 78 78 80 78 72 74 76 78 87 96 97 97 98 82 97 92 70 81 91 82 96 98 94 76 63 66 68 61 55 54 75 78 76 88 70 89 86 68 56 66 54 58 60 73 70
77 82 74 85 72 78 79 83 85 93 98 98 94 87 78 79 96 87 79 91 88 96 96 99 96 93 77 71 71 69 69 52 62 69 64 68 50 54 56 59 53 57 58 67 80 76 87
79 81 74 70 80 82 78 86 92 95 95 79 82 80 73 78 94 89 86 94 94 93 98 100 98 77 75 80 78 74 74 76 89 98 100 78 70 52 56 67 57 58 68 83 71 95 78
84 78 76 75 79 77 77 93 90 96 87 79 85 85 87 81 84 82 83 93 93 98 100 90 76 74 88 77 78 79 76 82 68 82 97 95 93 63 53 63 72 64 66 79 55 87 86
82 80 78 75 74 78 83 86 94 96 85 71 74 79 85 90 87 81 95 96 98 100 94 84 71 88 90 88 88 93 78 79 67 61 78 86 76 60 55 57 58 73 81 61 83 79 96
83 81 78 78 82 84 86 83 93 95 98 68 70 78 76 77 80 82 95 98 99 87 62 72 92 82 95 96 87 96 78 60 61 58 54 67 89 64 61 53 59 61 65 83 93 92 82
83 81 80 78 79 80 81 85 95 98 98 75 72 85 62 73 80 94 99 99 94 68 73 66 83 72 76 80 80 71 78 61 52 59 52 57 72 78 66 74 80 74 79 82 81 82 87
87 82 81 81 82 82 84 87 92 99 88 71 87 86 62 74 95 93 100 100 86 87 72 58 57 64 70 73 70 63 78 64 55 56 62 54 80 96 78 65 61 65 74 76 86 79 96
90 84 81 82 83 84 85 87 91 97 96 87 92 95 69 78 97 99 95 94 88 87 65 57 58 51 61 68 71 63 67 52 58 56 62 57 78 93 84 70 68 73 73 69 68 78 91
89 88 83 82 83 83 85 87 89 94 79 78 91 90 91 94 92 89 94 90 78 70 57 53 58 55 56 59 55 74 66 66 60 54 55 57 75 76 85 71 79 88 79 75 79 100 88
86 90 86 82 84 84 84 85 88 86 77 74 95 94 94 98 87 86 87 81 79 83 62 56 55 55 55 67 68 75 66 63 62 61 62 62 86 88 79 73 75 78 76 80 89 76 90
87 94 85 84 83 85 85 85 85 84 78 78 92 99 88 94 91 80 76 76 78 75 71 70 54 54 59 75 68 75 69 68 62 62 66 64 92 95 90 78 87 94 82 82 80 76 77
90 95 91 84 84 85 85 84 84 85 77 92 91 89 97 85 90 76 72 67 66 63 66 69 68 76 81 80 71 59 54 59 58 70 75 71 93 90 92 82 90 94 87 83 81 77 70
92 92 98 80 82 85 87 84 83 84 81 98 94 98 96 92 92 80 80 63 66 70 70 73 70 70 74 62 64 64 69 64 64 65 65 83 94 99 94 89 93 62 61 65 72 71 74
89 88 96 88 82 78 81 84 84 82 82 82 92 96 97 91 89 84 84 72 68 70 74 76 78 73 72 66 84 82 79 72 72 65 75 71 91 93 97 85 75 60 72 76 80 70 66
91 90 96 97 84 77 78 78 82 78 81 69 94 88 97 98 92 92 98 74 78 79 78 78 72 75 70 84 81 90 97 81 97 95 77 82 84 98 100 98 92 55 55 61 64 83 59
90 89 93 99 88 81 80 72 78 74 74 73 76 80 96 97 83 89 98 90 71 78 82 85 79 73 72 90 90 86 80 74 94 96 100 100 100 96 99 98 83 60 53 66 75 66 56
93 97 91 96 99 82 77 82 71 80 72 72 72 79 84 97 85 82 82 90 91 83 86 77 82 83 92 88 90 91 89 82 85 77 92 95 98 97 88 99 94 55 71 69 62 63 60
96 96 89 82 95 94 82 80 80 82 78 87 78 75 71 94 90 82 78 75 80 83 94 87 78 84 87 92 94 91 93 89 86 90 78 88 82 91 85 80 55 48 53 53 64 70 65

GFSGBSN_925_rhum_036.txt.gz
RH
86 86 74 80 86 78 90 85 79 82 77 77 74 72 78 83 86 90 88 86 88 86 81 78 74 82 94 96 77 58 68 85 74 86 84 80 75 75 71 69 60 63 56 54 49 47 47
88 81 77 83 89 80 87 87 84 84 83 81 78 76 81 82 83 85 86 85 84 86 80 79 73 83 98 98 62 59 43 82 75 92 80 78 72 60 64 66 61 58 55 52 47 47 45
76 81 86 84 70 88 91 90 88 84 84 78 80 78 83 82 80 83 87 85 85 81 79 81 76 84 96 79 67 61 57 85 78 89 86 76 64 62 59 62 56 52 55 56 56 52 52
81 85 82 78 78 90 89 89 90 82 84 83 80 84 74 81 86 89 90 90 89 85 82 84 83 96 93 67 59 60 73 83 90 83 78 72 67 64 60 54 60 66 60 75 54 58 51
84 82 85 78 79 90 88 86 86 86 81 80 88 88 77 77 87 91 88 82 86 89 90 85 84 92 88 73 75 60 56 83 80 69 68 68 69 71 63 73 79 70 87 80 62 54 50
85 86 83 80 83 89 86 84 86 86 82 80 90 80 75 82 91 89 93 76 84 88 86 85 84 92 83 76 80 56 57 81 76 77 85 81 81 89 86 76 88 80 76 72 71 49 58
84 79 83 81 82 88 82 84 83 72 73 79 86 78 76 87 90 90 98 77 76 81 88 79 79 75 75 72 77 60 57 79 93 84 90 88 89 86 83 74 64 70 72 70 62 50 50
80 76 82 82 84 82 78 72 70 80 86 79 77 78 80 84 89 90 88 89 77 75 80 68 61 72 70 66 83 74 55 82 88 96 91 87 89 77 72 69 71 71 77 78 64 53 51
82 81 80 77 85 75 73 77 83 86 92 94 93 96 95 91 93 98 77 75 68 79 86 80 80 84 70 68 71 78 68 80 85 93 91 88 82 73 73 74 84 69 73 70 68 58 54
81 77 83 79 72 89 79 82 88 93 96 95 98 92 97 93 85 92 86 75 76 83 91 98 88 91 76 75 74 59 63 75 82 91 86 92 86 83 87 84 74 88 57 59 60 65 80
80 85 78 71 88 83 76 86 90 94 96 95 80 80 77 70 86 90 90 87 86 86 93 98 89 87 76 66 69 70 64 64 79 82 81 94 94 92 94 87 78 85 55 59 63 73 67
82 82 78 74 75 75 84 88 91 94 95 95 97 81 76 78 81 79 74 82 82 91 98 99 95 91 76 73 77 71 70 64 62 74 70 75 74 79 82 76 68 59 60 68 77 76 86
83 81 77 76 83 84 87 85 94 94 95 83 92 81 78 88 87 89 81 86 94 94 98 100 97 75 75 81 78 74 86 82 91 98 100 90 71 54 55 66 56 58 69 88 74 80 79
84 82 78 78 74 79 81 89 96 96 95 74 76 81 91 84 88 86 87 87 90 98 100 92 73 79 86 73 82 81 85 87 67 86 95 94 96 63 55 61 70 65 67 83 64 73 78
86 83 81 80 79 82 85 90 98 98 79 70 59 68 77 76 85 92 95 98 98 100 94 87 74 89 95 86 90 91 80 77 68 63 80 85 82 60 57 60 57 73 82 60 85 82 90
88 84 82 82 82 83 86 90 94 99 92 63 62 73 74 73 80 86 95 99 99 80 65 69 90 81 95 86 90 90 78 64 66 58 55 67 92 68 61 56 62 61 65 82 90 70 75
87 87 83 84 85 85 87 90 95 99 100 65 66 81 59 74 76 91 99 100 90 80 71 66 78 79 85 83 83 95 77 63 54 61 56 62 75 82 62 71 79 75 80 82 78 82 82
89 88 83 84 87 86 87 89 93 99 94 69 84 88 58 68 95 98 100 99 84 84 73 56 60 64 71 72 71 69 80 62 53 56 62 58 80 95 75 67 62 66 75 73 85 83 91
88 88 86 85 87 88 87 88 90 97 99 85 91 92 57 67 97 99 88 92 88 85 69 55 56 54 62 66 69 62 65 54 57 52 60 59 77 92 82 70 67 74 74 69 71 79 96
90 88 88 88 87 88 87 88 89 94 84 82 91 92 92 93 92 88 92 87 77 73 58 56 59 53 58 61 63 69 66 66 62 54 57 57 72 76 82 68 78 91 82 75 78 99 88
91 87 90 88 87 88 87 87 88 86 79 75 94 96 92 98 89 90 87 81 79 82 69 57 56 54 59 69 72 75 69 66 63 64 64 62 87 85 77 72 77 78 77 85 86 80 88
91 90 96 88 86 87 89 86 86 85 75 79 95 96 88 94 91 82 75 75 80 76 73 65 61 56 62 65 68 81 72 66 63 63 66 66 98 93 91 79 86 93 85 82 84 78 78
92 92 92 94 87 84 88 86 84 85 79 92 94 85 87 84 88 78 80 72 70 67 68 75 67 70 77 82 73 57 54 62 60 71 75 71 94 93 94 84 89 92 87 83 79 77 69
92 91 88 96 87 81 81 84 85 83 79 94 96 99 94 90 90 82 86 77 74 76 70 77 72 69 72 65 66 64 67 67 64 68 65 79 92 95 91 86 96 59 67 65 68 68 68
92 90 90 95 95 86 80 80 82 82 77 85 90 98 98 90 88 88 85 86 71 70 77 78 79 77 76 68 82 78 78 70 68 64 72 68 89 89 92 84 74 61 75 74 74 65 67
84 80 87 92 96 87 82 82 79 77 76 71 76 82 96 99 90 90 96 90 79 80 78 79 74 77 71 85 83 90 97 83 98 96 78 82 79 90 99 97 96 59 59 62 60 74 56
88 83 88 92 98 95 86 77 77 73 80 72 73 74 92 96 74 87 93 95 77 80 82 83 80 75 71 89 89 88 87 76 89 92 98 100 100 98 95 94 85 60 50 63 76 67 56
94 91 92 95 94 98 82 84 75 72 84 83 76 76 69 97 91 80 83 92 86 86 86 78 83 82 90 87 88 89 86 86 88 81 80 88 92 97 88 99 94 60 73 72 61 61 62
87 84 88 86 77 81 98 91 88 83 84 82 77 73 75 88 80 71 67 62 77 78 95 91 81 83 86 90 93 91 93 93 88 92 81 95 83 90 80 80 56 58 51 52 65 69 64

GFSGBSN_925_rhum_039.txt.gz
RH
84 72 75 80 82 77 80 91 91 89 84 85 83 78 83 82 79 82 83 84 83 88 87 86 84 75 80 90 84 66 68 70 78 79 84 74 83 73 76 67 62 62 60 52 48 48 47
75 81 84 82 84 74 89 91 90 88 87 86 82 81 81 81 82 78 81 86 83 85 87 85 80 76 84 99 64 66 67 60 76 84 84 72 74 62 64 65 61 58 54 51 48 47 46
78 86 85 85 80 78 90 89 88 87 88 87 85 87 86 88 79 85 86 86 84 84 87 84 80 71 83 80 69 66 67 70 74 85 82 75 60 59 58 66 56 58 63 56 54 52 50
76 85 83 82 78 82 88 85 89 89 88 86 87 88 92 83 74 86 89 81 86 87 90 87 89 83 84 67 77 75 65 80 76 86 75 72 59 61 58 56 61 65 59 72 54 55 50
86 81 81 81 76 85 88 81 83 77 72 73 75 90 93 77 77 91 78 86 94 90 89 90 86 84 87 74 74 66 68 91 84 89 82 78 64 71 63 72 78 72 81 76 61 57 54
86 79 78 75 78 90 76 78 73 83 85 92 89 84 81 75 86 86 77 80 91 89 86 86 82 84 76 80 76 66 56 79 80 92 79 74 82 88 84 79 84 85 80 74 60 51 59
78 76 82 82 80 75 86 83 80 86 94 96 97 83 82 79 83 87 86 74 75 82 88 81 74 76 80 86 74 63 73 80 80 76 94 84 90 86 84 65 62 66 72 71 63 52 53
80 77 81 77 77 90 77 79 90 89 94 89 90 96 95 86 90 93 86 80 70 72 77 66 66 61 64 72 78 73 73 89 88 91 86 93 89 70 73 69 66 68 75 76 65 54 52
83 80 77 73 80 77 78 87 89 94 92 95 95 91 78 88 92 95 82 76 70 78 82 84 84 83 83 64 77 76 74 90 88 92 85 79 73 68 70 77 77 74 79 76 69 57 55
81 81 80 75 74 81 89 92 94 94 95 96 94 92 69 78 73 82 82 82 73 81 90 97 90 95 76 79 86 67 78 79 95 96 89 89 88 73 77 78 72 86 59 61 60 66 72
82 86 80 77 77 81 86 87 95 96 95 84 91 97 81 73 75 90 92 86 79 80 92 92 91 83 67 79 78 76 69 70 86 92 87 96 89 92 85 82 69 77 58 62 64 71 65
82 84 81 79 78 80 83 90 96 95 96 75 74 74 66 74 81 95 93 81 76 84 99 98 90 89 77 85 84 82 78 66 72 81 78 87 83 86 91 91 72 59 60 67 71 70 79
85 84 83 81 80 83 84 90 96 99 97 74 64 73 67 74 92 89 84 85 88 96 98 100 98 75 77 88 86 88 81 84 91 98 100 96 97 82 82 91 85 71 70 86 72 83 77
88 85 84 83 82 83 84 91 95 99 98 60 56 60 75 79 81 82 92 84 90 99 100 91 81 76 87 86 86 85 89 86 72 87 97 95 99 74 58 66 78 75 68 78 67 54 62
85 92 84 84 84 85 85 86 96 98 98 89 62 54 70 73 86 93 96 97 98 98 78 83 70 86 90 88 86 86 97 80 68 63 80 82 92 61 62 61 59 70 81 59 83 80 78
86 90 87 84 85 86 87 88 92 100 99 94 70 64 63 71 86 89 95 94 99 88 65 68 86 80 93 88 90 84 79 66 69 58 57 67 96 69 63 56 62 61 64 81 85 75 66
89 87 89 86 87 87 88 88 91 98 100 68 67 76 56 67 74 92 98 100 90 80 71 64 79 85 82 82 90 92 74 63 58 60 57 64 74 85 64 70 77 73 77 78 72 75 68
89 87 92 87 87 88 88 88 90 97 98 70 81 86 50 58 91 96 99 100 86 83 72 55 61 68 76 74 73 76 69 63 54 55 63 62 79 91 77 68 64 64 73 68 74 78 87
92 88 90 88 89 89 89 88 88 95 100 89 88 88 52 65 94 98 87 87 88 78 65 55 56 59 61 66 72 63 67 57 54 52 63 60 76 92 81 68 68 75 75 67 68 78 97
93 90 93 86 88 88 89 88 88 90 87 81 90 84 87 92 91 82 92 84 76 73 60 56 58 54 57 63 68 72 65 70 59 51 60 56 71 72 73 65 78 90 83 71 76 90 82
93 92 93 97 86 86 88 88 88 73 76 77 94 95 86 97 87 90 88 81 78 79 71 56 56 54 59 69 73 76 72 72 65 63 62 61 86 84 73 67 78 78 79 83 84 77 81
93 94 92 94 89 86 85 88 86 74 74 79 93 93 80 95 91 83 75 77 78 76 78 63 60 59 61 67 64 80 72 70 68 64 65 66 98 91 91 81 84 91 81 82 81 77 76
94 94 92 92 96 90 84 85 85 82 82 94 94 87 92 85 87 79 79 72 71 71 73 77 65 62 70 77 74 63 58 61 61 70 75 71 95 93 88 82 87 93 89 81 77 78 68
92 93 92 91 98 92 83 88 82 82 74 86 93 99 84 91 92 86 88 82 73 76 71 77 69 66 76 67 66 62 63 69 65 68 64 80 90 92 89 84 96 59 66 68 69 67 67
91 87 83 87 91 87 88 87 82 81 70 77 79 99 92 87 86 87 91 92 80 72 77 76 80 75 74 68 77 77 78 66 70 68 68 66 86 91 90 84 70 64 75 75 72 62 62
87 80 77 87 93 96 90 84 83 83 75 70 71 74 96 90 90 89 91 94 86 81 77 80 78 79 70 80 81 88 95 83 95 95 81 79 78 83 96 98 96 58 69 63 61 79 64
96 90 92 95 92 95 92 88 89 80 83 77 72 67 86 98 76 81 88 94 86 83 84 81 82 79 72 88 90 91 91 76 88 80 99 98 100 96 89 92 82 61 64 68 94 72 52
92 91 95 82 86 91 83 93 86 85 90 80 75 71 70 91 88 78 82 95 88 85 88 78 85 83 90 89 88 88 86 84 88 79 81 79 97 93 87 95 95 64 71 85 67 59 61
92 94 88 93 80 76 91 90 94 90 89 85 77 78 79 85 83 62 57 53 67 73 87 93 87 82 87 90 93 91 93 94 88 95 84 92 81 89 81 73 56 59 56 54 63 64 61

GFSGBSN_925_rhum_042.txt.gz
RH
83 83 83 86 85 83 84 89 89 88 85 88 88 89 89 85 82 82 78 80 84 81 86 89 76 80 70 63 66 80 66 69 86 72 67 66 64 61 61 51 49 43 42 35 33 40 38
79 85 81 87 86 79 88 87 89 90 88 88 86 88 89 90 84 86 85 81 82 81 84 79 74 79 67 74 56 72 68 64 77 66 67 64 50 48 52 54 49 38 42 37 36 40 39
78 89 86 85 81 77 91 84 81 76 77 74 76 80 87 89 76 78 84 87 87 88 87 84 70 76 67 51 70 75 71 67 74 62 59 63 47 52 49 60 44 45 46 44 43 38 37
88 81 78 83 84 82 76 74 78 85 87 88 93 92 87 88 84 76 90 91 91 92 87 89 85 78 68 51 56 66 72 64 66 68 61 65 56 46 48 44 49 49 45 55 32 39 41
85 76 82 83 80 74 86 84 79 88 91 92 92 95 85 89 78 83 82 92 92 92 87 89 82 76 59 75 78 66 72 68 64 69 75 70 59 53 52 54 61 48 41 41 42 41 34
78 77 87 78 73 88 84 83 94 87 88 90 88 93 82 82 76 88 79 83 85 89 86 82 75 77 57 60 65 70 67 71 72 73 83 73 69 64 50 49 50 49 40 43 37 41 49
87 80 85 77 75 84 86 93 89 92 91 92 93 94 96 88 83 87 78 75 61 64 70 49 48 66 62 71 69 68 67 92 75 77 90 84 85 78 55 43 39 41 44 38 38 42 44
81 81 76 77 82 89 90 88 93 92 94 91 95 93 86 78 80 90 78 61 61 72 58 54 57 56 56 71 72 64 64 89 78 85 76 85 74 50 49 49 49 45 43 43 54 47 45
83 84 82 79 76 81 89 90 95 95 95 93 95 93 86 71 81 96 78 77 75 81 62 70 75 73 78 64 64 66 72 91 82 84 81 76 62 49 57 56 56 54 50 58 49 49 44
84 83 82 81 79 83 86 92 97 97 94 94 86 63 85 68 68 84 78 78 71 79 88 97 92 92 73 66 77 64 89 82 92 95 77 71 70 54 53 59 50 67 54 55 54 53 44
84 86 85 83 80 82 83 91 96 98 96 86 70 60 62 58 80 81 97 83 78 80 85 94 92 81 63 73 75 83 92 93 88 94 89 96 80 64 61 55 52 55 51 53 54 55 54
86 89 86 85 83 82 84 87 95 97 99 98 81 68 61 64 86 96 95 82 81 94 94 99 90 80 81 79 79 80 87 71 77 87 84 92 84 88 87 73 56 48 52 53 54 56 77
87 91 87 86 85 84 84 87 92 96 98 100 96 66 69 71 71 72 75 78 96 87 94 100 93 70 87 83 83 78 71 84 92 100 100 97 96 93 79 90 76 55 60 87 85 88 65
89 91 90 87 87 86 84 86 89 94 100 99 92 60 71 73 81 82 91 86 87 98 89 85 72 72 96 86 91 88 72 93 66 75 82 97 97 95 88 87 96 80 69 64 65 52 43
89 89 91 88 87 88 87 86 87 93 98 99 68 61 72 71 85 95 84 97 99 99 75 72 56 64 74 73 87 82 80 69 59 58 70 80 94 68 65 57 74 89 90 48 62 59 59
90 89 90 89 91 88 89 88 87 91 97 88 74 71 70 74 83 88 85 96 97 78 59 56 65 63 67 72 69 69 76 59 58 51 48 61 93 63 57 54 51 54 49 75 76 75 55
90 90 93 89 91 90 90 89 89 90 98 74 76 65 64 70 78 72 100 100 75 67 60 56 65 62 63 70 70 63 61 58 51 51 46 51 60 80 61 66 62 61 62 58 52 54 48
91 90 92 90 90 91 89 90 89 90 99 72 78 89 60 69 80 82 89 93 80 68 58 51 53 61 60 65 66 62 54 55 48 45 52 54 63 84 73 59 55 54 53 44 52 70 63
93 92 92 94 91 90 91 90 90 87 100 96 77 76 54 70 80 85 74 75 74 62 55 48 52 52 53 56 62 60 58 55 50 47 50 49 65 88 83 64 61 66 58 50 51 59 82
94 94 92 96 92 91 89 90 89 84 92 82 79 90 67 74 76 69 72 69 62 66 55 50 52 47 48 52 51 58 58 60 54 50 59 45 57 66 54 60 64 84 68 57 63 80 56
94 95 96 92 96 93 89 88 87 80 76 82 85 90 81 80 72 71 74 72 68 65 60 48 50 46 46 54 56 58 60 59 55 60 52 49 87 80 59 58 67 70 69 68 82 59 71
92 95 96 92 96 95 88 89 85 80 77 78 90 91 72 76 75 67 68 69 72 70 68 55 50 48 49 50 43 57 56 54 50 57 52 54 94 86 84 72 69 79 64 62 65 59 57
94 94 92 92 91 96 90 89 84 81 83 85 90 89 90 76 71 62 61 65 65 67 69 65 48 54 58 61 58 51 43 43 45 52 56 58 84 86 74 70 73 81 68 63 61 58 54
90 89 82 76 87 96 94 88 88 78 66 91 94 99 84 72 73 63 72 73 69 70 67 66 59 54 62 51 48 46 49 51 50 56 47 63 77 82 84 76 87 54 54 53 57 52 51
85 88 89 88 88 92 95 88 92 87 68 76 72 95 91 81 69 67 82 80 73 65 69 70 70 69 60 60 62 65 64 62 63 64 55 50 66 82 85 73 54 48 63 62 64 59 49
91 96 97 96 75 78 96 92 90 90 75 65 69 66 90 81 64 76 85 85 74 66 65 72 72 70 64 72 68 72 78 61 77 78 70 63 56 68 80 90 77 56 56 52 53 72 52
98 97 95 75 85 77 90 95 94 89 89 76 69 68 84 86 64 66 80 82 76 72 68 73 75 76 68 72 68 69 70 62 76 72 90 84 83 82 75 72 54 43 58 56 93 75 54
99 92 93 81 86 90 90 96 94 93 91 86 77 70 75 77 58 58 70 71 78 82 74 75 79 77 80 81 68 66 62 63 67 55 64 67 78 90 70 80 77 49 68 74 58 54 67
98 98 90 85 82 97 92 96 91 94 99 92 85 80 82 84 68 58 54 52 59 60 80 82 85 75 67 71 77 70 69 68 66 78 65 68 56 58 55 52 43 52 52 53 51 53 56

GFSGBSN_925_rhum_045.txt.gz
RH
78 86 85 82 81 77 88 89 82 79 78 77 78 82 84 86 88 85 82 84 78 82 81 88 82 78 72 59 43 77 82 86 83 70 60 58 42 51 51 42 35 42 28 24 26 33 32
82 85 79 83 76 84 83 78 83 84 86 88 89 90 92 86 84 83 85 84 83 85 85 83 78 75 69 80 35 68 76 68 86 70 49 51 39 42 43 39 38 36 33 31 26 34 34
82 77 81 83 82 79 88 88 82 85 90 91 88 85 92 90 84 80 77 83 90 85 88 87 82 72 67 54 41 75 74 68 62 72 45 46 36 43 43 45 36 39 36 36 30 32 35
83 80 79 78 76 80 84 80 90 91 89 91 90 88 90 86 79 85 78 91 90 91 91 87 80 68 68 48 45 65 84 63 70 74 43 52 47 40 44 40 43 44 41 48 33 36 33
83 82 79 82 79 81 84 91 89 91 89 85 90 88 93 77 84 78 86 89 93 92 93 86 74 62 57 47 48 45 72 60 64 69 46 56 57 49 47 50 54 45 48 40 34 31 35
86 82 81 78 82 85 86 87 89 92 90 90 90 90 94 78 80 83 77 70 76 83 79 67 62 65 46 52 54 56 73 68 58 56 63 78 83 68 48 45 52 45 47 28 31 37 34
85 84 82 80 78 82 84 89 92 92 94 90 92 93 91 81 80 82 77 68 66 61 54 44 43 55 55 51 64 64 68 70 59 67 79 81 84 76 50 34 27 24 35 28 24 36 39
86 85 84 82 80 84 87 91 94 93 93 93 94 87 83 81 81 78 77 53 64 71 52 41 44 48 49 54 67 69 63 79 78 80 57 93 93 50 39 33 30 36 34 32 32 35 40
88 87 85 84 81 81 85 90 94 94 95 95 95 92 77 88 91 76 64 70 76 73 90 60 67 70 72 68 58 84 68 87 78 64 72 74 74 50 45 42 41 36 38 34 39 44 39
89 89 86 85 84 84 84 88 94 94 93 100 98 92 63 60 71 73 63 80 79 78 100 94 91 82 74 66 76 77 90 90 91 72 70 78 52 74 54 50 36 41 38 40 50 47 35
90 89 88 86 85 85 85 85 90 96 95 93 100 95 67 68 66 65 81 87 84 83 89 100 95 76 76 73 75 94 94 91 86 95 94 94 79 61 56 48 35 47 46 50 52 51 49
90 91 89 88 87 86 87 87 87 88 98 96 100 94 70 76 73 80 88 82 76 99 94 99 82 76 68 66 79 84 90 85 76 86 81 92 75 82 60 47 38 44 49 51 51 54 72
92 91 91 89 88 88 87 88 88 89 94 98 100 95 80 80 64 83 84 67 99 88 84 99 92 80 80 79 85 80 91 93 95 100 100 97 95 88 72 65 52 48 53 74 78 90 60
92 92 90 90 91 91 90 89 89 89 95 99 83 59 75 75 85 90 80 84 84 93 84 75 73 73 92 89 86 77 70 91 81 85 97 100 100 98 84 81 76 61 52 63 61 58 50
92 91 92 91 90 90 92 91 90 90 91 99 68 69 74 74 90 93 89 91 100 100 61 59 53 63 71 70 80 67 59 58 57 56 87 96 100 93 89 80 73 94 92 44 48 39 44
93 92 92 93 93 92 92 93 91 89 82 92 73 58 60 75 94 85 79 94 90 64 48 46 55 53 56 60 57 55 58 51 53 45 42 55 91 84 76 81 80 90 50 73 74 76 48
93 92 91 95 94 93 93 92 91 89 79 77 70 57 69 85 89 60 98 99 57 50 49 50 51 50 48 55 55 52 52 52 43 44 40 46 54 78 58 64 66 77 71 52 51 52 54
94 93 92 96 96 94 93 92 90 88 91 78 68 88 71 82 70 57 68 79 73 52 45 45 46 49 46 50 54 49 49 46 41 39 44 47 59 78 68 52 49 49 46 43 55 67 49
95 94 94 94 96 96 94 91 89 87 94 93 61 62 71 71 72 67 61 58 58 51 46 42 45 46 46 48 54 48 46 49 44 42 43 43 62 87 76 58 53 59 51 46 41 55 79
96 95 98 94 96 96 93 92 87 85 86 89 64 92 53 50 58 52 53 52 53 57 48 42 43 40 44 45 42 52 50 53 48 44 55 40 49 66 60 61 53 72 56 51 58 85 53
94 96 97 95 93 94 93 91 88 81 70 87 65 75 73 74 58 56 57 54 53 53 50 41 44 40 39 46 44 47 48 52 49 58 46 44 86 82 51 52 61 69 60 57 75 60 65
93 94 93 85 82 93 96 90 87 78 73 67 84 88 70 57 57 53 63 56 57 56 55 46 44 38 36 40 36 44 44 44 44 48 46 47 87 78 83 60 61 70 57 53 58 56 49
91 85 86 81 88 95 95 90 92 82 70 66 72 81 85 62 53 51 45 52 55 58 57 51 38 40 44 46 42 43 33 34 35 41 46 49 74 84 70 61 65 73 62 55 52 51 49
81 85 95 92 95 95 96 94 91 90 70 68 79 95 79 61 57 50 58 60 57 57 55 46 48 42 51 42 40 38 38 39 41 42 39 51 64 72 79 76 85 53 46 44 48 45 44
82 86 97 96 95 95 95 86 94 91 77 69 70 83 76 71 50 52 60 64 59 55 59 53 55 59 45 48 49 56 56 53 53 50 46 42 52 73 78 68 49 39 47 56 56 53 40
79 95 91 96 91 91 96 94 82 94 82 70 80 77 76 75 50 62 68 72 68 53 55 58 63 58 59 67 56 59 67 50 63 64 56 50 45 62 71 76 71 55 49 43 46 65 42
87 96 92 78 81 88 95 95 96 84 93 84 80 78 68 64 37 52 60 70 68 66 61 61 66 70 61 58 64 62 60 48 61 65 73 67 62 76 69 69 52 34 51 48 81 75 50
91 96 89 83 80 87 96 96 97 84 91 97 81 70 74 67 53 45 48 50 48 73 71 67 70 66 73 71 62 61 54 50 52 45 54 60 64 66 60 77 71 36 57 67 57 54 63
88 81 81 80 74 91 95 86 97 91 84 94 89 83 85 88 58 61 54 44 45 52 70 70 85 66 59 62 53 51 53 46 47 54 45 59 46 53 49 48 39 39 41 45 45 49 52

GFSGBSN_925_rhum_048.txt.gz
RH
83 84 78 79 84 77 84 90 82 84 85 87 89 89 86 93 72 86 88 86 85 79 83 82 76 76 79 81 62 51 55 74 78 84 61 62 44 59 60 52 42 48 36 28 26 34 32
85 83 78 84 75 80 83 82 88 91 89 87 84 88 83 89 78 86 85 86 83 88 87 87 85 75 79 92 43 42 70 79 82 87 54 59 38 43 47 41 48 38 37 35 26 36 34
85 86 80 76 80 85 83 87 87 89 91 88 87 89 86 92 94 84 81 78 85 89 88 88 85 75 69 61 49 70 67 81 82 76 52 53 40 38 43 49 36 37 44 42 34 35 37
85 81 84 78 84 85 86 86 88 92 89 91 88 85 87 85 80 73 82 88 86 90 88 80 85 70 69 48 50 50 70 71 70 72 51 46 48 39 46 41 40 45 47 56 38 37 36
85 84 82 80 80 84 86 89 88 92 92 93 89 87 92 75 83 80 84 73 78 90 91 85 77 69 59 44 46 45 65 72 67 73 64 48 53 57 59 61 62 53 60 54 45 33 37
87 85 84 82 79 83 88 89 88 92 91 94 94 86 93 84 78 80 71 62 71 77 80 70 58 67 50 51 39 38 62 72 73 78 74 65 73 77 64 65 87 62 55 46 47 38 39
90 87 85 83 83 79 87 89 89 93 96 95 98 89 94 85 80 68 82 73 71 64 54 77 58 53 63 56 44 47 78 72 82 84 86 75 84 88 68 51 42 39 43 42 35 35 41
90 89 86 85 84 83 83 88 91 92 97 94 98 96 91 83 85 69 74 53 65 71 65 38 40 43 45 50 74 75 66 77 91 89 63 86 87 56 52 43 39 36 37 40 32 38 40
91 89 89 87 86 85 84 83 88 91 94 95 98 97 86 76 76 72 64 69 76 73 76 61 68 72 67 70 71 93 60 88 83 76 70 76 61 47 46 48 43 37 42 38 39 44 40
92 90 88 89 88 87 87 86 83 85 90 91 100 99 89 82 84 69 64 74 74 74 95 91 80 74 72 74 94 82 75 82 84 72 60 63 57 64 59 53 42 43 33 35 45 56 60
93 92 91 90 91 90 89 88 87 87 90 93 95 100 92 70 72 62 75 81 79 82 96 98 92 76 76 87 82 90 90 73 89 67 81 95 74 76 78 61 40 43 46 50 50 58 60
94 93 91 92 90 92 93 90 89 89 90 94 99 99 90 80 78 67 81 78 77 99 97 99 89 88 82 73 84 82 88 76 82 81 80 90 78 77 76 70 51 47 55 56 53 61 91
94 93 92 94 93 93 94 94 93 90 91 96 100 88 80 79 73 80 80 76 100 93 91 97 84 75 81 88 82 78 91 95 98 98 100 98 94 86 82 86 69 53 63 93 94 97 87
94 94 93 94 94 93 93 94 95 92 88 86 76 57 72 74 78 85 82 96 91 86 84 76 73 70 87 76 81 89 96 99 88 84 100 100 99 96 84 81 82 64 56 83 72 88 76
94 95 94 94 97 95 94 93 93 94 63 70 67 71 72 75 85 89 96 95 97 98 62 64 60 63 73 70 68 73 90 89 84 84 98 100 100 92 87 79 76 77 96 48 70 40 78
95 95 94 94 97 96 96 92 90 92 44 78 84 60 58 67 86 90 97 92 89 65 48 44 57 55 67 64 68 60 56 50 57 54 47 71 98 96 91 89 81 88 72 77 92 90 63
91 95 95 95 98 99 95 92 91 90 53 70 85 66 75 82 89 94 96 98 56 46 47 51 48 48 52 54 53 46 53 52 42 44 41 47 67 97 96 98 98 96 90 64 62 74 88
95 95 95 96 95 98 97 93 91 90 80 66 77 89 74 81 88 83 84 81 62 49 43 43 45 47 45 47 50 47 51 52 40 39 48 51 67 93 72 54 55 78 79 62 86 77 67
93 92 94 95 96 92 94 93 91 85 86 96 75 67 71 70 82 75 59 55 53 49 44 41 46 46 44 45 53 47 50 49 43 45 49 47 79 96 77 64 56 64 55 68 50 74 86
89 92 94 95 88 90 96 93 92 85 87 97 73 98 73 71 59 62 56 51 54 55 48 40 42 40 45 46 41 53 55 52 48 47 48 45 55 78 85 72 67 75 61 56 73 94 74
87 91 93 86 87 91 94 91 91 63 72 91 65 83 71 87 64 58 56 53 51 54 52 41 44 43 41 47 45 47 52 57 50 56 46 52 94 78 55 53 74 75 66 63 79 70 80
77 83 91 88 92 94 96 93 91 58 62 67 82 91 76 73 55 56 65 56 54 53 54 48 49 39 36 41 38 46 48 50 51 52 49 57 91 83 84 57 60 72 64 60 63 62 62
69 81 94 94 94 94 94 95 96 74 64 64 68 72 86 74 53 56 59 55 54 56 55 49 48 41 42 56 48 48 37 37 39 52 54 60 85 92 84 64 68 86 71 63 58 58 58
73 83 96 95 95 95 95 94 94 83 67 60 67 84 86 74 59 55 58 58 60 58 68 47 49 51 52 42 40 37 36 38 38 39 42 53 73 92 94 82 97 57 46 49 54 49 51
74 89 94 82 90 96 95 96 94 95 66 69 72 71 79 68 47 52 64 67 66 57 62 58 58 58 44 47 48 58 60 55 48 46 50 42 63 87 80 88 61 45 56 57 57 58 43
74 90 81 76 84 92 96 96 96 87 80 73 77 76 66 79 53 42 62 64 80 70 62 61 63 58 59 71 63 65 75 54 67 65 55 48 50 72 75 73 82 63 50 42 45 84 45
84 88 90 84 85 88 95 95 97 91 92 82 83 67 74 67 43 48 59 71 65 78 77 62 71 74 63 73 73 70 69 47 62 60 78 76 72 87 85 78 62 50 53 47 85 78 59
77 88 90 84 78 78 95 89 97 93 88 86 85 73 78 77 66 51 43 52 54 57 89 83 78 74 81 83 73 72 63 58 54 49 65 67 73 71 69 83 86 56 60 75 71 67 66
91 87 80 80 75 84 91 94 91 91 97 93 87 84 86 91 75 66 67 59 53 47 67 71 86 79 86 85 72 62 68 55 56 67 50 68 58 62 59 67 48 45 48 54 53 59 62

GFSGBSN_925_rhum_051.txt.gz
RH
84 83 81 78 81 82 88 85 88 88 87 89 86 83 84 84 88 78 83 83 87 84 85 86 86 80 81 84 79 50 53 58 72 81 77 75 66 84 75 71 55 62 45 42 43 49 52
85 84 81 81 77 86 85 84 87 91 91 88 86 81 86 89 92 84 83 87 84 88 85 86 86 80 78 92 60 60 52 66 79 78 71 73 47 66 64 60 59 47 47 47 42 40 36
87 84 83 81 80 82 87 90 90 92 92 90 90 85 91 94 83 74 82 80 85 89 89 90 87 80 78 73 53 58 68 81 74 69 71 65 52 58 52 55 45 46 54 54 50 44 40
88 85 84 83 81 81 89 87 89 92 90 91 91 85 93 86 83 82 82 79 84 91 92 89 76 78 77 51 47 48 57 77 92 84 66 56 57 50 50 47 46 51 55 70 47 44 38
89 87 87 85 84 80 85 92 91 90 93 93 94 86 93 84 78 82 70 63 78 69 90 78 78 79 74 49 53 48 54 63 92 89 76 54 57 62 55 66 69 60 79 66 50 41 43
90 88 86 87 86 83 80 86 91 94 93 94 95 91 94 89 66 68 71 56 67 71 69 78 69 75 62 61 51 55 61 62 86 84 88 69 77 80 78 80 84 76 71 58 54 44 43
92 90 91 88 87 84 83 82 82 91 95 95 98 93 79 96 55 58 68 75 74 73 60 79 74 60 56 52 54 62 70 76 86 97 84 78 88 88 79 66 56 54 57 51 47 39 46
94 92 87 89 88 86 85 85 85 82 88 96 93 98 75 74 78 58 66 70 75 72 83 55 56 48 46 46 73 71 82 96 91 95 78 86 88 69 64 55 56 50 56 52 39 41 45
95 93 92 91 89 92 89 87 87 87 86 91 94 99 96 69 73 68 68 74 74 75 89 64 70 77 74 65 79 76 86 87 83 90 78 77 68 56 62 59 60 56 49 48 49 45 43
96 94 93 93 93 91 90 92 91 89 90 90 93 94 99 88 72 64 71 73 75 75 96 94 81 88 74 80 88 88 75 87 90 82 69 63 60 64 62 68 56 62 38 39 55 60 66
96 95 94 95 95 94 93 91 90 94 93 94 96 95 99 81 78 75 72 61 74 81 93 93 90 79 84 87 80 81 79 87 85 76 74 85 77 75 75 66 52 56 47 56 58 64 64
87 94 96 96 96 96 95 95 94 94 96 95 98 99 87 85 78 70 69 79 80 89 97 98 83 84 98 88 83 80 83 80 75 82 83 90 74 87 83 81 67 51 60 63 68 75 90
63 94 96 96 99 96 96 95 94 94 95 89 98 88 89 78 81 77 78 85 94 93 88 89 91 83 82 85 87 78 86 90 93 98 99 90 94 84 82 86 74 63 66 95 95 97 89
67 94 97 96 93 96 94 95 94 93 94 57 72 62 62 73 79 78 80 93 89 87 87 76 77 78 83 78 85 90 92 95 88 88 93 98 97 95 87 88 94 80 61 86 87 98 84
85 96 97 96 95 100 96 91 92 93 83 69 70 69 78 78 80 82 96 93 85 95 68 71 70 72 80 73 80 94 96 88 82 80 88 99 100 90 84 85 91 93 96 52 72 55 85
92 97 96 97 96 89 96 93 92 91 79 52 85 74 77 81 81 87 96 90 90 78 56 52 71 59 85 73 77 86 95 71 84 75 72 86 97 95 88 82 80 89 72 83 94 97 69
85 96 96 96 96 95 92 94 92 90 78 54 90 85 78 77 85 92 94 98 79 52 51 56 61 56 57 64 68 60 63 55 52 64 59 70 77 99 96 99 97 92 92 69 71 86 90
78 94 96 96 93 91 95 94 93 88 90 67 92 94 78 88 97 94 94 83 64 52 48 49 49 51 52 52 46 50 64 56 43 46 58 55 79 98 89 78 73 82 82 69 90 79 74
71 93 94 90 91 92 96 88 91 85 93 92 99 87 79 86 94 83 65 65 60 56 46 45 50 48 46 50 57 52 64 52 48 53 54 56 83 95 87 71 73 93 92 80 77 74 83
76 88 95 90 95 96 95 87 74 54 68 91 96 94 86 95 80 69 65 65 70 55 55 42 45 44 48 49 43 56 65 54 50 50 45 46 70 77 83 70 75 81 76 85 95 91 73
65 81 94 94 94 95 95 92 78 42 63 80 92 90 79 95 73 68 58 55 56 68 56 44 47 49 52 52 49 56 62 64 53 51 49 60 82 72 61 66 72 72 70 76 97 74 79
67 77 97 95 95 95 94 95 80 52 58 66 88 90 84 96 80 63 66 62 59 59 57 56 53 49 42 50 48 54 60 61 62 57 54 64 91 83 81 61 60 72 69 70 72 66 66
71 86 97 92 90 93 94 95 94 64 58 72 73 74 81 84 83 68 71 68 67 58 56 52 55 53 46 63 53 50 44 46 48 62 64 69 86 93 88 70 71 81 74 68 64 63 60
74 88 85 75 76 84 94 96 95 76 71 66 71 80 92 91 67 62 72 68 76 74 74 55 62 57 51 46 44 40 45 45 46 52 53 79 76 90 94 84 95 54 52 57 58 51 60
80 84 76 78 78 81 95 95 96 81 75 74 68 82 91 92 68 55 62 74 74 72 68 65 71 67 63 53 60 63 64 58 52 49 50 53 62 79 83 86 65 50 59 59 66 64 51
86 77 83 85 82 77 92 95 93 91 85 80 79 68 84 90 70 56 60 66 89 90 77 73 68 65 63 79 68 73 81 55 67 60 55 58 55 74 79 70 86 60 50 45 52 81 55
76 81 92 93 78 74 82 84 91 83 78 87 86 73 83 90 65 59 64 76 71 80 93 76 79 76 70 85 81 76 70 51 75 73 76 76 74 86 83 90 70 47 50 49 82 70 63
74 88 94 87 69 73 80 89 89 87 93 86 85 76 76 94 86 67 56 56 59 71 88 84 78 81 89 88 86 81 68 63 62 58 77 83 78 80 78 86 90 55 61 74 68 68 64
85 92 81 82 78 75 82 90 91 83 86 98 91 89 87 92 88 64 67 67 67 52 68 76 85 83 91 97 89 85 73 69 69 77 58 74 67 73 70 73 50 61 54 57 64 73 69

GFSGBSN_925_rhum_054.txt.gz
RH
87 82 84 82 80 87 88 87 89 90 90 86 88 80 88 88 92 77 76 73 81 89 86 86 87 79 77 83 79 62 62 64 67 90 82 72 82 72 84 75 70 62 57 52 59 65 65
88 86 85 84 83 82 89 90 87 92 91 88 90 84 90 91 92 87 86 87 84 89 86 89 87 78 82 92 56 65 63 58 65 88 76 73 72 70 63 68 73 61 51 56 61 63 55
89 87 87 84 84 81 83 82 84 93 92 91 90 88 91 89 89 88 84 83 88 90 90 89 88 76 81 73 61 63 58 63 69 83 74 77 56 73 62 66 54 52 68 58 52 49 49
91 88 86 85 82 84 79 88 91 91 92 92 92 88 93 86 81 83 76 88 78 80 92 92 85 81 90 50 57 58 55 83 79 77 68 74 58 66 56 51 52 55 60 70 51 49 42
92 90 90 88 86 85 84 82 82 90 94 94 93 95 94 91 85 72 58 65 85 82 89 77 73 78 80 52 56 56 59 80 98 88 68 72 64 66 56 70 72 59 86 73 57 47 46
93 91 84 89 90 87 85 85 84 80 87 85 93 92 92 89 78 71 71 53 68 70 73 76 73 76 60 61 56 64 73 69 90 88 83 78 82 83 76 76 83 74 78 63 60 47 49
95 93 92 92 91 95 91 88 87 86 84 89 89 94 97 84 70 87 75 66 72 69 64 68 62 71 52 50 55 77 75 90 90 90 96 78 90 89 76 60 59 63 59 64 51 43 47
96 94 94 93 89 86 86 88 91 91 88 88 91 92 95 94 69 64 68 78 77 73 81 59 64 61 56 46 70 78 82 98 92 96 80 90 88 73 67 60 56 58 66 62 44 39 47
97 95 95 94 94 93 93 93 92 89 96 91 89 89 98 97 67 64 68 69 71 77 91 72 72 81 79 70 78 89 90 88 84 93 77 75 76 67 68 64 67 58 62 57 48 47 44
97 96 96 96 96 96 94 94 93 92 92 95 93 96 98 94 87 66 72 70 72 81 93 92 79 78 79 81 84 89 96 89 94 90 72 74 65 67 72 70 59 66 46 44 50 60 74
97 97 96 97 99 98 96 94 94 94 95 96 95 99 99 99 80 77 68 61 77 78 89 87 92 78 75 84 81 82 87 72 90 92 80 97 78 74 75 67 53 60 44 54 59 66 64
92 96 96 94 94 97 95 96 94 94 97 96 97 99 96 86 96 71 63 78 81 81 90 96 89 89 89 88 84 76 86 76 83 79 84 87 78 87 86 80 62 57 59 67 76 74 86
82 97 97 95 96 95 99 94 93 93 94 85 71 98 86 88 84 75 78 85 86 93 72 80 95 87 80 83 84 79 87 88 92 97 96 95 91 84 85 82 72 64 63 97 94 94 84
72 92 94 96 94 92 87 91 94 93 92 78 67 52 61 77 80 79 79 85 86 84 78 69 81 77 82 83 85 84 86 92 84 84 90 94 99 94 85 84 86 80 78 89 85 96 83
71 71 93 96 92 94 93 94 93 92 88 73 74 65 78 74 80 78 89 89 84 89 76 78 73 84 83 78 87 90 92 77 81 84 84 94 99 87 84 88 81 95 99 60 74 67 88
66 74 98 96 94 94 95 94 92 91 88 77 76 80 78 79 81 84 91 87 86 78 60 57 81 67 87 80 86 92 98 75 80 76 71 87 97 95 88 82 89 95 74 82 92 96 76
67 91 97 96 93 94 95 95 94 90 94 74 85 87 84 83 83 93 93 95 83 66 53 57 62 58 64 74 74 84 89 71 70 77 79 80 77 98 94 94 87 98 99 86 73 86 91
70 87 92 93 94 96 95 95 95 88 95 73 90 95 86 85 99 98 93 84 59 55 51 54 52 53 55 54 52 56 69 59 52 60 66 66 84 94 88 74 74 75 86 70 91 86 80
68 80 93 93 96 96 95 94 94 84 88 91 98 91 93 93 97 73 72 65 63 58 51 48 52 50 49 51 56 60 63 53 51 52 63 63 85 99 95 83 82 97 89 76 79 77 86
70 74 93 95 96 96 95 93 86 54 64 83 91 95 94 99 93 78 69 69 66 56 56 44 46 45 50 51 47 62 65 55 51 49 46 53 78 76 84 69 81 93 96 86 93 97 74
63 74 95 92 95 93 95 96 78 41 59 74 94 93 84 97 84 75 68 55 65 70 58 46 49 49 53 56 54 60 65 64 54 51 51 56 78 74 67 66 71 74 80 91 97 77 78
64 74 87 87 85 92 95 94 77 43 50 68 92 90 79 95 91 79 68 62 60 62 62 60 56 53 50 51 53 59 65 66 62 58 56 67 90 80 78 63 62 73 70 83 89 87 86
62 73 80 78 80 88 95 95 88 65 37 69 78 76 90 83 85 77 82 71 78 64 57 54 54 62 63 60 53 47 51 53 52 64 67 71 86 89 87 80 72 78 72 70 72 70 77
58 75 75 76 74 82 95 95 88 74 64 62 76 87 91 88 70 71 66 69 75 78 78 67 63 58 54 47 48 45 48 53 57 56 62 80 77 87 94 80 94 59 48 59 60 52 62
59 72 81 82 75 73 95 96 95 83 78 77 72 80 91 79 76 56 59 70 76 81 72 66 70 67 71 55 66 66 69 60 56 57 59 66 60 90 94 95 67 50 60 64 70 64 53
64 74 88 82 72 72 87 90 92 78 77 76 76 74 86 85 74 64 62 67 92 93 88 75 70 68 65 78 71 78 86 68 66 59 61 57 55 74 85 78 85 53 55 50 52 82 57
67 79 88 88 68 70 85 87 86 84 78 74 80 74 80 92 78 70 67 70 69 72 85 82 84 80 70 86 79 80 77 55 74 68 74 75 74 84 79 88 79 52 48 51 83 68 68
71 80 86 83 70 73 86 90 92 85 90 84 86 80 74 94 89 71 60 65 70 69 86 82 90 84 91 88 86 82 69 63 68 59 74 80 81 83 79 86 89 48 61 71 63 66 66
72 83 87 80 76 76 85 90 89 93 93 85 86 86 86 89 86 76 74 73 70 66 67 68 92 86 89 97 93 93 81 77 74 79 67 76 66 70 72 71 50 52 56 56 70 70 63

GFSGBSN_925_rhum_057.txt.gz
RH
88 85 84 83 83 81 86 88 86 92 92 90 94 85 86 90 88 87 85 78 86 89 84 86 88 83 78 79 76 57 71 65 68 75 91 72 80 72 74 85 71 73 58 61 54 75 70
89 89 88 85 82 83 80 84 88 92 93 90 95 87 90 87 89 90 88 85 85 90 78 88 88 87 84 88 56 59 64 62 62 75 79 84 70 62 67 75 79 64 60 64 68 68 58
92 90 85 88 85 83 83 79 84 88 91 91 94 93 93 88 83 87 87 87 89 92 89 86 89 80 85 81 62 72 70 69 61 82 77 85 62 67 65 72 71 70 78 78 84 76 81
94 91 89 89 88 86 85 83 84 79 89 90 97 93 92 93 87 89 88 85 78 90 91 92 91 82 88 52 63 72 73 79 72 75 82 70 60 72 59 56 60 68 75 88 61 66 60
95 93 90 89 92 90 90 86 86 85 82 86 93 85 95 96 82 78 94 93 79 91 88 88 78 76 74 60 75 72 78 75 78 84 94 59 60 70 62 76 77 69 89 77 64 50 50
96 94 94 90 84 85 86 88 89 90 86 86 90 90 94 95 71 59 73 69 73 73 79 80 76 73 57 68 74 84 72 74 86 89 84 81 84 82 84 79 89 87 82 73 62 56 53
94 96 95 92 91 90 88 92 88 81 90 91 85 89 88 96 93 62 66 64 66 63 66 66 68 68 56 46 64 86 75 82 90 80 93 87 89 92 85 68 56 65 70 67 54 47 53
86 97 96 94 92 95 91 92 87 89 90 87 92 91 89 94 96 71 62 79 73 76 78 62 66 70 64 56 71 79 76 81 94 94 83 92 88 74 66 57 57 61 70 70 51 44 52
77 97 96 94 96 95 96 93 90 93 92 94 95 92 91 97 93 68 65 62 72 79 89 74 71 82 85 73 83 82 78 90 87 93 84 77 73 70 67 67 64 59 72 65 56 49 47
73 96 96 93 96 95 96 93 92 92 93 96 97 96 94 98 85 70 72 62 73 81 92 95 81 77 76 79 90 81 91 90 93 95 69 75 69 76 74 72 65 68 50 54 52 60 74
72 92 98 96 88 90 97 97 95 94 94 96 98 97 99 99 83 80 70 59 76 76 87 78 89 70 69 84 84 86 94 92 91 94 89 96 80 83 83 72 54 61 48 49 56 68 62
68 77 98 96 91 91 89 89 92 95 93 93 96 100 99 96 99 74 67 79 80 81 87 94 86 86 78 78 86 89 95 89 87 79 83 91 84 81 83 78 55 58 61 68 75 74 90
64 76 97 96 94 92 95 93 93 88 91 93 96 92 97 91 85 74 80 82 86 88 65 79 96 93 83 88 82 86 89 94 97 98 99 93 93 84 82 78 68 57 65 95 93 95 91
56 75 92 97 93 95 95 94 90 92 91 94 92 73 77 82 80 80 79 81 86 78 81 68 83 82 86 76 83 76 84 97 86 79 93 97 97 88 86 81 78 73 63 88 86 95 82
50 71 89 98 96 95 94 91 94 93 90 93 78 77 76 78 83 79 82 89 81 87 77 84 82 88 89 82 87 87 90 86 82 77 81 94 96 86 81 86 84 87 91 62 79 72 90
55 71 90 96 95 93 96 95 95 94 91 85 80 79 86 82 82 83 90 85 84 73 69 62 80 75 93 89 87 83 90 74 83 78 64 76 96 81 92 78 83 91 80 90 93 92 84
62 77 85 94 82 93 97 95 95 94 92 77 86 88 92 86 84 89 92 96 80 71 66 60 66 64 76 82 84 86 81 76 73 82 70 74 76 89 91 95 83 98 99 94 76 83 81
64 76 81 93 82 64 70 95 95 92 91 76 86 98 90 89 98 95 94 82 61 57 53 57 55 55 66 76 81 72 88 69 68 72 89 70 82 92 88 77 76 74 84 90 93 89 88
64 67 84 84 77 69 65 94 94 89 83 93 96 96 95 89 98 92 74 68 65 60 56 50 53 51 51 53 64 67 67 55 58 62 69 69 89 97 96 93 86 97 86 80 82 84 88
63 69 89 73 72 77 64 71 77 81 66 88 92 96 98 99 92 90 73 70 62 58 57 47 49 47 51 53 56 70 67 58 56 55 61 59 80 77 84 70 84 96 85 83 88 99 80
59 68 83 68 71 85 70 64 60 52 58 81 94 94 88 98 93 85 72 65 64 68 59 50 50 51 54 56 58 64 67 65 56 54 61 59 81 81 68 64 77 84 86 85 94 82 89
57 79 70 66 67 87 83 64 59 48 42 69 88 88 89 94 90 85 76 68 63 62 61 61 58 55 53 53 55 64 69 65 58 59 60 67 89 79 81 71 69 76 74 87 82 78 76
56 76 72 63 67 90 78 72 70 60 38 68 80 81 91 84 80 82 83 76 78 77 59 56 55 66 56 55 53 51 54 57 55 66 71 71 86 87 83 84 75 80 72 75 83 84 80
59 77 70 68 72 80 80 89 75 74 65 65 80 88 87 82 70 71 60 52 73 73 84 71 67 63 54 54 47 46 54 60 63 61 66 80 78 85 91 80 89 56 48 57 67 57 75
60 79 71 75 69 75 72 78 72 77 76 69 76 80 84 70 79 59 62 68 74 76 78 74 74 73 77 56 67 67 74 60 57 61 66 66 78 93 93 98 70 46 61 67 68 62 57
71 74 78 79 69 72 78 75 75 77 75 76 75 81 84 67 72 67 66 70 92 92 89 79 76 75 66 80 73 78 87 71 72 67 60 60 57 74 92 83 85 54 54 51 55 82 55
77 74 88 84 67 70 75 82 86 78 85 80 78 80 80 89 81 70 73 70 68 67 77 77 85 89 70 80 78 84 85 60 73 63 84 79 79 81 81 87 80 56 50 52 84 65 68
72 78 92 83 69 72 82 78 74 75 82 82 87 85 81 93 87 73 62 67 76 74 83 75 88 94 92 84 80 79 78 66 70 60 73 78 86 86 78 89 91 47 60 69 63 66 66
74 87 90 82 73 72 82 82 83 81 82 85 78 78 83 89 85 82 78 76 74 66 76 70 96 100 94 98 94 95 86 82 75 79 70 76 70 75 76 75 51 48 63 55 68 71 62

GFSGBSN_925_rhum_060.txt.gz
RH
92 90 87 85 84 84 83 81 83 88 89 94 95 93 89 86 88 89 87 87 87 89 88 87 88 86 79 77 78 55 65 76 75 85 80 80 78 72 84 88 80 76 72 62 66 68 64
94 92 90 88 88 85 85 83 83 78 87 92 94 93 90 88 85 89 88 87 85 88 88 90 89 85 83 92 58 63 62 62 65 71 82 86 69 66 72 81 78 72 66 66 74 75 73
95 93 91 87 85 90 87 85 86 82 80 89 94 95 96 92 88 88 90 88 87 89 91 90 89 81 87 82 62 58 62 66 69 81 79 80 76 67 70 86 76 75 90 83 76 70 78
94 94 92 90 88 88 88 88 90 88 84 78 87 79 94 94 93 88 80 92 91 92 90 89 90 84 92 62 67 69 60 75 76 72 68 70 81 68 70 68 74 82 84 95 84 82 81
91 96 94 89 88 86 85 86 87 83 84 91 80 85 86 96 95 93 70 66 80 78 87 87 83 80 74 68 75 86 83 94 86 85 76 74 74 76 64 81 84 78 95 88 94 78 93
85 96 96 88 89 91 90 90 88 84 89 86 83 87 86 85 95 92 74 61 62 64 72 78 82 77 56 62 78 93 87 91 80 87 89 92 88 89 84 84 92 89 87 79 77 79 82
86 92 96 94 88 93 93 93 96 87 88 92 87 83 91 92 93 94 78 56 63 58 66 71 68 69 59 55 83 73 77 85 80 74 98 89 91 92 88 70 66 75 71 77 59 54 59
79 80 97 96 89 91 94 92 87 90 92 93 83 85 92 92 98 95 70 74 67 72 88 63 71 71 68 70 77 76 82 83 94 97 90 93 86 78 69 60 62 67 76 71 54 51 55
65 87 97 96 92 93 87 96 93 92 93 92 86 88 92 91 97 81 66 67 73 80 91 71 72 82 83 82 92 93 78 85 90 96 92 78 77 70 66 64 66 64 76 71 65 53 48
63 75 93 96 95 91 92 87 89 90 95 93 92 92 94 92 90 71 74 65 71 72 92 83 83 73 75 81 87 81 90 81 88 90 74 70 74 76 74 70 62 69 57 57 61 67 81
64 70 82 95 97 94 92 93 92 92 89 91 92 94 92 96 87 82 73 67 77 66 90 68 86 69 70 85 81 78 94 85 85 93 90 96 87 85 82 69 56 63 50 54 56 71 64
67 68 78 96 97 96 94 94 92 91 93 95 95 99 93 98 98 77 69 79 79 80 94 93 83 88 78 78 84 86 94 96 80 88 84 93 84 77 79 74 56 62 63 68 74 75 92
70 63 77 93 97 95 96 96 89 93 94 95 96 93 98 90 88 75 78 81 85 83 62 89 89 70 78 84 88 93 96 96 99 99 99 87 91 85 80 72 66 56 63 95 93 95 92
70 62 74 88 98 97 96 94 95 96 95 97 85 94 88 87 80 80 80 81 85 77 84 66 79 75 86 82 84 88 98 100 86 82 94 97 99 92 87 76 79 67 62 88 87 95 85
68 60 70 70 94 96 96 96 96 95 95 96 80 84 86 84 82 83 82 87 77 85 76 82 83 88 84 83 82 84 98 93 77 71 81 95 98 84 86 88 77 88 85 59 79 76 91
64 61 62 56 88 96 96 96 96 95 93 84 83 80 94 85 85 86 91 87 85 69 70 70 84 76 91 72 87 89 88 74 83 73 63 78 97 81 86 77 89 80 75 84 90 93 90
62 65 61 68 72 72 96 96 96 95 88 72 85 92 92 89 88 90 94 97 79 69 67 61 68 68 78 86 84 81 84 77 76 80 71 72 74 94 82 91 88 96 97 91 79 85 88
61 66 56 68 66 66 79 96 96 94 78 69 86 99 90 88 98 83 97 83 66 60 60 57 56 58 76 81 88 89 89 83 75 79 78 67 79 95 83 81 72 79 77 83 87 87 92
66 64 57 62 64 65 68 70 96 77 66 78 96 97 94 89 96 97 78 72 67 62 60 54 55 53 53 60 66 69 71 60 72 70 77 73 89 98 98 90 85 94 76 78 87 89 94
68 59 67 63 64 69 66 67 86 44 62 82 93 95 96 98 91 96 81 71 63 60 59 51 50 49 52 54 61 71 69 59 63 64 70 61 84 76 86 69 84 93 84 74 80 92 80
62 59 71 64 71 69 64 69 66 37 58 70 94 92 88 98 96 89 80 71 65 67 59 53 52 52 55 60 62 70 70 65 59 67 73 71 87 83 70 63 82 87 86 89 96 87 95
58 72 65 63 76 68 64 64 58 41 36 66 78 84 89 93 90 85 77 74 74 71 62 62 58 57 54 54 56 67 72 68 73 60 71 69 87 78 84 75 80 84 82 88 86 86 87
68 72 63 67 78 75 73 69 64 52 34 67 86 87 89 84 79 84 78 70 80 77 66 66 58 68 60 54 53 50 58 60 57 69 75 74 88 87 81 81 75 84 76 78 82 83 77
70 69 64 72 69 71 72 72 69 60 53 58 86 86 87 84 72 76 57 54 69 72 81 74 73 66 64 69 50 52 60 64 63 64 68 80 78 84 88 79 78 52 51 58 70 64 80
80 71 71 72 68 68 74 73 70 65 67 68 80 79 76 66 76 57 61 73 77 74 80 78 83 80 81 58 66 67 74 61 62 63 69 66 79 94 89 97 67 45 63 69 68 62 59
90 76 76 64 64 70 75 75 72 70 66 70 81 81 83 60 67 73 70 73 91 90 82 80 74 72 67 78 68 79 83 72 73 70 61 64 60 71 91 85 82 52 45 55 57 78 53
94 89 80 63 62 70 71 83 72 69 68 70 88 82 76 87 82 77 81 76 70 72 78 82 85 88 75 79 84 89 84 64 75 68 79 80 82 96 87 92 78 58 53 54 80 63 61
94 96 84 64 65 73 75 75 73 68 68 69 83 78 80 95 85 76 73 76 79 79 86 70 87 92 93 83 79 80 82 70 71 61 74 84 90 95 83 90 91 48 59 69 59 64 66
88 97 87 69 67 73 80 76 78 75 72 69 83 74 82 82 84 84 76 74 77 72 82 78 94 100 99 99 94 93 88 84 77 75 69 77 73 77 78 77 53 46 60 55 67 74 66

GFSGBSN_925_rhum_063.txt.gz
RH
94 94 92 88 83 88 92 84 85 83 80 85 90 93 96 90 84 88 89 87 84 85 88 88 88 81 76 76 79 59 70 85 84 83 86 79 76 75 89 74 81 78 74 58 60 57 62
88 94 93 90 88 85 90 90 90 89 83 78 83 92 95 94 89 87 90 89 86 86 90 89 90 72 81 82 60 58 56 65 76 84 83 90 72 62 76 83 76 72 74 73 70 70 66
66 95 94 92 90 89 83 81 85 87 88 88 76 87 90 95 92 89 90 90 88 90 90 89 88 86 87 78 59 62 61 62 67 76 74 88 80 64 71 89 71 74 80 77 75 75 74
73 80 95 93 90 90 86 88 88 82 86 90 91 83 90 94 97 93 94 92 91 92 89 92 90 82 90 56 69 71 69 68 64 69 77 83 83 68 73 72 71 83 82 88 80 74 75
86 94 96 94 89 91 89 88 90 89 89 82 90 83 87 80 92 94 90 84 93 73 88 79 77 77 82 74 75 75 81 83 70 72 76 86 83 74 69 82 85 82 89 89 93 72 86
93 84 95 96 92 88 89 94 90 88 87 84 79 80 88 90 85 95 94 66 66 63 69 76 84 74 69 80 82 86 75 92 83 80 87 98 90 89 83 84 82 94 90 78 83 86 86
92 77 90 97 95 90 87 91 93 89 88 82 78 80 89 87 91 93 79 54 56 54 65 71 72 72 62 72 86 95 94 96 78 77 88 89 88 88 84 62 67 66 80 75 64 80 81
94 76 82 96 95 93 92 87 92 90 91 86 80 85 92 92 94 94 75 68 60 69 87 63 71 73 69 77 74 81 81 86 81 89 91 96 88 78 66 61 67 67 76 75 58 69 71
96 83 67 90 96 94 93 93 91 91 89 84 83 91 92 89 92 86 67 66 72 77 86 71 73 83 80 81 93 90 83 80 75 94 96 91 78 72 68 67 66 69 72 75 69 64 56
96 84 68 58 96 95 96 94 91 90 90 90 89 92 92 89 87 74 72 62 72 78 88 69 80 75 78 79 87 82 85 84 88 95 94 85 74 74 75 72 62 71 60 60 64 67 80
93 82 63 46 75 90 97 95 92 91 92 92 89 95 95 90 84 81 71 66 75 62 91 66 80 64 70 81 77 84 84 81 95 95 92 97 85 82 76 67 55 65 59 58 63 71 66
90 81 62 56 55 84 97 97 93 91 93 96 96 97 94 94 92 83 71 78 74 80 93 89 80 81 77 84 83 81 86 83 79 89 84 92 82 79 78 72 56 63 63 67 72 70 79
88 78 61 64 64 71 97 97 94 94 94 96 96 99 96 93 89 76 78 77 84 83 63 90 88 71 78 87 86 86 91 93 92 100 100 89 92 84 82 73 62 57 68 89 89 90 83
88 76 61 65 66 55 96 97 95 92 97 97 88 99 93 90 80 77 75 79 84 76 85 70 74 75 85 83 90 91 97 93 88 91 96 95 99 92 85 74 79 64 64 83 88 92 80
91 76 60 60 64 57 75 97 96 96 97 97 87 86 92 89 82 84 81 88 78 85 74 78 86 92 80 85 83 95 99 92 79 72 78 94 98 85 87 88 75 80 77 58 78 78 81
90 75 58 58 58 54 51 84 96 97 96 90 81 85 95 90 89 85 89 87 84 67 74 75 81 75 81 79 85 97 98 76 82 70 63 77 95 84 87 80 84 74 68 81 88 93 86
90 74 53 60 52 53 51 65 96 96 94 84 80 94 94 89 89 88 97 96 78 68 68 64 72 71 79 84 84 84 86 83 76 76 65 70 74 97 79 88 90 90 92 87 74 77 83
89 71 49 57 57 57 57 64 96 95 88 83 88 96 94 90 99 93 99 83 66 63 68 59 57 58 79 78 87 89 87 82 75 70 72 68 81 93 86 83 72 74 80 80 86 86 89
85 66 50 49 62 56 61 65 74 54 64 78 95 91 94 84 93 94 82 77 71 63 62 56 56 54 54 72 71 74 75 62 79 67 76 71 87 96 96 76 78 81 70 76 88 87 96
81 59 48 57 60 60 59 65 60 37 66 81 94 95 99 98 90 90 88 72 64 62 59 52 52 51 53 55 64 73 70 66 70 71 68 63 82 75 82 68 83 97 71 62 70 92 73
78 53 53 60 60 59 59 60 56 35 71 72 93 89 87 99 95 91 85 75 68 68 60 55 53 54 57 64 64 75 72 66 63 72 76 76 87 84 69 64 84 84 84 71 80 77 84
77 46 68 59 57 57 66 60 53 37 51 60 88 92 91 94 89 90 79 82 78 72 65 64 58 60 55 56 57 69 74 71 72 64 76 69 89 78 81 74 78 87 84 90 83 74 73
67 78 60 56 62 65 63 58 53 46 33 70 89 92 86 85 80 86 76 69 77 76 71 68 60 69 62 60 61 54 60 62 63 72 79 76 85 88 85 82 71 70 70 79 83 84 81
63 87 59 60 63 63 64 62 56 50 43 46 79 82 88 85 76 80 57 56 70 72 78 72 74 64 68 73 53 53 64 70 66 71 70 82 78 81 86 72 85 54 51 61 71 65 75
91 90 66 59 62 66 68 70 58 57 53 52 73 69 68 80 71 56 60 75 77 74 80 79 92 83 83 58 68 70 73 62 64 65 70 68 79 93 90 92 66 50 66 67 67 58 60
94 91 64 57 65 69 74 66 65 62 64 62 77 71 67 61 74 74 68 73 86 79 76 79 74 79 75 75 72 86 84 74 76 75 66 64 61 71 89 86 80 46 47 56 55 78 54
88 86 63 55 67 73 79 67 62 64 67 67 78 72 71 90 85 75 80 77 72 74 75 82 67 88 79 81 94 90 85 67 81 82 90 99 96 96 89 91 78 56 50 57 78 61 54
91 89 56 61 68 79 79 65 62 66 70 69 78 75 73 93 86 77 74 78 78 79 76 74 89 95 98 85 83 86 83 75 74 62 72 86 93 96 94 96 88 52 61 73 55 63 66
95 69 57 67 89 84 76 70 68 68 69 73 83 78 76 86 86 84 76 78 78 73 84 83 96 99 100 100 96 91 88 83 76 74 72 78 74 82 78 77 53 47 58 57 62 74 73

GFSGBSN_925_rhum_066.txt.gz
RH
97 96 95 93 90 89 87 91 84 81 88 87 78 84 93 96 91 86 89 90 86 83 88 88 88 66 66 53 53 61 70 74 72 84 93 74 70 48 49 60 63 87 54 44 39 46 42
98 92 96 94 92 90 90 84 88 81 87 87 87 82 91 95 95 89 87 89 87 86 87 89 89 72 61 48 55 68 65 75 82 92 89 77 57 44 41 50 62 59 71 48 47 50 47
92 93 96 95 94 92 90 88 86 81 89 91 88 86 88 93 96 94 90 90 89 89 90 88 88 84 67 40 59 70 65 74 82 81 89 94 72 51 47 56 54 50 63 85 59 52 54
95 95 85 88 93 92 92 92 88 81 88 89 88 87 90 87 94 97 94 92 94 93 91 90 86 78 51 57 69 74 78 68 67 84 88 88 90 56 49 51 56 62 57 74 60 56 55
94 98 92 95 94 91 90 89 89 86 88 91 76 90 91 87 87 96 94 95 93 88 90 83 75 71 65 73 70 78 80 61 68 77 86 82 84 60 61 57 58 57 49 50 70 54 59
99 99 89 83 88 94 91 90 91 88 92 82 78 87 87 85 84 88 93 66 63 66 75 82 76 77 62 81 88 86 84 86 60 65 81 87 82 68 53 52 56 50 43 45 52 62 56
100 99 96 75 84 94 94 93 89 88 91 82 82 80 83 86 87 91 87 56 46 53 60 62 62 67 58 92 87 83 92 89 61 73 87 89 93 70 50 43 32 36 46 49 44 53 59
100 100 96 79 74 92 95 93 92 91 91 84 81 86 86 86 95 94 84 54 56 68 64 58 60 67 65 80 92 86 84 64 78 96 83 95 86 48 50 49 47 46 51 49 50 56 60
99 100 93 79 67 88 96 95 93 88 94 90 82 91 90 87 87 93 72 62 70 76 70 62 64 69 68 75 81 88 73 59 75 91 94 97 71 56 55 52 52 46 47 52 46 64 55
100 100 92 77 62 67 91 97 95 92 89 90 85 90 91 91 90 78 68 63 71 71 86 66 68 75 69 71 90 87 79 71 70 85 94 85 56 61 54 55 42 63 48 50 55 51 50
99 100 91 74 57 48 77 98 96 92 92 91 94 93 94 92 83 72 76 64 74 64 77 66 72 62 64 68 74 80 80 61 73 85 92 95 66 63 65 53 43 55 49 48 51 42 50
100 100 89 72 56 39 78 97 97 92 90 94 95 96 91 93 91 81 70 72 72 88 84 86 66 70 78 68 70 73 73 63 74 74 85 79 66 62 56 55 46 48 47 48 50 48 64
100 100 89 72 54 37 66 89 98 96 91 96 94 98 96 96 82 71 73 66 94 83 64 92 69 61 71 78 78 76 76 82 89 100 100 91 83 74 66 58 50 46 46 68 68 79 56
100 100 89 73 53 36 52 82 98 97 93 95 90 97 95 94 79 76 76 73 83 73 72 68 64 66 83 87 84 91 85 82 76 89 98 97 98 77 81 56 54 49 42 53 64 61 47
100 100 90 73 51 37 48 71 96 98 92 92 92 96 99 86 81 83 72 88 86 82 61 65 70 67 71 76 90 93 96 81 66 60 73 82 93 79 80 70 59 58 64 44 56 55 56
100 100 91 73 45 38 46 55 93 96 90 84 92 87 93 87 87 89 82 84 81 59 67 62 68 63 59 67 85 96 96 73 71 59 52 63 97 84 82 67 64 60 45 66 72 80 60
100 100 92 71 40 39 46 49 81 91 77 82 85 81 96 90 90 87 96 94 69 58 62 62 60 62 63 62 72 77 96 83 67 64 51 51 61 97 74 79 62 64 67 61 52 56 58
100 100 92 66 40 41 48 48 57 80 71 86 83 94 95 90 94 89 86 75 62 61 62 56 52 53 62 65 67 70 83 74 63 53 56 56 61 87 89 71 67 51 53 52 60 68 60
100 99 93 58 40 44 50 50 55 63 68 80 80 81 95 92 84 84 74 70 66 61 57 54 53 51 49 63 68 64 67 60 68 63 57 54 66 88 92 72 61 66 60 54 56 68 83
100 99 89 47 40 47 51 50 53 46 50 79 79 93 97 95 80 81 79 66 63 60 56 48 49 48 49 54 54 66 64 67 68 62 64 53 61 64 60 58 52 69 59 53 59 88 63
100 98 81 43 43 48 49 51 49 37 72 75 71 75 72 92 82 76 77 70 62 65 55 49 51 50 51 61 58 63 63 66 64 73 66 59 84 79 56 61 70 72 62 56 72 67 76
100 99 85 47 51 47 50 50 47 41 77 63 62 71 73 76 76 77 73 68 66 66 59 59 52 51 49 52 51 59 60 60 64 64 75 65 87 71 76 64 65 73 63 61 57 56 59
100 97 70 54 51 56 54 49 45 37 56 59 86 86 62 75 71 72 63 67 71 69 65 60 56 56 57 57 56 47 47 47 50 62 70 79 78 79 79 65 62 64 52 57 59 57 57
99 90 69 60 56 54 51 49 48 41 29 40 73 76 58 60 63 67 54 51 66 67 71 66 68 60 74 65 49 46 48 52 52 58 52 67 70 72 79 72 74 46 39 46 48 45 47
99 97 72 60 55 58 52 52 50 45 45 43 63 50 47 57 53 52 54 63 66 66 72 83 82 70 65 58 55 58 60 58 60 58 56 53 60 76 76 68 48 44 58 53 51 52 46
99 90 95 68 59 59 57 54 52 50 48 45 62 53 39 44 51 53 54 61 60 65 70 69 65 63 68 63 66 73 66 57 67 71 59 52 49 55 68 72 60 46 46 50 49 57 47
97 84 76 94 73 63 60 58 56 56 56 52 72 63 57 59 70 62 50 50 58 54 62 70 58 82 79 70 94 72 61 55 62 68 82 84 78 76 64 63 50 39 38 48 66 65 50
94 78 86 96 96 74 62 61 60 61 58 58 87 71 62 68 76 71 67 63 63 57 61 61 82 89 97 86 69 66 60 54 56 52 62 64 73 75 72 77 72 43 56 63 53 48 53
91 79 93 93 95 80 64 62 65 66 62 60 86 72 64 68 74 83 82 82 78 71 64 65 89 97 100 100 81 67 63 59 56 58 58 59 51 55 56 50 44 45 47 46 52 57 54

GFSGBSN_925_rhum_069.txt.gz
RH
99 99 92 95 93 93 92 88 88 90 89 86 89 90 86 90 96 92 86 88 87 83 84 87 88 83 62 42 35 54 60 82 86 87 92 83 70 57 47 55 85 64 45 41 62 39 33
98 99 93 96 92 94 93 90 90 90 89 90 88 92 85 86 92 97 91 88 87 85 87 87 87 82 57 48 42 55 57 74 82 94 86 89 67 41 34 43 66 63 68 53 75 44 35
99 99 98 96 93 94 94 92 93 90 92 93 89 91 96 82 88 94 97 90 89 90 89 87 88 70 57 43 45 61 62 71 87 81 86 89 93 60 32 41 46 58 68 65 60 77 38
100 100 98 99 97 94 93 93 91 94 92 90 90 92 95 96 81 93 96 96 92 93 92 88 77 62 55 49 52 56 60 63 84 86 87 91 98 67 37 36 53 77 72 89 74 48 42
100 100 100 99 96 94 94 92 92 94 95 95 91 80 89 88 80 88 94 96 94 92 90 88 75 60 52 58 57 70 65 54 79 85 88 90 88 51 49 54 61 66 88 86 70 68 52
100 97 100 98 93 95 94 93 92 91 90 90 88 80 91 80 80 83 91 84 78 67 70 67 61 75 57 71 85 83 69 66 67 91 86 88 78 63 50 49 58 47 54 53 51 70 57
90 98 100 100 92 94 87 94 93 93 90 89 85 82 81 79 82 89 87 63 51 53 52 53 52 55 54 93 88 72 67 66 72 81 95 90 96 78 43 34 25 28 32 32 41 43 51
99 100 100 99 94 86 84 95 94 95 92 90 85 82 84 82 82 95 88 53 54 66 57 46 50 54 67 95 85 72 75 56 66 95 89 92 86 45 32 32 35 26 33 31 35 41 44
90 100 100 100 95 90 77 96 97 96 94 88 88 86 81 82 86 88 70 50 71 66 64 51 55 60 80 79 65 72 65 57 78 96 92 96 68 44 41 42 39 32 34 35 42 44 44
85 100 100 100 96 82 62 89 97 97 96 92 88 91 84 83 89 70 57 63 73 68 84 61 61 61 61 61 74 80 73 68 77 80 72 89 56 53 43 42 33 41 30 34 42 51 50
90 100 100 100 96 75 55 81 95 93 95 86 94 92 85 85 78 59 71 69 72 65 81 62 61 56 54 75 78 65 65 47 59 73 86 91 63 52 48 40 34 44 42 42 46 44 33
83 99 100 100 95 72 51 69 79 81 96 93 94 96 88 87 83 76 74 72 71 93 87 79 57 60 59 56 66 64 59 56 53 62 70 72 65 55 46 44 40 42 43 43 41 37 58
91 100 100 100 93 70 50 54 64 82 94 93 91 98 92 88 70 79 76 63 94 94 61 77 58 58 60 64 70 69 68 65 62 97 100 80 79 62 56 54 45 38 42 61 60 69 54
97 99 100 100 93 69 48 50 54 82 92 87 93 97 91 90 81 81 76 68 95 70 67 55 53 67 92 66 69 72 63 71 69 93 97 100 99 68 66 44 47 47 34 47 54 50 41
100 100 99 100 93 70 47 45 49 73 89 77 96 92 85 88 88 86 66 90 86 67 50 54 58 90 74 74 70 86 74 57 57 76 77 73 93 75 76 61 54 46 59 40 48 39 45
100 100 99 100 94 68 44 45 48 71 88 73 78 74 76 94 91 86 82 82 78 53 52 47 53 57 73 62 70 85 70 57 54 60 45 51 85 74 83 63 53 52 36 56 61 72 42
100 100 99 100 96 66 45 43 48 63 73 74 73 70 86 94 89 89 95 85 62 53 54 57 47 48 47 60 67 68 78 72 51 57 45 47 54 76 67 66 56 58 58 49 45 48 54
100 100 100 100 95 66 45 45 49 60 58 83 65 86 95 96 96 78 74 64 60 55 51 52 47 46 45 49 61 57 83 71 50 48 52 45 67 89 66 57 55 58 48 45 54 59 45
100 100 100 100 95 63 47 45 48 56 68 75 63 79 94 97 82 76 64 61 58 55 49 48 50 46 45 49 60 55 73 58 58 51 49 46 61 92 97 66 54 62 46 48 43 54 81
99 99 100 99 92 69 44 48 49 51 43 82 62 91 93 92 67 66 67 56 60 55 48 43 45 44 46 52 46 59 64 66 60 53 61 48 50 59 59 53 48 62 49 45 53 95 59
100 99 100 99 94 69 45 47 52 48 34 80 58 61 57 91 72 65 64 55 53 60 50 43 46 47 47 52 51 56 58 70 64 69 55 52 75 75 49 56 58 62 54 50 64 57 68
100 100 100 100 94 67 48 46 48 39 53 70 53 56 61 53 58 62 66 56 52 56 48 50 46 43 44 49 48 54 53 58 60 66 61 56 84 68 78 58 58 66 55 50 49 46 48
99 100 100 100 89 77 48 45 49 42 71 51 60 63 48 62 61 62 51 48 51 54 58 49 46 44 48 53 48 42 40 40 43 56 61 65 70 78 83 56 55 61 48 47 50 46 46
100 100 99 100 80 84 54 46 46 41 59 44 50 48 42 46 50 54 53 51 57 59 57 59 52 50 66 53 40 38 40 43 45 50 49 64 69 71 83 65 78 45 34 36 38 38 35
95 98 99 100 90 77 53 52 44 41 61 52 62 49 37 39 41 54 50 50 55 58 64 66 70 59 57 50 50 56 56 55 52 49 50 46 58 73 79 65 41 37 51 48 47 46 42
99 100 100 100 96 74 78 49 45 44 41 51 65 47 32 39 47 42 51 51 54 54 64 65 56 60 58 54 59 63 65 51 63 63 52 48 47 57 58 64 54 43 43 40 42 56 44
100 100 100 99 98 81 61 50 47 48 50 62 70 50 41 48 56 44 45 51 48 49 51 62 61 75 67 64 67 56 56 44 55 57 70 70 63 69 68 63 44 33 34 41 57 68 45
100 100 99 100 97 94 60 54 52 52 51 54 83 60 52 54 68 56 54 47 48 45 51 56 71 75 92 81 67 58 48 45 46 44 56 63 66 69 62 81 69 42 48 56 53 44 48
100 100 99 97 91 84 77 59 56 56 54 62 75 73 62 56 69 66 67 71 69 64 47 62 81 96 96 100 74 56 50 47 42 51 46 52 48 57 46 62 41 41 42 48 49 50 49

GFSGBSN_925_rhum_072.txt.gz
RH
100 99 99 99 97 95 94 92 92 92 92 91 91 88 96 82 84 88 97 89 85 82 82 84 84 88 78 48 41 51 54 77 89 85 70 77 77 76 81 58 74 81 69 61 64 44 39
94 99 100 100 98 97 96 91 93 94 95 93 90 91 94 91 80 86 94 97 87 85 85 86 85 86 65 61 38 51 54 64 78 86 75 86 73 62 62 46 72 76 86 64 76 62 55
89 96 100 100 99 95 96 91 94 94 94 93 91 91 94 86 76 83 89 95 95 88 88 89 86 78 58 52 40 54 52 68 82 86 82 93 92 94 58 47 62 71 93 93 81 73 79
86 93 100 99 99 97 93 89 95 94 94 95 94 94 90 88 76 80 89 94 95 95 91 90 86 70 62 53 41 54 53 58 77 91 79 88 93 91 80 40 62 85 90 92 91 78 63
81 90 100 98 99 98 92 93 89 94 92 89 89 89 82 93 82 81 86 94 94 96 87 90 82 69 59 55 60 69 62 54 78 88 71 79 89 81 58 66 73 90 98 86 72 75 81
78 90 94 100 100 99 94 87 91 95 94 91 86 85 82 78 79 86 85 80 68 85 67 69 61 69 61 74 86 78 72 63 74 82 81 78 94 90 69 62 84 97 77 81 69 70 83
89 87 98 100 100 100 97 81 81 96 95 94 91 85 80 80 86 87 86 73 64 64 54 53 50 53 68 99 88 76 64 62 82 85 96 88 97 94 67 51 39 81 70 71 63 51 67
99 92 93 100 100 100 98 82 68 97 96 95 90 84 82 87 87 82 86 64 61 65 65 42 46 61 67 75 75 66 66 64 81 98 90 96 90 58 42 41 36 33 50 62 65 54 51
96 100 93 97 100 100 99 83 71 95 97 97 93 91 84 85 83 83 78 51 67 60 72 51 53 60 72 68 61 70 66 67 81 88 96 93 82 50 53 40 40 39 39 68 72 75 57
93 96 99 96 100 100 100 82 72 70 97 95 84 90 90 84 93 70 57 58 68 64 98 63 59 59 64 55 76 67 81 68 84 92 80 87 67 55 70 54 35 43 30 37 47 60 70
89 89 100 99 98 100 100 81 71 62 91 92 93 91 92 88 91 60 71 65 66 68 94 58 57 51 53 62 69 71 60 62 75 78 71 91 74 68 50 39 36 50 41 42 50 54 46
88 93 98 100 97 100 100 83 69 61 78 87 87 82 89 88 84 74 69 67 73 95 89 79 54 60 58 55 60 64 58 54 52 63 84 80 64 80 87 46 41 43 47 47 47 50 80
88 94 97 98 98 99 100 80 64 54 80 85 70 93 89 82 79 76 71 70 98 93 61 74 58 51 53 59 63 63 60 68 73 92 99 84 80 66 62 55 44 44 53 85 85 88 78
99 99 99 98 100 99 100 76 64 56 83 75 82 93 86 82 79 77 76 83 88 69 65 47 51 62 69 55 59 65 57 70 69 77 91 98 96 74 63 55 57 51 50 76 64 79 67
99 100 96 96 100 99 100 89 66 64 75 63 92 87 84 87 83 82 81 82 95 66 46 51 54 69 67 65 67 74 77 57 62 75 76 97 93 70 70 64 60 57 72 45 63 38 75
94 98 99 89 100 100 100 97 89 72 68 66 90 81 79 89 88 81 93 79 77 50 43 45 65 64 62 64 64 81 67 54 58 60 52 56 94 73 73 64 55 62 43 65 84 78 48
98 99 98 99 100 100 100 96 85 78 61 74 81 81 90 92 87 87 84 73 58 48 51 54 50 52 52 61 58 72 64 66 49 59 48 47 62 85 74 76 66 64 60 54 55 60 83
86 73 100 87 100 100 100 94 92 82 54 83 70 95 92 82 96 84 78 62 58 53 50 52 49 49 45 53 60 56 71 67 49 51 54 51 69 74 70 57 58 63 53 50 76 74 65
92 96 99 88 99 100 99 92 91 85 62 80 74 92 92 92 83 76 63 60 56 55 53 49 49 47 45 50 60 62 65 58 50 52 52 47 77 96 86 63 57 69 59 54 48 70 81
95 99 100 87 100 100 98 93 88 74 63 74 72 96 96 94 75 72 63 52 63 55 49 42 45 44 47 51 45 60 70 63 58 53 60 55 59 72 90 64 58 70 58 52 64 99 77
98 99 99 98 100 100 98 97 88 57 75 87 72 81 67 90 78 66 59 50 51 62 54 44 48 50 48 58 54 57 61 71 66 68 58 61 80 74 52 57 62 62 59 55 64 68 78
85 100 100 99 100 100 98 96 90 58 63 91 69 69 66 58 56 66 59 60 47 51 50 52 51 46 44 67 55 60 62 62 72 68 66 61 94 72 84 57 58 67 62 58 56 54 56
92 99 99 99 100 100 98 94 90 67 76 74 58 58 61 62 62 66 61 52 48 55 56 45 42 44 49 63 50 46 45 42 48 70 72 70 80 89 87 58 58 74 61 59 57 52 51
96 99 98 100 100 100 98 95 86 53 55 47 49 53 64 67 62 62 47 52 53 56 59 55 50 50 67 52 43 41 41 43 50 51 48 70 76 89 95 74 91 54 36 41 46 44 46
94 98 100 99 100 100 97 97 79 46 57 52 51 58 52 54 53 54 52 54 58 64 64 63 68 60 56 54 56 63 64 58 54 50 52 53 88 98 97 91 58 45 51 50 50 50 42
94 96 90 97 100 98 99 90 90 58 73 41 52 45 50 51 59 46 53 57 65 67 71 71 57 61 59 63 63 67 80 58 72 68 51 50 53 72 74 82 66 60 47 40 42 74 50
98 96 98 73 100 96 96 91 78 74 90 51 52 36 55 64 64 60 58 62 51 53 66 69 69 75 69 73 82 74 74 47 72 67 78 74 70 84 82 79 68 47 43 42 67 86 56
94 100 100 100 100 96 98 83 79 95 84 50 56 58 58 70 74 60 58 54 53 51 69 63 81 78 85 82 74 67 63 56 47 55 64 68 84 83 78 90 89 44 47 58 64 60 59
91 99 100 100 98 100 92 96 79 59 60 55 68 63 51 72 75 65 66 64 67 63 63 73 84 88 96 95 89 75 61 54 51 64 48 66 59 76 60 71 52 48 64 56 52 54 52

GFSGBSN_925_rhum_075.txt.gz
RH
81 84 96 99 100 95 90 81 89 96 93 91 93 90 91 93 76 86 86 92 97 84 79 84 86 86 84 75 54 55 54 66 67 64 82 77 85 82 83 78 80 90 76 75 74 82 57
73 79 82 96 100 96 92 88 85 91 96 92 93 92 95 94 79 77 83 86 93 94 85 86 88 87 88 89 44 48 54 64 71 76 79 82 92 87 84 72 76 80 80 79 87 86 74
84 77 81 89 100 100 96 92 86 81 97 93 93 96 95 95 95 87 84 86 93 94 95 88 90 84 78 76 45 51 51 56 72 69 79 92 90 93 89 70 67 76 81 80 88 79 84
100 88 85 88 99 100 98 94 87 76 95 93 90 92 93 95 87 87 83 87 92 94 94 93 89 86 74 52 43 56 58 69 76 71 88 85 73 91 89 75 75 89 84 94 90 86 84
99 99 95 87 93 100 100 97 92 79 94 94 92 92 96 82 88 85 86 88 96 95 95 90 90 82 74 55 67 67 69 63 77 82 81 70 82 85 77 89 90 85 100 96 88 91 90
98 99 98 99 96 100 99 99 96 78 91 96 96 96 95 87 86 85 88 89 75 95 66 80 77 79 67 80 91 84 67 68 73 80 90 92 90 86 89 90 95 95 94 88 95 88 84
87 98 97 98 100 99 100 100 100 83 92 97 97 96 89 81 84 87 86 79 73 75 64 65 58 60 81 85 85 77 72 66 74 83 91 88 96 95 88 75 61 74 74 77 74 84 81
82 82 83 93 95 100 100 100 100 90 87 97 96 97 93 86 89 84 82 90 69 66 79 53 53 70 75 75 72 69 67 76 84 98 89 92 99 78 66 65 65 73 90 87 76 68 73
87 83 88 81 93 93 100 100 100 93 83 97 94 91 97 83 84 79 78 73 62 63 84 58 57 63 67 82 70 74 68 74 89 91 88 84 79 67 73 69 65 70 74 85 81 76 73
87 91 88 85 85 93 99 99 100 95 76 86 85 88 96 81 88 76 69 62 55 66 88 71 71 64 67 64 79 70 75 79 86 97 86 90 71 65 72 77 50 51 52 61 78 82 83
87 92 92 86 86 91 95 99 100 96 82 78 83 95 88 87 85 74 71 61 61 73 96 60 63 52 59 66 72 66 66 73 82 87 88 97 82 74 75 67 48 55 49 64 69 75 59
89 95 98 91 78 98 92 99 100 98 80 80 84 86 85 85 81 75 67 64 73 89 85 74 63 67 63 64 77 62 70 63 62 75 82 90 76 77 74 56 47 50 48 57 63 58 80
94 92 85 94 82 99 83 99 100 99 76 83 82 76 89 79 83 74 67 78 95 89 63 75 70 58 59 64 66 64 69 72 82 92 97 88 81 72 64 60 51 51 60 87 84 86 78
92 91 92 84 94 100 89 97 100 99 74 90 74 88 85 81 77 71 77 90 85 76 78 49 51 64 68 57 60 64 70 77 70 78 96 85 96 88 77 72 63 53 52 78 81 89 72
83 95 90 94 91 100 88 96 100 95 75 88 91 92 86 83 78 78 91 94 73 77 48 52 60 62 79 69 68 71 70 73 68 78 86 83 94 69 74 75 64 58 78 48 67 51 82
76 79 83 96 83 100 94 97 100 92 73 78 94 89 84 83 78 84 92 81 88 57 46 49 72 60 72 79 76 75 61 58 65 67 58 75 91 73 74 67 58 60 48 66 85 71 52
74 78 82 89 87 89 97 98 100 95 74 82 89 94 91 82 82 92 84 79 57 52 59 56 72 70 63 69 67 64 62 66 58 62 50 53 72 89 69 73 68 66 64 61 63 75 86
72 79 79 95 83 98 99 84 100 99 69 99 87 99 94 82 94 95 77 70 56 58 53 58 53 53 57 61 71 63 75 68 53 54 57 60 74 92 72 60 59 66 63 55 81 72 76
72 76 79 86 78 96 82 96 99 99 62 94 95 98 97 94 98 84 64 65 64 65 62 58 55 49 48 59 71 69 73 62 53 54 58 55 84 93 92 68 62 70 65 61 57 74 82
73 74 75 87 85 99 94 100 98 99 64 88 87 99 99 98 92 78 74 70 77 58 55 45 48 47 50 53 50 72 69 66 61 62 58 54 72 74 83 73 71 79 66 62 72 92 75
71 75 75 91 88 100 93 100 98 88 70 98 86 90 81 98 86 79 67 57 70 76 59 47 50 53 55 61 65 65 64 76 69 63 61 69 87 73 58 61 66 66 64 67 80 70 77
74 75 76 92 95 100 99 100 100 80 82 100 87 85 76 83 74 77 75 66 48 63 62 60 56 53 54 70 63 73 65 63 79 72 71 69 96 73 76 60 60 69 66 65 64 60 69
77 78 76 93 100 99 99 99 97 77 98 97 69 62 68 76 86 86 78 66 54 65 59 52 50 54 70 61 51 48 49 58 66 79 80 78 83 89 91 66 62 74 66 67 65 57 57
76 75 84 91 100 100 100 100 98 86 88 60 54 65 72 81 79 75 60 62 63 63 70 70 66 67 69 57 50 46 51 60 62 65 60 79 79 93 97 76 94 60 38 45 59 54 55
78 77 88 91 99 100 99 100 98 96 80 57 54 58 61 77 71 66 61 70 71 74 73 81 73 68 64 58 66 70 72 62 61 58 60 69 92 100 94 96 67 48 48 46 43 54 50
78 78 84 92 98 98 98 98 98 93 87 86 58 47 56 65 66 63 64 67 84 86 80 78 65 67 63 72 72 76 86 73 82 70 57 57 65 92 91 88 80 56 49 43 46 84 64
80 83 85 95 98 97 84 97 98 88 92 61 50 45 58 74 74 67 68 70 60 75 90 79 78 78 72 85 86 82 84 60 87 79 85 80 75 94 92 91 73 49 46 44 60 63 65
82 83 94 98 100 94 90 100 99 87 97 62 56 59 59 86 84 75 75 73 63 74 87 73 78 81 87 81 82 78 78 64 63 67 79 84 87 90 87 96 92 44 47 55 66 64 62
82 83 94 96 99 100 98 100 91 82 99 69 62 61 55 81 80 70 72 69 72 73 81 88 83 92 96 95 91 87 71 65 62 84 56 74 68 78 74 76 57 69 66 58 59 61 60

GFSGBSN_925_rhum_078.txt.gz
RH
99 97 90 80 82 94 100 100 96 91 97 96 93 94 93 96 93 91 80 80 86 93 94 84 86 90 82 86 74 55 51 60 67 73 72 82 85 85 82 84 80 81 81 67 77 78 83
97 98 98 98 94 88 99 100 97 93 94 97 95 91 96 97 95 89 90 78 86 89 94 94 86 92 88 94 50 49 53 53 69 71 77 84 95 91 83 82 85 77 86 83 84 80 85
99 99 99 99 95 97 96 100 100 98 93 97 96 94 93 93 96 86 88 84 86 87 95 94 92 90 84 83 50 55 53 60 71 68 77 90 85 89 90 79 79 76 89 85 86 90 84
93 95 99 98 98 99 99 99 100 100 96 98 96 94 92 94 92 91 84 87 89 90 94 94 93 91 93 57 52 56 61 70 74 74 77 84 75 90 95 86 86 79 83 92 89 88 82
85 90 93 95 98 94 97 100 100 99 100 99 94 97 95 90 96 94 91 89 92 93 95 95 92 90 82 60 75 74 65 75 82 74 82 79 79 85 82 90 95 89 100 96 86 90 87
81 80 87 88 82 93 96 99 100 100 100 99 97 98 90 87 92 88 90 92 74 95 79 85 85 90 70 78 82 84 73 71 73 80 86 85 93 88 92 99 88 97 94 90 94 85 94
84 82 80 85 87 82 91 93 100 100 100 98 97 91 94 88 95 90 92 79 69 77 68 73 64 68 73 74 80 78 71 70 73 88 91 86 92 92 80 88 76 67 78 78 81 80 86
72 75 85 82 88 92 86 86 99 98 100 99 91 93 93 89 90 90 87 89 67 63 69 60 60 70 74 73 74 68 71 82 85 91 89 91 91 76 75 76 76 63 75 90 85 81 91
76 77 87 93 88 93 94 83 93 86 100 99 90 99 86 77 82 81 82 76 65 63 84 64 58 63 71 86 70 70 82 87 89 83 89 84 88 79 84 89 73 72 81 90 81 84 84
79 81 82 88 95 90 95 85 92 91 100 99 93 97 80 69 83 83 79 67 60 64 90 72 70 64 74 74 74 70 85 91 88 88 87 90 86 88 88 90 70 78 66 69 86 96 96
83 82 84 87 92 92 94 95 93 91 99 100 92 95 82 82 86 78 66 64 62 67 83 55 62 56 62 71 66 63 84 90 86 85 90 97 94 85 83 87 62 62 60 69 74 85 78
79 79 87 89 91 91 94 90 87 95 99 100 90 97 79 91 85 78 68 63 72 86 85 74 63 67 75 74 80 62 75 78 70 83 84 90 74 74 76 70 54 55 73 76 72 66 87
82 81 75 83 82 87 94 74 95 94 100 99 91 90 82 78 82 74 66 76 90 88 58 81 78 69 66 67 68 69 70 78 83 97 99 87 86 78 73 61 56 65 78 98 98 93 78
68 81 77 80 82 93 84 72 83 99 100 98 94 80 88 84 79 69 77 87 92 71 80 54 58 62 70 66 60 65 72 77 72 80 95 94 95 89 78 77 73 68 56 75 74 87 68
68 70 75 77 84 88 96 82 90 93 100 93 88 99 89 84 75 77 89 95 81 76 63 58 64 76 75 71 68 69 71 71 68 76 84 88 90 73 75 74 65 59 73 50 65 65 73
70 71 72 75 79 83 88 84 89 95 99 90 97 95 90 83 78 82 94 85 83 66 53 53 78 65 80 82 70 70 61 64 62 69 66 76 89 75 74 62 57 57 50 64 82 70 62
64 70 69 70 75 80 88 87 98 100 99 92 95 96 95 83 79 93 90 85 71 54 55 61 70 67 70 81 70 64 62 65 60 64 51 64 76 81 68 77 72 65 65 65 66 74 78
64 66 68 70 77 78 88 89 99 98 95 99 96 98 97 84 97 92 81 67 59 62 56 56 58 58 65 70 67 64 64 66 57 54 61 64 82 98 78 64 62 67 61 62 77 71 80
63 64 67 72 75 80 85 92 100 96 90 93 98 99 98 87 96 97 70 63 64 67 66 65 60 52 52 65 72 70 71 63 56 60 58 60 81 96 82 68 61 70 67 60 66 76 81
76 73 72 74 75 81 92 94 98 100 87 95 99 100 100 99 93 86 75 65 77 60 61 54 51 49 54 58 61 76 73 68 64 62 63 58 75 71 85 72 72 79 70 68 71 89 78
81 85 79 77 78 80 95 97 97 100 87 99 98 95 86 96 96 91 76 69 78 76 58 49 52 55 56 65 67 75 66 77 68 64 64 69 85 75 62 62 69 69 66 71 80 69 73
81 83 82 78 80 84 91 100 98 100 94 97 97 93 81 86 78 91 82 77 78 70 64 61 58 56 58 68 64 81 70 71 75 72 70 74 96 72 75 63 64 68 66 70 72 66 70
82 86 83 83 81 95 96 100 100 96 99 99 94 73 70 80 86 87 88 73 58 66 61 55 54 68 68 62 55 61 58 60 71 80 82 78 84 86 88 73 63 74 66 67 69 64 61
81 84 86 84 80 93 99 97 100 87 100 94 88 71 74 92 80 81 72 64 58 64 73 75 59 68 67 57 48 52 61 70 71 71 66 82 80 92 92 76 93 58 41 50 63 58 57
78 87 87 86 83 95 99 99 98 96 99 81 70 68 68 92 78 76 65 72 76 78 84 81 74 72 66 56 72 89 88 65 66 66 65 74 92 98 91 96 71 60 46 45 48 69 70
82 87 87 84 87 97 99 99 91 99 96 98 96 61 62 74 76 72 74 77 88 89 87 80 74 72 68 74 74 88 96 77 86 73 62 80 83 86 99 96 88 52 50 45 50 81 73
86 87 85 85 91 98 100 83 92 96 94 100 70 66 60 77 89 82 78 76 80 85 92 82 82 76 70 87 86 83 86 70 90 87 82 80 91 98 93 94 77 54 48 43 57 58 70
86 90 87 84 90 99 100 89 90 96 98 94 60 68 60 90 85 77 76 69 69 84 88 81 78 78 88 80 82 84 80 73 76 71 83 85 91 95 90 97 95 48 55 51 58 66 61
85 88 87 85 95 100 97 100 94 100 90 68 62 60 58 82 86 76 75 72 71 72 87 90 80 91 89 94 88 88 75 72 76 85 66 75 71 79 78 79 63 64 61 60 65 65 62

GFSGBSN_925_rhum_081.txt.gz
RH
99 100 100 99 97 94 98 99 100 100 100 98 100 96 93 94 98 95 94 92 87 85 87 94 90 88 78 89 84 55 54 52 60 76 78 78 83 82 91 85 88 88 73 68 82 82 81
92 95 98 100 100 99 88 95 98 100 100 98 98 98 93 95 94 95 94 90 88 87 90 96 96 92 87 92 52 54 53 57 60 73 75 81 79 82 81 89 83 74 75 68 83 86 86
86 83 87 93 98 99 100 84 90 90 100 99 100 98 95 95 94 96 94 84 90 93 81 94 94 94 88 81 52 54 57 64 67 73 78 80 88 94 82 85 82 72 80 72 79 86 85
82 86 81 80 90 94 92 92 81 85 100 100 99 97 96 93 96 94 96 92 87 88 89 92 96 84 91 60 65 67 66 66 76 79 78 75 88 93 94 87 93 78 84 95 92 81 86
81 75 78 82 82 85 90 91 91 87 91 90 100 99 96 92 96 96 92 93 91 91 92 94 92 89 82 63 68 67 69 73 71 81 77 82 82 87 93 92 96 80 98 99 95 80 83
74 74 83 89 86 85 84 91 94 91 97 80 100 99 96 94 93 96 92 94 74 96 90 92 87 93 79 75 74 79 78 74 73 78 84 91 90 89 89 93 91 96 98 100 93 94 86
70 77 82 88 87 88 84 88 95 95 99 85 98 99 94 93 86 96 89 79 70 80 72 72 67 72 66 73 75 76 71 72 72 82 91 83 93 98 88 92 88 81 72 99 92 84 87
72 72 88 88 84 88 91 86 91 94 87 86 98 100 96 93 87 97 89 84 64 60 63 62 64 66 73 73 66 72 75 77 86 92 86 87 88 74 76 81 93 79 84 96 92 83 84
75 74 80 84 89 90 87 91 89 92 90 92 100 100 99 93 87 94 82 74 66 64 79 68 61 66 73 77 72 77 81 84 91 84 88 86 94 72 77 84 94 71 74 85 82 86 85
81 73 76 74 72 81 82 86 92 92 86 92 100 100 96 87 92 86 82 68 61 62 88 67 71 66 79 80 79 76 81 86 84 79 80 94 85 84 87 87 88 88 66 69 82 90 100
73 79 76 78 78 76 81 87 90 92 73 76 94 100 96 83 90 84 63 64 59 60 87 48 68 59 68 73 66 82 90 91 88 89 83 97 90 92 98 92 71 76 68 78 84 97 98
65 68 70 71 76 75 82 83 92 91 84 69 99 100 94 95 97 77 65 62 68 85 83 78 68 73 77 75 77 70 86 89 75 83 87 90 82 83 84 76 70 63 78 88 86 92 98
65 61 66 66 71 73 77 80 84 88 81 68 99 99 96 83 84 74 64 72 87 93 61 79 81 73 71 70 68 72 72 83 89 97 99 87 84 77 76 76 70 74 81 98 97 94 95
64 62 64 70 73 70 72 76 79 90 82 93 79 98 92 87 82 72 73 79 93 68 84 58 66 68 70 70 61 66 74 77 77 80 93 98 95 88 77 82 91 82 76 87 90 86 68
65 62 64 64 67 70 72 73 79 94 75 67 100 99 95 90 84 69 77 94 77 77 65 70 66 74 76 72 73 68 72 73 69 74 77 92 97 74 77 73 66 93 86 50 65 62 77
62 61 60 62 62 66 72 74 77 90 88 99 97 99 97 90 77 78 89 83 81 65 56 62 78 69 79 79 75 73 69 67 64 70 65 72 92 79 75 67 67 55 49 66 80 73 62
65 68 69 68 66 69 70 76 80 93 92 97 99 98 90 89 83 93 96 88 71 63 53 61 74 76 72 81 71 68 68 65 61 66 58 67 75 78 68 82 84 66 64 69 68 74 72
59 68 79 87 78 81 79 80 84 91 87 99 98 100 100 92 98 96 96 74 59 65 59 56 61 64 75 76 70 66 71 63 61 56 67 66 82 99 83 67 64 69 64 62 74 68 83
62 69 83 85 82 85 87 86 84 94 91 98 98 97 100 98 99 98 70 70 66 70 67 64 61 59 57 68 67 68 70 66 60 63 62 58 83 93 79 66 62 71 68 64 69 75 80
66 72 82 89 81 86 86 89 93 93 97 100 97 100 100 99 93 82 80 76 80 67 65 59 56 51 59 64 62 68 78 72 64 63 66 60 76 69 86 64 71 78 73 69 70 87 75
71 81 85 87 77 83 86 91 95 94 99 100 97 99 92 99 98 93 74 70 61 82 60 54 54 55 70 83 69 69 74 72 70 64 69 66 83 78 67 66 73 72 70 78 79 69 71
76 82 85 80 86 82 87 93 92 98 99 99 97 98 96 95 79 94 89 81 70 73 64 62 65 58 57 73 68 80 67 70 70 72 70 76 95 72 79 70 67 66 65 70 75 71 68
83 83 83 86 87 87 91 93 99 98 100 94 99 99 93 90 84 88 88 77 68 68 65 58 57 68 65 62 59 64 61 64 67 76 80 75 86 85 86 76 66 71 64 66 72 69 70
86 83 85 84 82 90 91 99 98 97 98 94 100 93 95 93 85 81 78 77 69 64 76 76 62 65 59 53 56 60 68 68 72 73 72 80 80 89 94 77 90 56 45 52 64 61 59
85 84 83 85 88 91 98 96 99 98 97 89 89 84 81 95 84 76 75 73 77 85 86 81 77 75 66 68 91 86 89 76 66 68 70 72 87 97 94 96 70 57 49 48 56 64 72
86 88 85 85 92 88 94 98 100 84 98 83 86 68 74 82 87 81 79 77 84 90 87 87 78 74 65 75 81 92 96 81 87 73 71 83 80 85 95 95 86 55 49 47 48 68 72
90 87 88 87 91 89 92 99 100 92 94 82 78 68 69 88 91 88 84 78 78 84 95 88 81 73 67 85 85 82 87 72 93 92 89 86 90 95 94 96 80 57 51 41 60 53 74
90 88 84 90 92 91 93 100 99 98 84 79 72 63 66 89 89 84 80 70 80 82 88 83 77 75 85 79 79 85 81 82 80 76 82 81 74 81 89 96 85 52 54 53 52 70 70
90 84 87 93 93 78 99 98 95 100 96 78 60 64 62 86 87 79 76 73 74 72 90 89 76 85 85 92 86 88 79 76 80 84 74 80 75 84 81 76 62 63 59 63 63 67 62

GFSGBSN_925_rhum_084.txt.gz
RH
88 89 91 88 90 97 98 99 100 98 90 88 100 99 99 96 96 97 94 94 91 89 86 87 98 93 86 89 79 45 62 54 57 70 81 83 86 84 88 83 76 89 80 67 62 57 69
82 81 81 84 88 88 94 96 97 98 96 98 99 100 98 95 92 93 96 95 89 86 83 87 97 94 85 96 55 56 57 56 60 67 76 80 78 74 88 84 77 84 74 76 64 66 81
77 80 80 80 79 86 90 86 95 96 100 98 95 98 98 96 92 90 96 94 90 88 84 89 94 91 89 83 52 55 58 62 67 73 83 71 81 89 80 82 68 76 87 74 76 74 84
74 77 83 83 85 86 78 82 83 94 97 99 97 90 100 97 90 88 95 95 91 90 88 89 91 88 93 60 62 63 66 66 76 77 84 76 81 88 95 84 92 92 88 90 80 83 80
74 79 83 85 88 92 84 87 81 83 89 96 94 84 100 95 89 84 94 95 90 91 92 90 90 89 89 65 68 71 73 74 70 67 82 82 86 88 80 94 90 86 100 87 80 81 75
70 80 84 86 89 88 87 86 87 84 87 94 95 94 99 99 89 94 92 93 95 98 93 92 84 95 79 74 72 74 79 77 74 73 82 89 93 95 96 98 96 99 100 93 92 88 78
76 83 79 87 87 83 84 85 84 86 86 91 90 98 100 99 92 88 91 83 80 93 87 81 72 73 67 73 70 74 71 74 72 85 94 80 96 100 100 88 88 81 90 99 86 86 90
77 80 81 84 84 87 84 88 86 88 85 94 74 83 100 98 84 79 97 96 67 59 64 68 67 72 69 71 69 73 72 81 82 93 80 87 92 81 84 87 89 89 88 98 93 84 84
70 69 72 73 73 74 78 78 91 86 91 90 92 92 100 94 85 85 93 81 68 66 75 67 67 68 72 76 70 82 74 81 90 88 85 90 83 78 77 84 93 86 83 91 88 86 88
60 68 72 64 74 74 69 70 78 82 84 92 83 86 99 92 85 88 88 64 68 66 87 66 73 67 82 78 81 68 80 83 90 82 78 90 81 79 84 84 90 97 69 78 87 83 100
66 63 64 64 61 71 71 72 73 76 82 87 81 83 97 88 87 92 67 66 64 60 88 49 75 62 75 75 65 81 88 96 91 85 82 95 88 90 80 80 86 88 73 80 77 94 95
70 72 66 66 65 64 68 69 74 76 80 86 86 95 98 96 86 82 66 63 70 84 81 81 71 76 81 78 78 82 94 94 85 83 84 89 80 84 90 82 75 70 78 85 87 96 98
71 73 70 69 66 64 63 67 72 72 80 88 93 93 98 99 85 77 70 72 90 93 59 80 85 76 73 71 68 73 75 84 97 99 99 98 92 81 78 84 72 78 86 99 97 96 97
67 67 65 63 67 66 63 63 68 69 81 82 85 95 81 96 86 82 73 80 93 62 80 61 73 70 73 71 62 68 74 80 74 77 95 95 97 93 81 85 92 88 84 90 89 88 93
68 62 68 69 76 75 80 74 71 74 79 86 95 100 98 86 96 77 88 98 75 74 70 74 68 73 77 73 73 67 75 74 72 76 77 94 100 78 83 73 76 87 91 57 69 64 81
78 74 68 67 77 85 84 83 80 79 83 93 99 99 95 73 98 86 99 84 74 61 64 62 73 68 83 78 76 73 70 68 69 73 65 71 94 80 76 73 78 78 55 68 81 73 61
73 76 72 69 76 84 87 89 85 84 86 97 97 98 98 91 97 96 98 90 71 66 57 60 75 80 67 80 71 70 74 66 64 66 64 66 76 74 68 90 85 67 67 67 70 76 73
64 67 68 69 80 88 90 90 90 86 92 92 95 100 100 100 99 99 99 73 60 68 63 60 65 69 74 78 71 67 72 67 67 57 74 68 83 98 85 69 67 72 64 59 70 70 84
65 71 70 77 85 88 90 84 88 92 96 98 99 98 100 96 100 100 85 70 68 72 68 63 65 59 61 70 68 69 74 70 61 64 65 60 83 93 79 66 63 73 72 70 70 74 80
66 70 77 83 84 89 89 90 89 92 93 98 99 99 96 98 95 97 100 93 80 68 68 60 58 58 62 64 65 72 82 76 64 68 66 60 77 69 84 65 72 79 75 66 68 85 77
66 71 82 81 86 88 89 90 93 96 95 98 98 100 94 99 99 100 99 77 83 82 63 53 57 58 71 74 73 76 81 77 71 68 72 66 84 80 75 74 73 72 73 77 80 69 68
65 75 85 88 81 88 87 88 96 94 98 98 99 99 96 100 91 100 92 80 71 73 67 64 66 64 65 74 68 79 72 70 68 72 75 76 96 73 84 74 70 66 67 75 77 74 66
68 79 89 82 86 86 89 95 90 99 98 98 97 95 95 98 100 98 87 81 70 66 67 58 63 69 64 62 59 64 67 75 73 74 81 76 85 85 88 79 69 71 68 70 70 71 73
74 87 87 85 87 87 92 91 94 94 99 100 99 91 97 100 98 86 78 80 67 64 73 74 63 63 59 64 62 63 68 68 74 79 70 76 81 88 92 77 80 54 49 56 65 64 68
84 85 85 87 88 90 90 93 96 98 99 98 95 91 93 98 83 76 81 80 83 84 84 79 81 76 64 74 78 78 90 72 70 74 78 67 84 97 93 96 66 58 58 56 59 50 69
84 83 85 86 88 90 86 92 91 98 89 85 81 74 75 87 89 92 81 78 86 91 90 93 79 72 63 75 78 89 95 82 88 76 80 76 70 80 81 93 81 52 50 48 47 62 72
81 84 88 89 91 94 94 94 92 100 95 73 71 64 65 92 91 91 86 79 76 85 96 90 77 69 63 84 86 82 87 73 92 88 93 88 88 89 91 96 82 59 50 42 60 51 72
84 87 90 89 96 93 93 100 95 97 88 67 73 63 63 95 89 86 82 76 77 81 88 85 76 71 80 80 80 83 84 85 81 76 87 86 87 81 90 93 88 53 55 56 53 74 73
86 86 91 91 93 82 95 92 99 90 83 64 59 60 62 86 86 79 78 75 74 74 89 87 76 81 82 91 86 88 81 82 81 83 74 79 72 82 80 75 61 64 60 65 70 71 62

GFSGBSN_925_rhum_087.txt.gz
RH
82 82 84 84 81 88 88 87 85 88 98 100 98 99 98 100 99 88 86 74 96 92 85 92 87 95 86 85 78 52 59 61 60 63 78 82 86 81 94 78 71 76 58 76 79 57 52
82 85 84 79 82 84 85 84 90 86 93 99 99 96 88 100 100 91 80 82 98 93 89 90 90 98 86 97 59 53 59 58 60 68 74 81 77 70 87 89 93 70 63 62 60 68 60
83 84 79 82 86 88 87 87 90 83 88 86 96 99 94 84 100 94 80 97 92 92 90 91 88 94 91 79 61 54 58 57 63 68 79 73 75 82 87 87 65 65 72 74 73 71 73
71 79 77 79 85 84 80 89 84 85 85 89 84 97 96 87 100 95 88 89 96 89 82 85 82 92 93 63 60 63 69 68 73 77 79 74 81 82 91 82 79 79 89 98 74 72 76
76 80 80 82 84 86 85 82 84 84 85 83 91 92 98 99 99 97 84 96 95 94 91 85 91 87 87 66 73 70 74 76 72 68 75 82 84 82 87 94 84 82 89 99 87 77 85
72 82 80 81 80 78 84 85 78 84 89 89 88 94 76 92 100 92 89 83 86 93 92 94 86 90 78 74 71 70 76 80 80 75 80 92 92 95 96 98 93 91 96 86 85 84 79
66 75 82 81 78 81 75 81 84 87 86 88 92 95 79 99 100 90 79 87 87 95 92 81 79 80 67 73 70 73 70 78 75 82 91 89 97 100 100 92 94 78 88 95 80 82 81
69 67 61 69 71 66 74 76 77 82 86 82 84 94 90 100 100 88 82 90 68 56 73 79 73 76 68 70 66 71 76 82 83 86 82 91 97 79 91 88 85 78 82 92 91 83 79
74 75 72 68 65 65 61 68 65 72 82 78 85 93 95 92 99 92 94 82 70 63 74 68 70 69 73 74 69 78 72 72 80 91 87 97 76 79 84 96 81 82 83 93 88 82 83
70 70 71 75 71 70 70 65 64 68 70 74 83 87 92 86 99 85 94 68 75 59 89 72 81 71 85 76 84 65 75 79 89 88 76 92 74 78 86 95 83 81 70 75 84 80 89
72 69 69 75 71 63 62 62 65 63 71 73 79 85 94 87 87 95 77 73 62 60 87 63 82 66 81 77 65 86 80 93 82 86 88 91 85 80 74 80 88 86 73 77 78 89 86
77 74 70 61 70 70 75 81 84 74 67 71 78 86 96 85 98 95 79 65 63 86 91 79 83 88 91 85 79 90 93 94 88 86 90 90 81 82 83 76 80 68 73 76 81 86 90
81 76 80 73 74 63 78 84 85 80 71 75 84 86 97 97 93 88 79 70 95 93 63 84 90 83 75 74 70 78 80 92 99 98 100 100 97 90 82 90 81 70 83 99 91 93 94
79 71 79 81 77 74 76 84 85 86 80 85 93 95 92 85 79 91 84 97 97 66 80 63 79 80 76 70 63 69 71 94 94 98 95 96 99 96 83 86 94 86 83 86 89 92 91
80 70 67 78 72 74 81 83 86 87 85 90 90 90 98 96 86 92 94 98 83 76 70 78 70 76 79 74 70 66 77 76 72 79 79 98 100 83 82 78 79 80 85 59 68 65 73
80 68 65 74 70 76 84 84 87 89 89 93 98 93 96 99 87 94 100 90 77 66 65 62 71 68 83 80 73 70 71 67 71 74 66 73 96 82 82 73 72 73 65 68 80 71 71
82 66 65 70 76 84 86 87 89 86 91 96 87 99 99 100 93 97 99 89 67 64 62 57 71 75 73 81 69 71 74 65 69 68 64 65 76 84 80 91 86 74 70 65 68 74 68
80 65 66 71 82 87 90 90 92 90 92 98 98 100 96 99 99 100 99 74 62 70 65 62 64 72 71 78 70 69 74 70 73 64 73 71 83 96 87 71 68 77 72 59 68 69 78
72 65 66 72 82 90 90 92 92 93 96 99 98 99 98 90 99 100 93 87 74 80 71 64 68 62 65 72 70 70 76 71 64 68 66 58 82 92 75 64 62 73 72 67 67 69 78
67 67 70 71 86 91 92 94 90 92 97 94 99 99 99 96 96 97 100 100 98 69 70 61 64 59 62 68 69 80 83 78 66 74 67 61 76 69 79 66 73 76 76 68 65 77 68
67 67 70 82 88 88 92 93 95 96 95 86 99 99 98 100 100 100 93 98 100 84 66 57 60 61 66 76 76 83 84 76 71 72 74 66 86 84 82 78 74 74 74 75 76 63 59
68 70 73 88 90 89 94 95 91 94 97 98 100 98 93 100 97 100 99 100 84 75 67 62 68 70 64 68 69 81 77 70 68 72 75 75 96 73 83 73 69 67 70 76 77 71 67
70 73 82 88 88 90 92 94 96 94 97 98 96 94 95 99 100 100 99 80 73 60 65 60 65 68 64 62 61 66 70 77 74 73 80 76 84 85 88 78 71 66 61 73 73 72 72
72 78 87 87 84 90 93 96 95 96 97 100 91 97 96 97 100 98 85 77 75 68 68 74 63 61 62 67 68 66 71 74 78 83 68 76 81 86 91 73 75 52 51 56 63 63 70
76 84 84 83 87 93 96 84 94 87 91 100 98 98 95 100 97 82 78 77 81 78 87 84 87 78 66 66 77 78 85 69 73 84 79 64 79 95 91 93 61 54 56 51 51 47 64
80 83 82 84 92 91 95 91 91 92 97 92 88 79 78 86 89 91 80 74 87 92 89 91 77 71 60 78 77 86 95 80 86 77 75 68 66 77 86 90 72 51 49 46 45 57 68
87 84 83 88 94 95 94 97 96 98 95 81 70 72 69 93 93 89 87 87 78 88 95 86 74 67 62 86 81 79 87 75 88 88 96 89 81 88 81 80 80 60 50 45 57 45 72
92 86 85 91 94 95 100 100 80 98 90 75 66 64 66 95 89 86 80 84 82 83 85 83 82 75 82 98 84 83 83 84 82 76 89 86 87 90 85 94 82 56 57 57 52 74 72
89 85 86 89 88 91 94 92 75 91 79 59 59 60 63 86 84 77 78 77 78 74 89 86 78 79 80 91 85 87 82 87 81 80 76 84 71 75 75 72 56 60 56 62 70 74 69

GFSGBSN_925_rhum_090.txt.gz
RH
83 80 82 83 86 88 85 89 91 88 88 86 87 95 99 99 92 100 94 84 75 96 93 88 92 91 87 71 61 52 53 59 70 66 55 50 58 57 72 57 58 69 56 45 37 34 36
83 81 84 80 82 84 79 81 88 86 83 88 85 81 96 100 94 99 97 87 80 97 92 91 92 88 84 92 55 57 53 60 59 64 56 55 52 52 70 74 89 58 56 51 41 45 45
84 84 86 79 81 87 86 86 83 84 86 86 86 86 87 99 99 98 100 93 94 96 92 89 87 90 86 74 61 56 54 59 60 62 56 55 54 64 61 75 70 80 92 59 48 46 64
76 76 82 79 79 79 78 82 84 79 85 90 92 87 94 95 82 82 100 92 91 92 83 83 92 87 73 68 66 62 62 67 72 71 70 65 65 69 71 74 84 90 71 78 59 63 66
78 69 74 77 79 81 78 80 82 76 89 84 83 83 91 95 93 97 99 89 93 92 88 86 90 70 75 69 69 68 73 67 67 69 72 68 81 73 81 100 95 98 74 72 72 64 64
82 77 76 71 70 76 73 79 83 82 86 84 78 85 93 95 78 100 96 90 89 96 96 92 84 81 68 59 68 70 73 76 69 64 66 74 86 91 94 100 71 77 65 74 64 59 68
81 79 81 83 82 75 74 73 71 74 78 86 76 84 84 95 99 100 94 94 90 93 78 65 63 65 54 72 69 70 69 70 66 69 80 78 93 93 86 88 64 80 55 95 59 61 67
82 81 75 81 77 81 76 73 70 66 67 71 77 76 84 90 96 99 86 82 70 56 67 65 62 65 64 67 63 60 72 73 76 74 68 80 88 59 84 92 80 86 58 73 72 68 62
80 82 79 74 75 69 73 66 69 76 70 66 68 73 82 87 95 99 95 86 72 64 56 58 65 66 58 64 62 64 68 67 69 70 74 98 61 83 91 95 82 73 54 73 86 80 70
80 80 79 82 80 72 72 69 82 85 87 80 71 72 83 83 81 96 91 70 77 68 80 67 75 67 75 65 72 62 67 68 75 77 63 90 58 71 90 92 80 74 58 62 73 77 75
79 79 78 79 79 83 80 68 84 84 88 84 76 76 84 86 95 91 89 76 77 66 92 70 78 69 68 69 65 79 73 76 74 67 76 70 68 67 71 66 76 70 65 72 67 70 64
85 82 78 72 73 80 84 79 84 83 85 86 82 83 91 84 90 85 96 90 72 95 84 81 80 83 83 74 68 91 92 90 82 91 81 85 82 85 92 82 84 61 64 63 67 65 79
90 88 80 74 64 75 77 83 82 84 86 89 89 92 94 88 78 85 97 84 99 92 58 89 80 75 68 70 70 78 80 94 98 99 100 98 96 88 90 93 67 61 62 83 75 79 89
96 93 82 72 68 74 80 83 85 86 89 92 94 89 89 92 85 93 97 100 95 62 58 62 69 68 64 60 58 62 70 99 95 100 100 100 99 95 78 84 84 68 68 70 71 70 80
95 91 87 69 68 77 84 85 87 88 92 91 90 94 97 93 94 98 97 98 87 60 59 73 66 62 64 66 58 61 69 68 64 69 80 87 99 86 76 68 69 68 66 53 56 52 52
99 90 86 67 69 80 83 86 88 91 93 93 98 95 98 94 98 94 100 95 69 61 63 62 58 54 58 60 59 61 63 62 65 60 58 62 93 84 72 64 63 59 52 61 58 60 63
89 89 76 66 74 78 82 87 91 90 93 90 100 99 100 99 93 98 96 100 78 61 66 60 58 57 53 60 56 56 63 63 62 57 50 52 56 87 70 75 75 61 54 48 48 51 46
88 94 66 72 77 85 87 93 93 92 94 91 99 100 93 96 98 100 81 82 74 81 62 64 54 53 51 57 56 58 61 62 60 55 58 58 58 84 73 60 58 62 60 48 46 54 52
98 72 68 73 82 90 93 93 92 94 94 94 97 100 97 86 100 100 94 94 94 84 78 62 62 55 56 52 56 61 66 64 58 60 57 50 63 77 63 52 53 60 54 51 46 48 64
89 69 72 75 84 94 94 94 94 96 91 85 90 100 98 96 94 77 100 100 99 79 82 58 58 50 51 58 56 69 69 66 63 62 67 46 57 60 56 64 65 63 60 53 50 69 38
77 70 74 80 89 90 93 93 93 96 90 92 88 98 98 99 99 98 92 100 99 95 69 53 59 52 50 61 62 69 68 63 58 62 57 48 77 78 64 61 62 64 62 58 64 50 49
74 74 79 85 89 90 92 94 95 96 88 92 99 96 86 96 91 98 99 100 99 77 65 63 61 54 48 52 53 63 61 56 58 53 57 55 82 67 73 56 54 59 59 62 61 53 51
75 78 83 88 84 90 94 96 94 96 92 98 95 90 93 98 100 100 98 84 68 69 59 57 57 52 55 57 50 49 51 53 55 55 58 59 66 72 73 59 53 51 52 58 60 60 53
77 80 85 79 85 93 95 87 84 90 94 98 92 91 94 82 88 88 87 75 68 69 64 64 57 53 58 53 48 48 50 54 53 58 50 57 62 71 76 58 63 50 45 49 52 49 53
80 87 82 85 88 94 96 96 96 97 98 98 99 96 94 99 95 93 76 71 64 67 78 78 75 66 54 55 56 59 58 52 61 70 58 48 58 76 72 61 50 48 50 48 48 40 46
84 90 86 86 90 95 95 97 96 98 98 90 90 91 80 71 77 80 75 66 72 83 74 78 65 59 57 55 57 69 64 66 65 68 65 57 51 56 70 71 54 43 44 39 42 41 51
88 90 86 88 94 95 97 99 97 92 98 90 84 76 65 68 76 79 75 71 75 88 83 72 66 65 59 67 64 60 67 65 64 64 69 68 67 66 59 62 51 42 46 43 47 38 57
90 91 88 91 96 96 95 92 79 89 86 70 68 64 64 70 75 76 71 75 71 76 68 72 73 67 81 92 66 61 56 62 64 62 73 64 61 61 53 66 69 46 50 47 41 53 57
92 94 92 94 88 93 81 79 76 86 81 64 63 63 65 65 70 77 77 77 78 72 77 71 70 71 67 77 66 61 59 65 59 55 64 69 51 50 51 46 45 48 48 48 49 51 58

GFSGBSN_925_rhum_093.txt.gz
RH
85 82 85 81 85 86 85 87 86 82 81 86 84 88 84 88 92 99 92 100 96 96 96 87 89 88 77 65 51 49 54 59 64 61 46 42 46 43 48 38 36 51 48 41 38 38 36
81 81 83 83 82 81 74 74 84 83 81 89 85 89 86 90 88 93 93 100 100 96 94 90 90 87 70 80 48 49 50 53 50 54 46 45 48 37 47 56 57 46 55 58 49 43 38
85 80 77 80 76 79 82 78 77 79 74 86 83 81 88 85 92 92 95 98 98 96 96 92 92 82 73 60 50 52 53 50 50 51 48 46 46 48 40 51 40 56 87 75 63 49 46
80 83 80 78 75 72 74 75 73 81 82 86 84 79 78 82 86 96 85 96 100 93 89 93 90 78 71 54 56 56 55 54 57 56 54 51 53 50 52 45 61 66 66 92 49 46 41
80 80 80 77 83 77 81 79 78 74 73 78 82 81 77 82 87 86 75 99 98 92 85 88 80 73 59 64 59 53 54 51 53 62 60 55 58 64 68 86 95 90 87 71 51 52 48
81 81 82 80 79 80 84 84 78 80 73 70 76 77 75 79 86 98 100 99 88 91 91 80 82 77 55 53 54 60 57 60 55 55 59 61 72 86 90 100 86 84 83 60 54 49 64
85 81 80 85 76 79 73 72 74 66 76 82 77 68 68 76 85 98 99 97 85 96 89 70 64 56 50 61 63 57 57 61 56 61 67 67 96 96 74 69 74 68 69 70 52 46 62
83 81 81 82 86 86 80 77 73 72 83 84 85 81 71 74 82 90 100 93 83 72 72 62 51 53 53 56 57 54 58 63 70 80 64 78 85 48 72 86 92 77 65 57 84 60 68
86 86 79 80 83 80 76 85 81 77 84 83 90 90 76 74 80 92 99 95 88 78 72 49 57 56 55 58 52 56 59 60 68 65 60 75 59 61 78 90 96 69 61 78 81 66 60
92 91 87 86 82 76 69 79 88 86 82 86 90 90 79 83 63 69 72 90 95 78 95 65 68 59 62 54 62 54 55 57 63 72 56 58 47 57 85 93 84 76 48 73 68 81 78
99 98 94 98 90 79 69 74 85 84 85 87 92 89 88 89 74 72 92 90 86 63 95 64 70 61 58 62 66 72 62 62 74 60 63 77 63 59 64 76 64 70 47 86 81 69 96
100 100 99 90 88 73 75 85 84 86 88 91 92 94 93 69 70 70 81 98 70 99 92 81 74 81 75 64 59 85 86 80 81 90 84 73 76 86 70 69 67 58 70 74 73 68 94
100 100 100 92 91 78 83 84 84 86 88 92 94 93 87 80 73 83 96 93 100 97 55 82 75 69 59 68 65 73 90 98 97 100 98 93 97 92 90 96 71 78 72 92 98 89 77
100 97 91 82 83 86 83 83 85 87 92 94 95 95 91 83 81 82 94 100 98 65 58 54 57 58 61 55 52 59 63 99 95 98 100 100 97 97 82 82 91 87 65 87 87 78 62
98 89 77 91 82 76 75 80 85 91 93 94 90 91 97 91 86 89 98 100 99 63 54 59 57 58 59 53 54 61 93 88 79 89 95 96 99 84 70 60 64 56 60 46 55 42 49
94 86 86 75 78 76 84 88 90 91 93 84 96 98 99 98 93 89 100 100 72 63 52 48 54 44 50 51 58 66 69 55 57 49 49 56 89 76 61 57 56 57 45 61 57 76 60
98 95 71 72 78 84 91 92 91 91 93 92 91 99 98 92 86 95 93 100 81 68 56 55 47 45 39 47 49 50 54 57 51 48 43 47 53 70 65 62 63 53 48 40 41 45 48
96 77 71 76 79 90 92 92 90 92 96 86 91 100 100 83 99 100 96 83 88 82 58 60 48 42 40 43 46 50 56 56 49 47 50 47 53 73 62 49 47 51 45 39 49 44 44
90 75 74 77 86 90 91 92 92 93 97 97 99 100 92 94 86 97 75 81 92 78 72 65 50 46 43 43 50 52 56 56 49 52 51 42 53 70 57 50 45 48 43 40 37 43 50
81 74 77 82 89 90 93 95 95 95 96 80 70 100 96 94 79 67 76 88 100 72 78 60 51 39 40 43 42 57 59 57 55 52 65 46 51 63 66 68 59 57 48 37 47 68 40
78 78 80 85 87 88 93 95 95 95 78 76 72 98 94 99 90 69 70 96 85 97 73 50 51 42 40 46 45 57 53 52 48 52 46 42 67 73 52 50 51 52 50 42 53 34 47
76 81 84 86 81 89 95 88 81 74 81 87 91 96 85 88 70 84 96 94 96 82 58 56 53 42 39 45 45 47 46 41 47 43 46 45 70 62 59 48 47 52 48 46 45 39 38
77 83 87 82 87 91 93 91 86 87 84 78 97 92 93 94 92 91 73 80 83 62 52 52 54 41 50 55 42 41 39 41 45 46 47 50 60 71 65 51 47 45 46 48 51 47 41
81 86 90 87 89 92 96 95 96 93 90 88 93 92 86 84 86 84 77 72 60 63 58 56 54 49 55 41 37 37 38 40 42 42 40 47 53 64 70 63 71 47 39 43 45 42 44
83 89 91 87 90 94 97 98 94 94 98 97 90 90 93 85 77 79 66 64 55 56 66 67 64 50 47 49 46 50 48 44 48 48 45 41 46 63 69 47 40 43 42 42 43 39 38
85 90 91 90 91 89 92 99 99 86 94 98 93 92 71 75 65 66 61 53 61 67 62 64 57 48 52 46 46 56 54 55 54 54 45 42 40 49 54 63 42 41 39 34 36 39 41
87 91 94 93 94 93 100 99 91 87 95 92 93 83 64 59 60 66 60 64 71 74 74 61 68 60 52 54 52 49 55 55 53 54 56 56 53 59 51 56 42 39 42 37 40 51 47
87 93 94 94 95 99 95 76 78 81 89 77 77 69 66 56 64 64 62 65 65 65 62 61 62 61 67 68 56 48 44 49 51 50 56 53 52 53 47 57 58 39 43 42 40 45 46
90 97 92 88 91 96 94 81 79 76 72 59 62 63 68 60 66 70 69 71 72 68 66 62 64 60 58 67 54 49 48 50 46 45 54 58 46 44 44 43 39 37 42 41 40 40 47

GFSGBSN_925_rhum_096.txt.gz
RH
86 84 78 79 81 77 81 80 80 76 77 76 82 83 82 80 83 84 88 94 99 100 99 95 88 90 79 67 57 62 73 73 74 59 50 41 46 47 54 43 40 46 42 40 38 39 40
86 87 86 87 80 80 72 76 75 73 77 79 81 82 82 79 78 82 86 95 96 100 99 96 91 88 74 76 46 56 51 51 51 57 49 42 43 41 49 48 54 48 50 47 48 49 50
85 84 85 85 84 82 81 81 84 82 76 74 73 76 81 80 77 76 83 91 93 98 98 96 92 87 71 62 46 48 47 47 47 47 47 42 40 51 46 52 39 53 74 64 60 57 61
85 84 86 83 84 76 84 84 87 85 80 77 70 72 76 73 75 78 89 99 89 99 98 90 93 81 71 54 57 51 50 50 52 51 48 46 48 52 54 51 55 62 80 90 54 54 52
84 86 81 78 86 80 80 81 80 74 74 73 78 80 80 74 72 79 88 90 97 98 95 92 85 75 71 59 55 51 51 49 47 55 54 52 50 62 58 84 91 89 93 78 64 51 49
88 86 82 80 81 84 90 86 83 74 73 76 82 83 86 82 74 77 84 99 98 88 95 88 84 86 61 57 52 53 52 50 50 54 66 64 67 75 74 89 92 70 98 87 79 46 57
93 91 89 89 87 84 87 75 78 85 80 84 80 85 89 88 78 76 89 83 94 94 98 83 77 55 51 58 57 54 54 56 51 56 74 66 88 93 82 76 75 73 80 80 60 48 78
100 99 99 99 93 98 92 75 74 81 89 86 83 88 90 89 80 77 93 86 90 99 86 69 67 52 48 55 62 54 54 62 66 73 59 78 97 68 63 73 90 87 86 76 61 73 78
96 96 99 100 99 92 89 86 77 87 88 87 86 89 89 86 80 76 66 89 94 88 86 55 65 56 55 55 53 62 56 60 74 70 61 76 59 62 76 81 93 92 83 72 91 76 66
94 98 99 100 93 87 93 93 87 87 87 88 90 92 91 88 61 62 66 86 90 98 100 79 67 57 51 57 61 50 55 56 57 63 59 68 54 53 90 85 85 92 54 55 80 81 99
100 100 99 95 82 86 92 93 90 87 89 91 94 92 92 92 84 68 62 67 92 92 97 77 66 50 54 64 64 70 54 57 67 71 78 75 75 90 77 62 73 70 76 82 78 96 100
90 98 76 65 90 88 95 91 86 87 90 92 94 93 94 75 71 66 77 76 90 100 98 98 79 82 72 63 64 69 75 70 79 87 81 79 69 82 72 73 70 62 70 77 78 97 99
82 83 81 84 91 94 77 75 84 86 90 93 95 96 96 88 76 72 79 93 100 97 84 86 79 70 61 65 67 75 89 97 93 99 100 93 94 87 83 94 72 76 95 99 98 100 98
95 93 92 91 79 75 80 87 89 89 92 94 93 95 95 85 84 83 88 100 96 98 84 56 60 60 96 62 69 60 83 100 95 98 99 100 100 98 79 81 92 90 94 99 96 97 96
100 89 73 74 76 82 86 87 86 89 84 95 90 94 97 88 83 85 98 96 98 88 69 61 56 71 81 53 57 69 89 99 90 86 98 100 99 84 84 61 66 74 80 49 76 59 83
92 76 74 76 80 86 88 87 86 91 93 89 91 93 99 92 84 84 100 99 99 86 60 48 56 55 61 54 89 93 95 56 86 60 62 63 99 68 58 62 60 66 49 74 84 96 91
88 75 77 78 86 90 90 90 90 92 89 77 82 94 96 79 76 90 99 100 95 67 57 59 50 44 44 54 73 70 58 57 50 49 46 49 75 83 69 65 65 61 59 47 48 56 86
86 75 78 83 89 91 91 92 93 94 86 76 87 96 83 94 96 94 100 96 90 80 57 58 52 43 44 44 51 56 66 65 50 50 51 50 58 84 61 51 46 53 48 48 76 66 67
85 78 82 86 89 82 92 94 95 94 95 94 98 98 84 96 91 89 65 75 79 81 74 65 48 42 38 43 56 51 59 55 53 56 60 54 65 89 67 56 48 50 45 46 41 64 57
81 82 85 88 84 88 88 92 92 90 78 85 80 99 84 92 80 65 69 80 96 69 77 57 44 36 37 44 45 57 59 56 53 53 67 59 62 77 91 73 62 63 52 45 62 76 61
79 85 86 87 86 92 93 92 73 69 78 79 72 95 84 93 85 70 75 81 76 90 65 54 45 38 41 44 51 57 52 53 46 44 49 52 74 74 54 49 52 53 53 49 52 43 68
78 87 90 89 88 91 92 95 87 77 79 79 90 94 80 86 77 69 81 87 82 64 59 60 49 42 48 56 48 52 46 48 54 43 46 47 79 65 56 50 49 56 53 54 56 42 46
75 88 92 91 89 89 89 94 92 89 79 74 90 88 97 86 82 85 83 78 68 59 51 53 54 51 62 60 45 41 41 44 46 52 52 55 68 82 74 58 50 60 54 54 52 54 50
69 90 92 91 92 83 78 92 97 92 89 83 88 89 94 84 76 74 68 68 58 63 63 61 60 55 58 50 45 36 41 43 46 48 44 51 60 78 92 74 82 56 41 43 47 48 47
40 90 93 94 95 95 87 90 95 93 90 95 93 92 95 73 60 69 62 62 54 58 66 68 64 55 52 58 54 52 52 49 50 50 50 49 55 81 90 78 47 48 45 44 47 50 44
30 85 94 95 97 98 94 95 86 92 84 96 90 90 76 85 73 62 59 57 57 59 64 64 55 53 58 62 53 62 75 56 55 52 43 45 44 62 68 76 54 49 42 34 38 65 48
24 87 94 95 98 93 78 79 86 87 88 86 92 82 71 77 67 67 70 77 67 76 76 62 66 67 55 71 63 62 70 54 61 54 60 61 60 69 62 71 54 44 42 39 51 68 50
21 73 96 94 96 97 79 83 84 87 79 80 76 68 76 73 70 64 62 74 71 74 71 66 70 70 72 77 68 57 57 58 59 52 56 60 62 67 57 65 70 40 45 50 51 49 51
49 74 88 79 97 96 90 84 77 71 66 64 64 61 66 72 76 67 67 68 71 72 82 69 68 68 77 88 67 60 61 57 53 59 56 68 59 65 55 62 45 38 48 43 46 50 50

GFSGBSN_925_rhum_099.txt.gz
RH
87 87 84 85 86 85 85 87 78 83 81 78 74 74 76 80 80 78 73 78 83 93 96 100 96 92 80 86 74 65 71 75 76 72 68 53 54 58 69 54 55 62 53 46 46 48 45
88 85 86 84 87 88 80 83 84 87 86 82 77 75 73 76 76 75 76 81 92 97 93 100 93 84 82 84 54 68 65 70 70 62 55 50 49 46 55 53 58 55 54 54 51 52 50
91 88 84 86 78 81 88 79 82 88 85 76 74 78 79 78 77 72 76 83 88 99 78 100 92 91 77 67 53 54 51 52 53 59 59 46 44 48 57 65 53 55 70 61 58 54 61
96 94 92 88 85 81 82 90 87 90 82 75 73 77 81 84 82 76 75 83 75 95 91 95 95 92 86 59 54 48 48 48 48 49 50 48 47 52 60 58 68 75 82 95 60 57 62
99 99 100 100 97 94 91 92 90 87 84 82 84 78 82 88 85 82 78 86 93 96 100 95 92 92 80 58 59 53 50 52 52 51 49 50 53 66 61 84 82 83 98 94 70 53 60
96 100 98 96 86 98 99 99 94 76 84 88 87 82 85 89 88 81 79 68 99 99 95 98 86 89 66 65 56 52 52 50 53 62 67 69 77 81 72 83 90 85 97 88 79 69 65
99 100 100 99 99 99 86 86 94 90 89 87 88 85 87 88 85 82 85 68 91 99 95 81 79 65 62 59 54 56 53 54 53 64 76 76 90 95 80 75 72 81 80 84 74 61 64
99 81 88 100 99 93 86 97 83 88 88 87 86 87 89 92 84 81 82 91 93 97 96 81 77 64 60 56 68 60 56 72 62 81 70 93 96 69 68 72 77 82 96 88 74 60 72
94 98 100 98 79 80 99 96 96 93 90 90 91 94 93 90 72 59 73 92 85 97 97 85 83 63 62 56 64 70 62 65 74 76 76 85 65 60 70 81 96 88 86 89 87 64 78
89 94 87 85 87 86 89 94 94 91 91 93 93 93 93 72 64 64 84 76 85 96 100 98 94 74 59 60 70 55 56 60 69 67 65 70 58 62 63 75 87 94 61 78 79 94 98
98 81 86 87 90 88 86 81 86 87 89 88 83 95 95 68 74 81 82 84 84 91 96 92 78 53 60 71 70 74 57 63 75 65 79 83 78 84 91 76 71 80 70 77 90 99 100
98 85 81 79 79 78 87 88 90 92 93 95 96 95 88 72 71 82 75 87 88 98 97 99 80 79 78 67 78 71 74 70 80 91 77 86 71 78 80 75 76 69 74 78 85 96 99
90 77 75 75 74 84 86 85 88 90 94 96 94 81 88 90 77 74 73 88 96 97 97 94 96 72 65 74 84 76 86 94 96 97 99 93 91 85 80 92 77 85 93 98 98 99 98
88 77 78 76 83 84 86 86 90 96 94 95 89 80 82 84 76 84 82 96 96 100 96 65 68 70 96 67 74 73 90 98 95 95 99 100 95 97 88 91 88 88 95 99 96 97 98
87 77 81 80 84 86 87 90 92 87 84 94 81 88 94 87 80 83 94 98 99 100 83 65 72 98 95 68 66 81 97 99 92 82 99 100 98 80 85 77 68 81 99 81 100 100 97
89 78 82 84 84 86 88 92 90 90 83 67 85 84 96 85 78 82 93 99 100 79 68 57 70 70 74 74 96 98 98 85 89 77 77 88 100 81 69 68 62 72 60 83 94 96 97
89 80 84 86 88 91 94 94 91 92 72 71 81 95 78 83 82 92 98 99 90 70 69 65 66 58 62 85 95 92 76 64 57 58 66 78 94 74 72 65 68 69 68 57 56 73 88
88 82 85 86 89 92 94 99 93 96 76 82 88 97 76 90 96 98 94 88 79 83 69 68 56 52 49 52 62 69 79 72 58 54 62 55 68 89 64 53 51 57 62 55 75 68 76
87 82 86 87 90 84 86 88 96 95 97 91 94 98 72 96 97 95 71 75 79 88 83 76 55 45 39 45 69 61 68 57 59 58 58 54 71 92 76 60 55 62 56 51 51 68 80
81 81 89 89 91 91 86 87 78 78 77 78 86 92 90 94 84 79 79 82 88 73 84 70 57 39 41 60 58 63 64 56 55 52 56 60 69 76 91 70 69 68 60 55 64 81 81
68 79 91 92 92 95 81 82 89 68 73 74 89 92 86 96 87 86 81 84 90 88 72 67 51 56 50 68 58 60 55 54 49 48 48 56 76 75 56 54 54 62 65 64 62 59 70
68 66 92 93 92 95 92 81 85 75 70 71 88 87 86 90 85 89 86 90 79 67 67 71 72 65 64 72 65 66 57 62 62 54 52 59 78 72 63 58 56 62 60 64 65 55 60
72 48 91 93 95 96 96 88 85 84 75 77 84 88 94 86 88 88 86 77 74 69 60 67 68 68 74 72 69 61 50 52 50 53 60 61 76 87 80 62 59 61 59 60 61 60 52
75 43 91 94 96 96 97 100 95 87 88 78 85 95 96 82 69 79 75 70 71 68 76 70 70 68 61 60 57 44 47 51 53 56 54 60 69 87 89 73 75 59 43 46 55 54 58
76 30 85 96 95 100 100 93 96 81 89 86 88 96 97 69 59 74 67 68 66 64 69 74 67 60 65 64 64 61 64 54 53 52 53 54 67 83 86 90 54 50 46 46 49 52 53
76 27 69 90 83 96 90 80 88 80 86 86 87 86 87 90 76 70 74 67 68 85 79 68 59 58 64 76 66 64 80 63 63 55 46 50 56 74 74 76 55 50 43 38 40 64 52
74 41 66 66 95 93 89 90 80 80 88 81 75 76 78 85 79 73 82 86 77 83 87 75 71 70 65 86 75 70 77 55 70 62 67 70 69 76 76 76 65 45 45 40 56 55 51
68 41 66 66 95 92 87 84 80 80 79 79 66 61 69 89 80 67 65 79 80 85 87 77 72 73 82 80 78 73 68 65 64 55 59 70 71 76 69 74 70 46 46 55 52 54 55
64 41 66 61 95 90 84 76 80 67 63 66 63 62 66 81 79 66 66 67 70 72 85 87 78 80 82 93 81 76 69 69 65 67 59 63 66 66 64 65 50 44 48 46 54 61 54

GFSGBSN_925_rhum_102.txt.gz
RH
94 95 95 92 89 87 86 87 86 85 87 86 84 76 81 78 75 79 73 74 78 89 94 99 100 100 91 84 78 67 72 70 65 55 61 61 56 59 66 62 56 66 59 54 52 53 53
94 94 95 98 100 100 96 86 91 86 91 88 82 75 78 76 81 80 76 74 76 84 91 84 98 89 90 87 55 71 73 76 68 68 67 51 53 53 58 57 58 55 58 60 58 55 54
92 93 94 98 100 99 98 100 98 91 96 90 79 76 78 81 84 82 82 78 79 89 96 94 100 90 88 78 62 73 75 70 72 60 59 52 48 49 58 67 58 64 77 68 58 55 59
97 99 96 93 98 100 95 99 100 98 97 91 86 85 79 86 84 86 84 79 82 87 90 98 99 78 90 78 77 61 52 55 56 57 52 48 48 54 61 56 65 78 80 97 64 61 61
95 92 91 98 90 89 95 98 98 90 92 90 82 88 85 86 86 87 84 83 64 89 95 100 93 74 90 76 61 52 49 51 49 50 48 51 52 62 64 79 78 77 89 92 80 59 61
90 90 89 96 90 91 98 99 97 91 94 87 86 89 86 90 91 87 86 84 82 95 100 90 94 82 86 79 62 52 50 49 57 62 64 69 73 85 80 82 95 85 88 86 92 65 68
92 78 76 82 87 89 94 97 96 90 95 92 92 91 91 91 81 87 76 68 88 91 97 81 82 77 74 62 55 57 53 52 52 62 67 77 87 88 80 76 69 79 83 82 73 61 74
83 77 80 87 86 82 84 89 91 91 92 92 94 94 94 72 68 78 69 89 92 93 94 89 81 69 61 55 71 63 52 68 69 81 67 86 89 70 68 72 72 75 88 90 74 66 73
83 80 77 79 78 82 85 86 87 85 88 90 92 94 82 64 78 71 81 88 85 100 98 88 84 68 63 56 71 75 64 68 71 78 78 86 70 64 69 76 84 83 96 84 88 78 77
76 72 72 76 73 85 88 89 88 88 91 92 93 94 92 64 58 80 84 91 84 96 100 100 96 83 60 61 74 58 58 64 75 80 73 86 70 71 71 77 86 96 74 72 80 95 95
76 77 77 72 78 84 88 90 92 95 81 76 79 74 71 67 74 82 84 88 88 96 96 98 94 69 60 70 73 74 58 65 76 62 74 76 80 83 92 86 64 90 65 84 81 90 100
78 80 76 80 82 85 91 94 93 92 94 95 80 83 78 72 72 80 76 93 93 97 97 98 84 85 78 75 76 75 73 67 79 89 80 83 70 80 78 75 78 70 80 79 81 94 98
82 83 77 84 78 84 91 96 96 91 96 90 90 96 88 85 77 79 79 92 93 95 92 97 94 80 73 92 82 76 86 88 92 99 98 92 90 83 79 93 78 87 96 96 98 99 96
84 85 82 81 85 91 92 89 96 89 95 95 92 91 95 92 84 83 82 91 92 86 90 87 72 76 82 74 79 79 95 98 89 95 99 97 98 97 86 90 90 87 96 99 96 97 98
85 86 85 83 90 93 92 88 95 88 76 75 74 80 89 88 86 84 90 90 98 89 80 85 94 88 88 74 88 88 89 99 87 85 96 100 97 82 84 80 74 90 100 93 100 100 99
88 88 86 84 92 96 96 94 91 83 65 66 71 82 74 77 85 86 92 98 98 76 76 68 80 77 88 92 98 98 98 88 83 75 74 93 99 82 72 82 76 80 76 99 98 96 97
91 87 88 88 93 96 97 95 95 66 64 63 71 88 64 76 80 91 97 96 82 79 75 63 64 63 82 92 87 96 85 66 62 71 83 86 89 65 67 67 65 74 94 90 75 90 97
94 84 90 89 94 96 97 96 90 72 63 66 85 93 59 75 90 95 95 85 75 84 74 74 58 50 55 77 80 76 76 74 59 56 84 71 77 93 65 51 54 58 65 67 86 81 83
96 82 93 92 92 95 98 94 65 68 70 78 91 98 65 88 95 97 78 73 80 83 86 81 65 48 42 49 73 68 68 57 59 58 54 55 74 92 71 50 54 67 58 57 55 68 87
84 81 94 95 95 92 97 99 72 67 64 70 90 94 90 90 86 84 84 91 85 71 83 73 70 46 52 67 63 65 64 56 57 53 55 59 71 76 86 72 69 74 64 60 64 87 91
80 75 93 95 96 96 90 89 93 70 64 63 91 93 86 97 90 91 83 87 86 82 71 68 66 70 57 70 62 69 59 58 50 58 52 57 76 76 62 61 56 63 69 66 71 63 83
84 62 86 95 96 97 99 93 90 74 68 73 91 90 90 89 86 86 86 82 80 72 74 78 77 70 74 86 80 74 66 63 61 57 58 63 78 73 63 59 60 59 61 66 69 62 72
87 64 74 96 97 98 99 98 91 79 72 79 87 90 89 84 84 87 86 82 79 74 64 69 74 68 72 74 73 73 69 56 54 56 62 65 76 86 71 75 59 57 60 61 63 68 60
90 68 58 95 99 100 94 91 94 80 76 77 88 93 88 83 76 81 74 73 72 72 81 70 72 63 59 67 62 59 48 53 55 57 59 63 74 87 82 68 58 50 46 47 58 58 65
90 74 31 91 98 92 83 79 89 79 75 77 87 90 94 78 78 75 76 71 68 66 74 73 64 61 68 65 65 64 67 55 50 53 56 59 75 83 82 86 50 50 46 48 48 51 53
90 79 29 63 96 91 86 84 82 80 76 85 79 84 86 89 74 71 79 77 82 88 81 69 63 62 64 75 66 64 72 62 65 61 52 56 66 76 77 71 54 47 46 39 42 56 51
88 80 43 59 96 90 79 83 82 87 86 82 77 74 77 86 80 74 83 86 82 87 89 82 76 74 66 82 76 71 77 58 72 66 65 73 74 75 79 77 67 50 46 41 48 42 54
90 82 50 58 96 88 85 85 78 70 73 69 61 63 70 88 82 70 66 78 79 86 89 78 74 73 85 78 81 76 72 69 65 59 61 64 73 78 76 76 68 50 48 46 47 59 59
90 84 45 60 95 88 77 78 76 71 64 66 64 64 67 81 79 68 66 64 66 69 83 84 82 83 87 94 85 84 73 77 70 69 57 76 68 68 66 65 48 50 46 47 59 63 57

GFSGBSN_925_rhum_105.txt.gz
RH
96 96 87 86 85 78 82 97 92 93 89 92 90 84 78 82 79 78 80 78 76 77 81 89 87 100 88 85 78 70 71 84 74 73 61 62 58 59 68 62 57 65 62 56 57 59 58
88 87 82 88 80 78 90 93 97 94 99 93 98 85 78 79 82 84 83 81 79 78 84 91 100 89 77 88 75 79 79 74 69 58 68 53 56 54 61 60 59 61 67 69 63 60 58
90 86 78 83 81 84 86 96 93 99 99 100 93 94 81 81 86 85 85 82 80 82 87 97 99 88 81 87 84 86 74 68 61 66 61 52 48 50 57 64 60 65 79 74 66 59 64
90 75 75 77 83 82 85 91 94 98 98 97 94 89 86 88 87 87 87 85 86 85 98 98 96 76 92 87 91 84 83 66 69 58 51 49 48 56 60 57 60 67 77 96 62 61 58
79 76 80 87 80 73 78 82 88 91 92 95 87 84 86 85 81 90 88 87 91 86 94 100 88 76 97 88 93 83 58 56 54 51 50 52 50 60 65 76 85 72 96 83 83 63 63
76 73 81 79 78 79 80 80 82 83 86 90 90 91 90 84 90 88 82 64 98 92 99 85 84 90 93 84 87 65 50 50 59 60 62 68 73 84 82 74 94 86 92 83 90 67 72
74 73 75 76 79 81 82 83 84 83 84 86 90 92 93 92 88 81 60 66 87 88 87 82 85 79 80 78 70 63 54 57 56 63 70 75 86 92 82 76 70 80 87 91 73 62 72
76 75 73 75 75 81 86 86 86 86 86 88 91 92 92 91 87 68 71 92 93 92 96 78 78 83 73 68 74 62 53 65 64 84 75 79 86 70 71 73 77 73 81 85 72 67 72
77 76 73 75 82 82 90 93 92 92 91 91 93 93 92 86 72 72 85 90 89 92 95 90 84 76 75 64 71 72 57 66 72 81 83 87 64 65 68 78 80 78 84 85 87 72 68
78 78 84 83 79 88 91 96 88 89 94 92 95 95 78 56 59 84 81 95 94 96 99 100 94 86 71 65 75 61 56 63 76 78 76 85 70 74 76 85 83 90 68 74 82 95 96
81 80 83 79 90 91 92 92 89 91 95 96 96 95 73 58 70 79 88 96 98 87 93 99 92 84 72 80 77 75 55 68 77 65 68 73 75 80 87 80 69 81 70 84 87 97 98
82 83 83 84 92 88 93 90 88 90 98 97 90 75 75 72 75 82 84 95 93 89 97 100 95 93 88 76 76 77 73 68 76 82 78 83 67 75 84 77 76 72 84 83 80 88 98
83 84 86 84 93 93 95 91 88 86 84 91 96 81 82 87 92 87 78 93 92 94 95 98 94 81 80 89 80 77 85 91 95 100 98 91 86 80 79 90 80 83 97 96 94 99 96
85 87 82 87 95 95 97 96 46 52 61 68 72 71 73 78 79 83 81 89 89 94 98 88 75 77 98 86 82 79 96 100 89 96 100 98 92 96 78 90 94 91 98 98 96 97 97
90 90 89 89 94 96 100 97 66 32 40 45 54 68 72 73 80 91 95 96 99 93 77 87 82 80 87 94 93 94 99 100 89 88 96 100 91 83 85 77 84 92 100 94 100 100 99
95 86 90 90 89 97 100 99 98 52 43 45 51 65 69 69 74 82 92 96 97 79 76 80 82 79 81 86 87 92 96 86 86 75 78 92 99 79 70 85 80 91 87 100 99 97 96
96 81 92 92 95 98 100 100 97 84 56 42 57 84 53 67 64 89 98 95 84 76 78 74 67 67 80 88 75 89 83 71 76 82 82 86 90 74 71 79 66 89 99 99 97 99 97
92 85 93 93 97 97 99 98 96 96 67 52 76 86 47 61 88 94 96 90 77 80 75 74 60 50 68 78 86 81 74 72 60 80 96 83 85 97 67 51 53 58 68 75 98 88 83
95 84 87 95 96 97 99 98 80 77 84 67 92 97 48 62 94 97 80 77 77 82 82 81 71 62 49 58 69 69 67 53 58 60 56 59 75 93 64 50 55 69 63 64 62 70 88
96 83 70 96 96 97 99 97 85 77 70 70 88 90 91 90 90 85 91 90 85 70 73 72 70 55 57 67 65 68 68 55 58 57 55 57 73 75 84 72 67 74 65 63 65 89 94
96 87 49 92 95 99 99 99 90 75 71 68 91 95 88 96 92 91 84 83 84 84 71 71 66 77 61 74 67 72 67 64 53 59 57 57 72 76 62 60 58 60 69 70 88 75 93
95 89 61 67 95 100 98 97 90 83 71 73 93 91 90 87 85 84 85 82 87 84 79 76 75 72 77 81 76 77 80 62 62 60 59 67 82 73 54 62 65 57 62 67 71 69 81
95 90 71 42 88 100 98 90 87 79 74 79 93 94 83 84 80 85 88 83 80 79 66 71 78 74 71 71 74 75 74 67 59 60 66 68 76 83 66 73 60 52 57 61 62 66 66
98 90 78 29 73 99 93 88 86 73 76 77 89 90 83 83 80 81 76 74 75 76 81 75 71 69 60 71 72 69 66 58 52 55 63 66 77 86 85 64 50 47 50 49 58 58 63
99 92 80 30 81 87 88 86 79 71 74 71 88 88 86 86 80 75 73 76 76 75 75 74 65 62 73 70 65 62 66 47 47 51 56 62 78 83 82 84 46 48 48 53 52 52 53
99 92 81 35 83 86 85 86 79 78 77 75 80 84 84 84 80 70 77 76 88 90 82 67 64 66 66 73 68 65 66 62 57 63 53 64 69 75 79 70 46 41 47 40 42 58 52
100 98 84 39 82 87 83 91 88 84 78 77 76 75 75 84 81 76 81 80 82 88 93 84 80 81 69 82 78 74 79 62 69 70 66 71 76 74 81 82 65 51 45 42 48 36 58
98 99 88 39 80 89 84 79 72 68 65 63 61 64 75 87 82 74 70 80 85 89 87 77 77 75 88 79 84 82 77 73 75 61 62 64 69 76 80 78 59 50 49 48 45 60 58
94 97 91 39 65 89 81 79 81 72 68 67 62 64 66 81 78 71 65 61 62 68 83 83 82 84 89 94 89 89 78 80 71 75 57 76 66 69 70 65 48 51 46 45 61 63 59

GFSGBSN_925_rhum_108.txt.gz
RH
86 73 74 80 83 79 80 80 97 98 99 86 95 99 92 85 82 85 86 83 82 77 78 83 94 98 97 90 91 82 79 84 76 71 62 57 60 60 70 63 58 66 62 61 60 63 61
76 72 82 82 77 75 78 75 79 98 95 99 98 94 90 84 86 87 86 84 82 80 80 87 87 99 82 91 82 84 86 83 73 60 59 53 56 55 63 62 61 63 68 71 66 63 62
72 73 82 87 82 74 77 79 80 79 97 94 88 91 88 87 86 87 87 85 84 85 86 91 100 85 85 97 92 98 86 69 63 61 59 52 48 55 57 64 60 65 76 75 66 60 65
72 72 82 83 73 79 76 79 80 79 79 87 93 89 86 87 89 90 88 85 91 97 91 94 97 90 98 100 98 88 80 69 59 52 50 50 46 58 57 57 60 66 71 82 50 63 59
74 77 79 78 79 80 82 82 78 81 80 82 85 87 88 89 88 88 82 83 100 84 88 96 85 82 99 94 96 92 73 59 52 52 53 50 49 62 63 78 82 78 92 85 77 63 62
75 83 72 81 84 84 88 85 88 85 85 85 86 88 90 90 87 79 50 90 86 86 90 75 78 80 94 91 87 65 61 54 61 59 65 68 78 84 85 84 76 80 98 86 88 66 74
76 79 86 84 86 91 91 90 84 86 90 88 88 90 90 88 81 61 56 75 83 86 86 90 91 84 80 89 75 66 54 56 55 61 75 74 90 96 83 74 70 78 88 93 73 62 71
79 84 88 86 94 95 91 88 88 89 95 91 92 93 92 87 71 68 69 92 90 90 94 77 80 78 77 68 77 64 54 66 63 81 75 80 90 73 72 73 79 83 92 88 74 67 74
82 84 87 92 97 95 87 86 91 72 72 94 93 94 77 80 67 72 95 95 98 88 92 87 88 82 76 69 76 72 57 63 70 81 85 85 63 64 72 80 86 87 92 88 84 70 68
84 83 88 92 98 98 85 89 92 94 62 72 68 66 57 62 60 78 95 97 94 93 93 100 93 86 72 66 80 63 58 63 74 82 81 87 72 72 76 85 81 92 68 72 80 88 92
86 85 85 90 98 99 92 87 89 96 78 69 68 62 60 58 69 88 88 96 95 97 92 98 95 84 71 84 75 70 58 68 83 68 70 71 71 86 87 77 74 82 67 76 86 95 98
85 88 84 88 94 99 97 94 94 69 71 64 66 64 62 69 82 92 90 80 83 80 96 100 95 94 94 79 80 74 64 66 73 86 74 79 66 72 81 78 77 72 85 84 90 95 97
90 90 89 88 88 95 98 90 98 96 52 52 51 58 64 70 82 75 79 89 85 94 97 100 100 96 89 88 88 84 89 96 94 98 97 82 80 75 76 89 79 88 97 97 92 100 93
95 87 90 91 90 93 96 92 97 99 92 54 57 63 71 76 82 86 75 86 88 94 95 83 80 96 89 83 81 85 90 97 90 92 100 95 84 85 76 81 92 97 99 98 96 99 92
99 84 92 92 95 96 98 97 97 100 100 80 63 48 66 80 88 90 89 95 100 93 80 84 82 86 100 96 93 88 99 97 92 94 100 100 90 82 83 77 82 93 99 92 100 99 99
99 93 91 92 94 100 98 98 100 99 99 77 68 61 61 73 75 78 91 88 97 83 77 77 81 75 81 90 96 99 99 86 92 82 76 90 98 77 73 86 83 92 82 100 99 97 96
100 94 83 95 93 98 100 100 99 98 92 74 68 79 54 62 58 88 99 96 86 76 80 81 68 79 79 98 84 87 82 75 79 79 77 87 90 77 72 87 68 94 99 99 100 100 97
100 95 74 92 95 96 98 99 99 98 84 61 78 80 46 56 88 93 93 86 76 76 76 77 70 53 71 83 91 90 76 73 65 82 94 83 90 98 72 55 53 59 69 88 98 97 97
99 90 81 48 95 96 98 98 99 99 91 77 90 96 46 52 92 96 81 77 76 80 80 80 69 66 57 64 71 70 67 54 60 79 64 64 77 92 59 54 54 68 65 67 72 80 89
100 97 84 43 86 95 98 93 95 92 79 70 84 82 85 92 90 86 95 88 82 69 71 71 74 59 57 67 65 64 66 55 59 59 56 55 73 74 84 72 69 73 70 72 70 92 89
100 97 91 48 80 96 94 92 87 88 73 70 91 96 89 94 91 87 82 84 88 86 75 73 66 80 81 70 68 74 70 65 53 59 59 58 67 78 66 64 62 61 67 77 91 82 93
95 96 92 66 54 100 97 92 85 86 70 71 86 86 88 90 83 74 84 84 88 84 81 79 79 83 78 82 82 84 80 66 64 62 62 69 76 75 62 59 68 56 59 63 69 72 84
90 93 93 71 53 100 85 89 82 74 71 80 98 98 84 85 81 82 88 81 80 78 69 72 78 78 73 74 75 79 76 79 68 67 68 70 75 82 66 67 53 46 51 60 62 65 74
91 92 91 74 63 84 78 78 74 74 75 78 92 86 82 82 82 82 79 74 74 76 82 75 69 71 59 73 77 74 78 76 67 59 68 68 78 86 86 61 45 38 50 50 60 60 65
92 96 89 78 59 78 78 72 71 72 78 75 89 86 85 81 83 80 76 73 72 73 75 77 67 63 78 69 66 63 64 44 48 52 58 69 77 80 82 85 41 46 51 55 56 51 61
92 97 95 84 51 80 82 78 74 70 74 72 75 81 82 81 75 69 75 75 80 82 77 67 64 69 66 73 69 62 58 64 57 62 58 65 73 74 77 70 32 32 48 42 42 64 54
88 97 95 89 48 82 83 84 75 71 67 69 68 69 74 82 80 75 81 80 82 90 87 83 74 75 68 80 78 75 81 64 71 70 61 72 75 73 79 86 65 48 46 43 52 37 54
87 92 96 92 45 77 82 74 74 68 65 65 60 64 75 86 82 78 71 79 84 89 84 74 76 76 87 77 86 84 84 76 78 65 59 66 70 78 85 86 64 49 49 52 45 58 57
88 90 91 94 64 58 83 76 80 74 68 68 64 63 66 81 78 72 65 63 63 68 83 85 86 84 90 94 93 91 85 85 75 78 58 80 67 64 71 64 45 52 51 45 56 64 61

GFSGBSN_925_rhum_111.txt.gz
RH
70 78 86 79 84 84 75 74 73 78 89 94 92 96 90 88 87 82 83 85 84 79 79 83 90 100 88 81 92 100 84 81 80 67 60 57 59 61 71 66 60 67 63 61 58 62 60
73 80 83 84 85 86 80 76 75 74 83 85 95 87 83 84 84 85 84 86 85 83 80 86 92 96 81 87 98 96 91 77 66 60 54 53 57 56 65 63 59 63 66 66 63 59 59
75 81 79 86 85 88 90 85 78 78 77 80 80 83 85 86 86 87 88 86 85 84 86 90 90 92 89 97 100 96 86 76 58 52 57 50 48 55 58 65 61 65 67 67 60 60 61
76 83 86 84 86 89 92 91 84 82 81 82 85 83 84 85 86 87 85 83 95 96 94 95 86 70 97 99 100 89 72 60 52 49 48 48 45 58 58 57 62 66 67 59 44 62 58
79 83 87 89 95 91 86 92 82 87 83 85 86 87 86 85 86 63 64 98 95 83 89 91 83 75 92 99 97 87 70 61 53 52 51 46 50 66 63 74 69 74 72 76 66 61 63
82 82 87 91 93 89 91 90 89 93 88 88 87 90 89 83 52 51 84 82 81 85 84 84 80 87 96 96 86 81 66 55 60 57 64 68 79 80 82 76 56 62 87 82 80 60 67
83 84 86 90 94 90 81 90 90 95 91 87 73 90 85 86 61 58 80 67 79 82 79 91 89 85 86 85 65 65 61 53 54 62 80 75 83 82 76 72 66 76 83 86 71 59 69
85 84 87 90 96 91 83 86 90 94 96 92 85 77 72 74 71 64 64 94 94 91 89 79 77 80 80 72 73 62 56 64 64 81 72 78 80 68 70 72 76 80 87 85 72 65 68
86 84 83 89 94 95 90 86 91 99 97 94 89 56 61 57 62 75 94 100 95 94 87 86 83 86 88 68 74 70 57 61 70 80 81 77 63 67 70 80 83 85 88 84 82 71 68
87 86 88 88 91 94 93 93 91 94 98 76 57 57 49 46 57 78 92 98 96 93 91 99 92 91 76 73 83 61 59 63 74 75 84 84 70 69 77 82 80 90 71 72 76 84 87
89 89 91 89 87 93 94 94 92 89 92 80 61 55 61 58 73 90 90 92 87 81 88 97 92 78 76 82 76 70 60 67 88 86 70 67 72 86 87 77 73 82 68 75 77 91 99
95 88 91 93 94 93 94 93 90 92 84 67 63 60 55 61 69 77 76 76 77 80 97 98 92 96 87 80 79 72 67 63 70 89 76 71 64 73 72 70 73 69 86 85 88 97 97
100 90 93 94 95 98 99 94 89 87 90 77 67 72 72 73 72 70 74 75 83 93 94 100 100 93 86 85 88 84 82 84 90 90 90 80 81 71 70 89 83 83 92 92 89 98 89
99 99 89 92 96 99 99 98 96 92 94 83 61 65 70 82 81 78 70 82 88 92 89 82 83 86 76 86 84 86 91 96 91 92 94 93 86 80 75 80 89 98 99 98 97 94 84
100 99 92 93 93 94 98 100 97 96 92 91 58 57 61 81 87 80 84 90 99 95 80 84 84 95 97 95 85 83 95 86 81 82 92 99 88 81 81 77 81 95 100 92 100 99 97
99 100 97 84 94 94 99 100 100 98 76 66 57 57 64 70 78 77 90 90 96 84 80 76 84 77 85 82 89 91 91 78 86 82 79 91 96 71 76 82 80 94 84 99 98 95 94
97 100 99 87 90 95 100 100 100 100 73 62 61 78 62 66 73 88 97 95 85 75 79 76 70 80 85 90 87 86 83 77 78 84 83 88 92 74 74 93 97 95 99 99 100 100 95
94 98 93 89 67 95 100 100 100 98 67 60 73 81 54 68 86 92 91 83 75 75 75 79 76 56 73 83 89 90 80 73 71 80 96 80 89 98 75 55 54 61 91 96 95 96 94
91 97 88 81 50 96 99 94 91 88 73 71 85 92 49 62 86 94 79 76 76 79 78 78 70 64 59 69 74 77 66 54 69 84 79 76 85 91 60 56 55 76 95 89 98 90 89
91 95 95 80 42 96 99 91 89 82 65 61 81 78 83 93 89 83 86 85 83 70 72 70 76 66 61 67 65 67 68 56 59 60 61 57 72 74 76 66 66 74 66 85 82 93 84
89 91 95 87 38 98 96 93 87 69 60 59 90 97 90 87 88 85 81 81 84 87 77 73 66 82 83 76 69 76 74 67 52 58 61 60 72 78 71 68 63 67 63 77 90 82 92
88 89 94 89 40 91 92 80 70 67 59 70 85 83 87 90 85 74 81 84 82 78 81 77 78 82 77 81 83 90 83 69 66 65 65 70 76 77 77 61 69 69 56 68 70 84 88
89 87 93 90 45 72 90 78 67 64 59 80 98 96 81 86 82 81 82 82 80 80 72 71 77 80 72 72 76 80 79 78 74 69 72 75 77 81 72 64 60 52 53 64 64 70 78
89 88 91 91 55 69 77 78 73 69 65 70 90 82 79 76 86 81 81 75 79 74 76 73 74 74 59 75 78 80 86 89 86 76 73 71 77 85 87 60 37 33 50 52 62 62 69
88 90 87 93 73 64 76 76 79 71 68 65 82 82 82 73 81 78 77 77 74 71 82 76 69 65 77 66 66 60 58 43 52 56 68 74 79 81 79 83 36 43 47 56 60 55 62
93 89 85 88 88 54 78 74 75 73 68 70 70 73 78 77 70 66 76 75 79 78 76 73 62 70 64 74 67 56 51 62 59 62 70 72 73 72 80 63 28 26 48 44 44 54 41
94 87 87 86 89 50 76 73 66 67 66 63 60 68 72 83 78 74 80 78 82 87 88 84 78 75 70 78 75 75 76 67 70 67 57 71 72 75 76 81 60 45 47 43 52 35 49
99 94 88 86 87 68 69 73 74 68 69 69 62 62 66 87 81 78 72 82 89 89 81 70 75 75 87 74 83 84 84 77 80 69 60 58 64 76 84 86 64 52 51 50 46 47 56
99 99 90 89 86 88 51 75 74 77 68 64 67 70 63 79 74 68 65 62 63 66 84 85 79 84 89 94 93 91 90 91 79 78 65 71 65 62 67 61 47 53 53 44 51 57 54

GFSGBSN_925_rhum_114.txt.gz
RH
74 81 81 84 85 89 90 90 80 76 73 86 80 89 84 86 84 84 86 85 81 80 79 85 88 89 94 80 99 99 79 94 61 55 48 44 38 41 44 44 50 45 48 48 44 45 42
74 82 83 84 93 93 86 91 89 79 79 78 83 84 79 87 88 87 87 87 86 84 81 86 85 96 81 90 99 96 90 87 66 55 52 48 46 42 48 47 41 45 48 44 42 41 42
76 82 83 91 90 87 88 90 92 84 82 81 81 85 83 59 86 86 82 86 85 84 85 84 80 86 64 99 94 88 78 77 73 51 49 48 45 40 44 52 49 51 46 40 40 43 41
79 83 84 90 90 83 84 85 97 89 83 85 85 86 86 84 42 70 85 99 99 96 94 84 78 72 99 100 88 70 60 58 52 50 50 49 42 43 44 45 48 46 46 36 35 45 46
84 84 84 89 88 80 87 89 93 93 86 87 88 86 88 60 46 82 99 96 92 98 99 88 76 68 99 89 94 84 74 59 53 51 48 47 46 51 48 51 45 46 54 43 34 45 50
89 88 85 92 90 86 81 90 92 93 90 89 87 87 88 58 58 83 90 83 82 84 79 80 90 79 84 97 94 84 63 55 51 49 48 49 53 55 56 49 42 43 60 50 44 42 46
87 84 87 90 92 90 86 84 92 91 89 90 88 84 84 78 74 76 68 65 69 80 82 93 85 86 85 78 81 70 59 45 43 45 56 60 53 63 57 48 46 48 50 51 44 41 56
85 91 92 87 91 92 88 90 88 90 90 92 87 68 68 73 66 68 68 80 93 83 90 78 78 84 81 75 76 55 56 50 51 63 59 57 54 56 56 57 56 56 58 53 49 51 54
86 85 91 92 90 92 92 93 95 92 94 94 92 68 52 54 70 80 98 99 99 94 83 79 77 85 88 64 63 61 51 53 56 61 59 53 60 57 56 64 64 57 60 58 65 55 48
92 88 92 93 96 92 94 94 94 96 64 59 90 70 62 46 56 81 86 95 97 88 87 96 79 84 69 65 75 58 57 59 62 64 65 61 58 57 60 61 58 66 52 58 64 71 79
100 89 89 92 95 96 95 94 92 90 83 60 68 74 60 55 72 74 79 76 76 74 79 86 81 72 62 68 67 64 60 57 72 72 64 58 65 70 73 65 58 59 58 64 67 81 92
99 98 90 90 93 95 96 90 91 86 84 71 60 68 63 59 74 85 78 76 87 89 91 91 92 94 82 78 71 62 61 54 58 72 64 60 51 58 54 55 58 50 64 66 68 87 94
98 99 95 92 92 90 96 91 88 92 91 74 57 52 68 76 72 72 70 69 93 83 87 86 87 78 69 71 70 69 66 65 71 91 89 70 69 61 57 70 66 73 80 85 84 88 70
97 99 99 89 92 94 95 95 92 96 96 72 44 47 58 79 78 66 72 70 78 76 75 71 76 75 69 77 70 72 72 78 79 76 80 87 84 69 61 64 72 73 97 94 86 71 64
87 98 98 96 88 94 96 97 94 97 86 57 45 45 62 72 75 62 64 93 94 78 67 72 73 68 82 87 72 73 86 83 76 76 82 90 74 65 64 63 69 89 98 77 100 94 92
89 94 98 98 87 96 99 95 94 98 86 65 50 58 73 66 68 77 85 89 85 74 70 66 73 68 69 70 75 78 74 66 75 72 66 74 84 60 69 71 72 90 90 99 98 86 81
89 89 93 99 62 96 100 90 91 97 70 60 59 68 63 64 68 65 97 87 74 66 72 70 62 68 68 72 72 71 67 65 68 78 75 85 82 65 66 80 89 81 98 99 98 86 79
87 92 88 94 44 98 96 90 85 92 68 54 70 95 56 66 78 77 77 71 71 68 67 69 69 53 61 70 71 69 65 59 59 65 78 69 78 85 61 51 53 59 90 97 84 92 74
86 90 90 85 48 88 90 91 75 75 68 61 69 76 54 61 80 76 69 68 66 66 68 67 62 59 55 59 63 64 58 56 62 68 65 65 73 78 54 52 52 58 81 93 80 79 76
85 87 90 85 45 81 86 66 64 63 66 58 53 88 63 68 71 60 67 72 70 66 66 63 64 57 53 55 55 59 52 54 54 57 66 59 60 64 60 51 55 58 54 80 73 86 65
87 85 91 88 48 63 72 63 65 61 60 57 65 83 77 80 68 69 67 69 69 67 65 60 57 67 67 57 53 56 61 53 50 53 58 55 67 68 55 51 54 57 53 66 76 70 74
87 84 87 88 65 58 65 60 65 60 56 73 66 73 75 74 69 68 71 67 67 68 64 60 55 62 61 61 62 67 68 58 54 48 53 55 68 64 68 53 57 59 49 49 68 70 65
86 86 86 89 80 53 64 63 65 55 55 80 98 89 65 79 69 68 63 64 63 68 63 62 60 62 62 57 55 53 56 58 58 64 56 59 61 65 57 47 45 42 36 45 50 54 61
91 88 86 88 87 49 65 68 66 59 53 68 85 80 59 59 62 57 68 70 69 67 74 64 68 67 58 58 65 69 70 71 69 68 58 57 61 69 75 52 42 34 45 43 48 48 49
96 88 87 86 89 56 67 71 70 65 63 59 76 84 72 51 56 63 69 65 63 60 66 72 61 59 59 56 53 44 44 44 51 58 61 56 57 62 63 49 24 32 36 46 48 41 40
98 92 87 84 88 79 65 70 68 62 63 65 61 70 70 54 48 57 62 63 59 60 58 62 56 62 57 56 54 47 32 42 42 49 54 60 58 54 60 53 27 25 42 40 40 40 36
100 97 90 85 85 88 58 72 72 67 67 61 60 66 72 68 60 61 61 62 64 71 61 64 63 66 63 56 52 49 47 55 46 47 52 59 58 63 52 47 32 30 42 40 44 29 38
100 100 97 88 85 85 82 59 73 74 67 67 63 64 64 70 63 67 62 70 78 72 58 58 62 69 72 67 59 54 61 54 61 52 47 40 40 49 53 61 54 41 46 42 33 38 43
99 100 100 96 87 86 87 60 74 77 74 66 69 69 66 73 64 67 63 59 61 62 60 72 67 72 68 74 72 68 65 67 59 46 53 52 40 41 42 33 39 42 40 37 40 41 40

GFSGBSN_925_rhum_117.txt.gz
RH
84 79 86 86 88 85 84 88 92 80 75 76 77 85 81 85 87 88 88 85 81 79 80 82 85 95 94 87 95 92 89 92 54 42 35 30 25 26 28 30 35 28 34 34 33 35 33
86 81 87 90 78 86 86 86 96 84 80 85 82 81 82 82 77 86 87 87 85 84 78 88 97 91 89 90 98 98 91 68 48 43 39 33 32 30 35 35 33 34 37 34 31 31 31
87 87 87 88 84 89 87 86 95 87 84 84 85 84 83 85 82 81 81 87 85 82 80 86 96 80 78 99 99 95 92 78 53 44 44 42 34 31 33 40 38 40 38 30 31 32 32
90 88 87 91 92 90 84 87 92 87 83 82 83 84 87 86 89 96 92 92 86 88 84 80 79 82 98 95 85 71 66 53 49 44 43 39 34 35 35 35 37 36 37 35 33 38 37
87 92 88 90 91 91 85 90 88 87 85 83 83 86 88 85 95 90 70 86 96 96 88 81 73 68 96 94 94 76 58 50 47 43 40 37 36 39 39 45 40 40 50 34 30 36 38
88 92 90 90 92 91 94 83 87 85 87 84 85 84 88 84 89 98 92 82 82 81 78 67 74 72 85 95 97 79 63 49 46 44 43 39 39 43 42 45 46 36 45 36 30 37 39
85 92 93 91 90 93 91 95 87 89 92 89 85 61 86 79 78 73 72 77 77 81 82 90 87 86 88 92 76 62 48 40 38 39 45 46 47 56 50 37 34 32 31 32 29 31 47
86 86 94 93 92 90 93 94 95 93 92 83 89 48 52 67 68 63 74 72 94 91 89 72 77 82 81 68 77 50 48 45 45 53 47 48 46 43 44 44 42 40 42 36 40 42 44
96 87 86 94 94 94 94 95 95 95 94 66 61 61 46 58 65 73 84 93 99 94 68 68 66 72 78 59 57 56 42 43 45 48 44 45 52 47 46 50 48 41 44 44 52 47 38
94 93 89 86 93 94 95 96 96 97 95 74 69 60 46 52 57 69 68 85 93 84 78 85 70 67 57 56 62 51 51 52 50 52 47 47 46 47 48 47 46 48 43 49 54 67 75
95 96 90 90 90 93 95 95 98 100 100 92 59 65 50 57 62 58 77 84 84 76 72 75 74 61 49 56 56 56 53 49 56 58 59 54 58 59 58 52 47 52 50 55 58 72 87
92 95 97 89 92 92 95 96 95 100 100 100 82 50 59 65 68 74 65 79 76 90 90 81 75 78 74 56 58 54 54 48 49 59 54 50 43 50 50 46 50 46 57 57 59 66 90
91 95 94 94 91 95 96 96 95 96 95 85 64 50 66 73 57 74 77 66 95 81 72 74 70 57 49 56 58 55 57 55 63 91 87 65 59 53 49 59 55 61 76 80 94 96 71
87 92 96 98 91 96 100 96 96 89 93 54 47 57 66 80 85 86 72 61 78 69 61 59 61 57 61 63 57 59 61 69 65 61 69 81 80 59 55 58 66 76 78 91 87 75 61
87 87 93 99 93 99 97 98 97 87 77 53 44 66 67 76 62 84 53 93 90 66 56 58 60 51 62 61 64 58 65 71 67 64 68 74 64 51 52 51 59 92 95 76 99 69 87
88 88 92 98 92 99 98 98 97 84 60 51 61 56 62 52 56 76 76 84 68 60 59 56 70 58 61 56 59 61 57 57 65 64 55 64 77 52 64 63 63 71 83 99 100 88 83
86 87 88 98 54 96 96 96 95 59 52 47 61 54 56 47 63 53 92 73 61 56 59 57 53 53 54 58 59 56 54 56 56 69 64 71 70 61 59 70 60 88 91 98 92 79 84
86 87 82 88 44 81 70 61 68 58 50 55 59 90 48 48 73 57 66 57 64 58 57 56 56 48 48 55 53 54 55 52 50 57 64 57 64 78 54 41 45 51 71 86 86 90 66
88 87 84 84 52 62 63 61 65 60 52 64 47 66 58 67 72 65 58 59 58 58 56 55 52 50 48 50 54 50 49 50 52 56 58 54 66 72 54 48 45 58 70 81 71 74 79
87 87 85 85 61 58 61 59 64 60 49 59 41 86 51 45 50 47 56 59 62 58 55 52 49 48 46 44 44 46 41 46 48 52 64 57 56 59 59 41 44 49 46 68 72 88 64
80 86 85 86 74 50 60 58 58 60 53 57 52 69 65 68 55 53 55 57 56 56 55 50 47 50 45 41 42 39 42 42 45 51 54 53 62 57 51 44 40 42 47 42 74 70 73
88 86 86 87 82 46 58 57 55 54 53 63 52 55 57 58 56 54 60 54 56 50 56 44 51 45 46 45 43 44 48 41 36 42 42 46 62 50 64 38 44 48 43 42 41 50 57
95 87 87 87 84 50 60 56 55 50 56 63 85 71 56 70 55 54 44 49 53 57 53 53 57 53 44 52 56 49 46 45 46 50 45 48 52 53 53 40 37 36 31 33 36 39 49
98 90 85 86 85 70 62 62 57 56 55 72 81 63 48 46 49 43 51 54 53 56 57 51 53 54 51 47 43 44 53 52 52 52 53 54 50 55 73 51 54 33 37 38 29 34 36
98 97 87 85 84 85 55 65 61 56 58 58 69 71 58 40 39 47 51 52 50 50 59 53 46 45 47 48 42 34 31 39 42 50 53 53 55 57 65 47 28 19 30 40 46 35 32
97 99 93 88 88 86 73 64 66 61 62 59 59 66 59 48 36 42 49 48 49 43 45 52 48 50 53 46 43 43 29 30 30 41 46 50 52 60 46 53 31 30 37 36 37 37 32
89 98 99 94 90 87 86 60 68 66 66 62 59 62 67 57 44 47 47 47 46 51 48 48 49 60 55 45 45 38 35 38 37 37 49 54 54 61 54 54 35 30 38 36 43 39 34
87 94 98 98 96 89 85 84 59 70 69 65 68 62 71 60 52 54 49 54 60 58 46 50 50 60 59 57 44 38 44 36 47 32 35 36 36 47 41 44 55 33 42 39 34 33 34
86 90 95 99 99 95 90 87 77 68 74 72 75 67 67 68 56 65 56 52 54 55 55 52 54 57 50 66 54 47 51 46 40 36 38 45 30 26 28 30 34 32 31 31 35 39 36

GFSGBSN_925_rhum_120.txt.gz
RH
84 87 87 94 86 81 84 88 90 85 80 79 77 79 80 81 80 85 88 85 82 79 82 93 86 100 86 82 98 90 93 87 47 40 33 31 31 30 35 32 35 35 34 30 32 33 33
89 84 88 90 89 84 86 87 83 80 77 78 79 82 83 82 87 87 83 84 83 80 80 90 94 93 71 93 100 100 96 60 42 37 33 29 32 30 35 37 37 36 37 34 30 31 31
85 87 85 90 89 91 84 85 86 81 78 79 82 84 89 96 97 97 98 81 83 79 85 92 90 82 84 100 100 100 83 57 47 40 42 35 31 33 34 42 36 38 37 37 36 32 34
89 92 88 89 91 93 88 85 80 86 82 83 84 88 99 99 84 76 90 86 94 93 86 84 79 76 98 96 92 92 88 55 44 41 39 35 32 37 38 38 37 38 36 45 40 40 43
85 89 88 92 89 92 94 90 86 88 88 86 87 91 97 96 100 78 84 97 93 91 87 95 77 70 99 82 90 81 71 54 42 39 35 34 34 40 39 47 49 42 68 39 46 35 38
85 87 91 88 90 92 92 94 94 90 90 89 88 86 86 85 90 96 84 80 78 74 73 68 69 72 84 94 87 65 53 46 43 43 43 38 41 49 45 56 66 48 50 37 34 47 44
88 88 85 94 91 93 93 91 92 95 94 86 59 62 73 72 68 65 71 77 83 87 82 93 85 85 83 71 63 52 43 38 38 41 50 43 53 78 51 43 36 32 32 31 30 42 49
95 88 89 86 93 92 95 94 93 96 96 94 53 53 63 63 66 67 67 81 96 81 94 72 72 77 74 67 58 48 46 44 47 56 43 52 58 44 42 41 39 36 39 41 48 42 46
96 95 88 90 90 94 93 95 95 93 97 96 65 46 54 58 64 64 81 89 90 88 68 61 58 66 70 59 58 58 45 42 46 47 46 60 55 42 42 46 44 42 42 46 54 52 48
97 92 95 89 92 94 93 94 94 97 90 92 62 48 44 53 59 64 68 82 85 83 89 81 65 59 51 52 58 48 50 53 48 52 52 52 44 44 46 44 43 50 45 48 54 76 92
94 96 92 94 91 96 100 96 94 93 93 60 49 51 41 62 63 60 78 80 78 80 90 74 68 53 48 55 55 54 48 47 59 53 60 60 58 57 56 51 45 60 51 57 59 62 83
89 92 95 94 91 99 100 100 100 99 89 50 47 50 47 59 63 80 80 75 76 91 96 74 61 61 53 50 52 51 51 46 49 53 51 50 43 50 52 46 49 49 59 61 54 71 92
87 87 90 93 93 96 98 99 100 100 80 46 49 53 53 65 72 66 65 71 94 92 65 66 65 47 49 53 54 52 54 60 71 85 78 66 59 53 48 56 53 57 65 93 81 94 92
86 88 87 98 94 100 97 96 100 98 62 43 48 64 64 62 59 59 75 88 85 66 62 54 56 53 63 57 55 56 54 68 62 56 69 86 87 62 57 59 66 72 76 84 81 97 88
85 86 88 95 72 98 100 98 98 68 54 43 60 64 61 54 59 70 79 91 85 62 52 57 63 56 61 56 61 54 60 66 61 56 70 75 68 52 55 50 57 87 86 78 96 88 97
88 86 87 92 47 90 94 92 66 64 50 40 58 55 59 46 53 78 90 84 70 55 54 53 63 53 54 55 58 56 56 54 62 58 54 65 71 52 68 62 61 69 78 95 100 97 94
92 88 90 90 42 65 58 63 62 50 44 45 60 72 53 41 66 68 98 75 60 52 55 58 51 49 48 52 51 51 55 58 56 66 59 65 66 65 68 79 78 86 88 91 93 91 96
88 92 81 88 57 60 59 57 58 45 43 49 62 97 40 44 88 66 80 59 69 55 54 54 57 48 48 50 51 50 53 53 49 54 62 60 66 88 62 47 44 53 70 82 98 95 82
87 86 82 85 76 54 57 58 53 51 48 64 60 88 48 55 92 81 57 57 57 56 53 53 51 49 45 48 58 47 47 52 52 54 63 58 74 89 66 52 52 63 66 74 72 75 90
86 85 84 81 84 48 56 56 53 45 47 59 62 93 72 56 51 52 56 59 60 58 55 51 50 47 46 43 40 47 40 48 50 49 59 60 65 69 83 54 51 58 59 80 80 95 69
89 86 86 83 82 52 56 55 51 47 47 60 66 78 70 92 63 52 52 55 54 56 59 47 50 47 48 46 38 37 39 39 49 55 54 61 74 66 63 54 52 53 49 58 84 78 80
87 85 85 86 81 67 56 54 51 46 48 56 71 69 65 62 55 53 63 58 54 50 54 49 53 48 46 52 49 54 51 45 42 52 47 52 76 63 70 50 50 54 47 44 45 60 74
89 88 84 84 83 79 51 57 52 46 48 65 72 62 68 73 57 60 55 47 48 55 51 48 52 55 51 46 53 52 50 52 51 53 51 50 65 75 82 62 62 61 41 40 45 44 44
90 90 88 82 86 81 62 57 56 52 51 71 70 71 64 67 58 51 47 49 53 54 60 48 51 56 56 48 50 53 57 56 57 55 54 66 61 71 90 77 76 44 39 41 48 42 37
89 90 92 88 87 84 80 54 61 57 55 51 63 83 73 65 44 43 49 52 48 50 61 54 48 45 51 55 58 48 52 51 54 57 60 61 68 83 88 80 51 39 33 40 46 44 39
90 86 92 94 89 88 84 75 54 64 62 61 56 63 70 69 49 38 51 47 58 54 50 54 47 49 54 63 54 55 48 34 42 57 45 55 64 77 67 76 55 31 39 35 38 59 39
94 87 87 94 94 90 88 84 68 57 67 64 62 58 75 76 52 46 53 54 49 58 61 49 56 67 56 65 66 55 58 38 45 42 74 74 76 88 86 79 60 38 43 37 51 47 39
95 90 89 91 91 93 92 89 84 61 63 70 71 63 68 79 69 53 48 55 62 67 61 60 62 70 74 75 60 55 53 46 54 42 42 61 70 77 67 70 68 43 45 46 42 41 37
96 95 96 91 94 97 96 91 88 85 61 74 80 73 66 78 72 61 54 50 50 58 67 58 63 62 67 86 72 60 66 58 52 54 39 52 38 40 46 55 39 41 38 38 40 43 41